<?xml version="1.0" encoding="UTF-8" standalone="no" ?>
<gpx xmlns="http://www.topografix.com/GPX/1/1" xmlns:xsi="http://www.w3.org/2001/XMLSchema-instance" xsi:schemaLocation="http://www.topografix.com/GPX/1/1 http://www.topografix.com/GPX/1/1/gpx.xsd" version="1.1" creator="VisuGPX - https://www.visugpx.com">
  <metadata>
    <name>Rando de PLOUISY</name>
    <desc><![CDATA[2012-11-16 Plouisy]]></desc>
  </metadata>
  <trk>
    <name><![CDATA[001-2012/11/16-13:50:18]]></name>
    <trkseg>
      <trkpt lat="48.5807" lon="-3.1816">
        <ele>148</ele>
        <time>2012-11-16T12:50:18Z</time>
      </trkpt>
      <trkpt lat="48.58093" lon="-3.18182">
        <ele>143</ele>
        <time>2012-11-16T12:50:53Z</time>
      </trkpt>
      <trkpt lat="48.58096" lon="-3.18194">
        <ele>143</ele>
        <time>2012-11-16T12:50:58Z</time>
      </trkpt>
      <trkpt lat="48.58099" lon="-3.18204">
        <ele>143</ele>
        <time>2012-11-16T12:51:03Z</time>
      </trkpt>
      <trkpt lat="48.581" lon="-3.18217">
        <ele>143</ele>
        <time>2012-11-16T12:51:09Z</time>
      </trkpt>
      <trkpt lat="48.581" lon="-3.18228">
        <ele>143</ele>
        <time>2012-11-16T12:51:14Z</time>
      </trkpt>
      <trkpt lat="48.58096" lon="-3.18239">
        <ele>143</ele>
        <time>2012-11-16T12:51:19Z</time>
      </trkpt>
      <trkpt lat="48.58093" lon="-3.18249">
        <ele>143</ele>
        <time>2012-11-16T12:51:24Z</time>
      </trkpt>
      <trkpt lat="48.5809" lon="-3.1826">
        <ele>143</ele>
        <time>2012-11-16T12:51:29Z</time>
      </trkpt>
      <trkpt lat="48.58087" lon="-3.1827">
        <ele>143</ele>
        <time>2012-11-16T12:51:34Z</time>
      </trkpt>
      <trkpt lat="48.58082" lon="-3.18282">
        <ele>143</ele>
        <time>2012-11-16T12:51:40Z</time>
      </trkpt>
      <trkpt lat="48.58078" lon="-3.18293">
        <ele>143</ele>
        <time>2012-11-16T12:51:45Z</time>
      </trkpt>
      <trkpt lat="48.58075" lon="-3.18303">
        <ele>143</ele>
        <time>2012-11-16T12:51:50Z</time>
      </trkpt>
      <trkpt lat="48.58073" lon="-3.18313">
        <ele>143</ele>
        <time>2012-11-16T12:51:55Z</time>
      </trkpt>
      <trkpt lat="48.5807" lon="-3.18324">
        <ele>143</ele>
        <time>2012-11-16T12:52:00Z</time>
      </trkpt>
      <trkpt lat="48.58069" lon="-3.18334">
        <ele>143</ele>
        <time>2012-11-16T12:52:05Z</time>
      </trkpt>
      <trkpt lat="48.58066" lon="-3.18345">
        <ele>143</ele>
        <time>2012-11-16T12:52:10Z</time>
      </trkpt>
      <trkpt lat="48.58064" lon="-3.18355">
        <ele>143</ele>
        <time>2012-11-16T12:52:15Z</time>
      </trkpt>
      <trkpt lat="48.58061" lon="-3.18363">
        <ele>143</ele>
        <time>2012-11-16T12:52:21Z</time>
      </trkpt>
      <trkpt lat="48.58059" lon="-3.18367">
        <ele>143</ele>
        <time>2012-11-16T12:52:27Z</time>
      </trkpt>
      <trkpt lat="48.58053" lon="-3.18374">
        <ele>143</ele>
        <time>2012-11-16T12:52:33Z</time>
      </trkpt>
      <trkpt lat="48.58048" lon="-3.18383">
        <ele>143</ele>
        <time>2012-11-16T12:52:38Z</time>
      </trkpt>
      <trkpt lat="48.58044" lon="-3.18395">
        <ele>143</ele>
        <time>2012-11-16T12:52:43Z</time>
      </trkpt>
      <trkpt lat="48.58037" lon="-3.18403">
        <ele>143</ele>
        <time>2012-11-16T12:52:48Z</time>
      </trkpt>
      <trkpt lat="48.58029" lon="-3.18405">
        <ele>143</ele>
        <time>2012-11-16T12:52:53Z</time>
      </trkpt>
      <trkpt lat="48.58023" lon="-3.18414">
        <ele>143</ele>
        <time>2012-11-16T12:52:58Z</time>
      </trkpt>
      <trkpt lat="48.58018" lon="-3.18424">
        <ele>143</ele>
        <time>2012-11-16T12:53:03Z</time>
      </trkpt>
      <trkpt lat="48.58013" lon="-3.18433">
        <ele>144</ele>
        <time>2012-11-16T12:53:08Z</time>
      </trkpt>
      <trkpt lat="48.58007" lon="-3.18443">
        <ele>144</ele>
        <time>2012-11-16T12:53:13Z</time>
      </trkpt>
      <trkpt lat="48.58002" lon="-3.18452">
        <ele>144</ele>
        <time>2012-11-16T12:53:18Z</time>
      </trkpt>
      <trkpt lat="48.58" lon="-3.18464">
        <ele>144</ele>
        <time>2012-11-16T12:53:23Z</time>
      </trkpt>
      <trkpt lat="48.58007" lon="-3.18471">
        <ele>144</ele>
        <time>2012-11-16T12:53:29Z</time>
      </trkpt>
      <trkpt lat="48.58015" lon="-3.18474">
        <ele>144</ele>
        <time>2012-11-16T12:53:34Z</time>
      </trkpt>
      <trkpt lat="48.58024" lon="-3.18475">
        <ele>144</ele>
        <time>2012-11-16T12:53:39Z</time>
      </trkpt>
      <trkpt lat="48.58031" lon="-3.18476">
        <ele>144</ele>
        <time>2012-11-16T12:53:44Z</time>
      </trkpt>
      <trkpt lat="48.5804" lon="-3.18476">
        <ele>144</ele>
        <time>2012-11-16T12:53:49Z</time>
      </trkpt>
      <trkpt lat="48.58048" lon="-3.18476">
        <ele>144</ele>
        <time>2012-11-16T12:53:54Z</time>
      </trkpt>
      <trkpt lat="48.58056" lon="-3.18476">
        <ele>144</ele>
        <time>2012-11-16T12:53:59Z</time>
      </trkpt>
      <trkpt lat="48.58066" lon="-3.18478">
        <ele>144</ele>
        <time>2012-11-16T12:54:05Z</time>
      </trkpt>
      <trkpt lat="48.58075" lon="-3.18478">
        <ele>144</ele>
        <time>2012-11-16T12:54:11Z</time>
      </trkpt>
      <trkpt lat="48.58082" lon="-3.18479">
        <ele>144</ele>
        <time>2012-11-16T12:54:16Z</time>
      </trkpt>
      <trkpt lat="48.5809" lon="-3.1848">
        <ele>144</ele>
        <time>2012-11-16T12:54:21Z</time>
      </trkpt>
      <trkpt lat="48.58098" lon="-3.18481">
        <ele>144</ele>
        <time>2012-11-16T12:54:26Z</time>
      </trkpt>
      <trkpt lat="48.58105" lon="-3.18482">
        <ele>145</ele>
        <time>2012-11-16T12:54:31Z</time>
      </trkpt>
      <trkpt lat="48.58112" lon="-3.18484">
        <ele>145</ele>
        <time>2012-11-16T12:54:36Z</time>
      </trkpt>
      <trkpt lat="48.58118" lon="-3.18488">
        <ele>145</ele>
        <time>2012-11-16T12:54:41Z</time>
      </trkpt>
      <trkpt lat="48.58123" lon="-3.18493">
        <ele>142</ele>
        <time>2012-11-16T12:54:46Z</time>
      </trkpt>
      <trkpt lat="48.58133" lon="-3.18493">
        <ele>141</ele>
        <time>2012-11-16T12:54:51Z</time>
      </trkpt>
      <trkpt lat="48.58143" lon="-3.18494">
        <ele>141</ele>
        <time>2012-11-16T12:54:56Z</time>
      </trkpt>
      <trkpt lat="48.58153" lon="-3.18496">
        <ele>141</ele>
        <time>2012-11-16T12:55:02Z</time>
      </trkpt>
      <trkpt lat="48.58162" lon="-3.18498">
        <ele>143</ele>
        <time>2012-11-16T12:55:07Z</time>
      </trkpt>
      <trkpt lat="48.58168" lon="-3.18501">
        <ele>145</ele>
        <time>2012-11-16T12:55:12Z</time>
      </trkpt>
      <trkpt lat="48.58175" lon="-3.18502">
        <ele>145</ele>
        <time>2012-11-16T12:55:17Z</time>
      </trkpt>
      <trkpt lat="48.58182" lon="-3.18503">
        <ele>145</ele>
        <time>2012-11-16T12:55:23Z</time>
      </trkpt>
      <trkpt lat="48.5819" lon="-3.18503">
        <ele>145</ele>
        <time>2012-11-16T12:55:28Z</time>
      </trkpt>
      <trkpt lat="48.58196" lon="-3.18504">
        <ele>145</ele>
        <time>2012-11-16T12:55:33Z</time>
      </trkpt>
      <trkpt lat="48.58202" lon="-3.18506">
        <ele>143</ele>
        <time>2012-11-16T12:55:38Z</time>
      </trkpt>
      <trkpt lat="48.5821" lon="-3.18506">
        <ele>141</ele>
        <time>2012-11-16T12:55:43Z</time>
      </trkpt>
      <trkpt lat="48.58217" lon="-3.18508">
        <ele>141</ele>
        <time>2012-11-16T12:55:48Z</time>
      </trkpt>
      <trkpt lat="48.58224" lon="-3.1851">
        <ele>141</ele>
        <time>2012-11-16T12:55:53Z</time>
      </trkpt>
      <trkpt lat="48.58234" lon="-3.18511">
        <ele>141</ele>
        <time>2012-11-16T12:55:59Z</time>
      </trkpt>
      <trkpt lat="48.58243" lon="-3.18514">
        <ele>141</ele>
        <time>2012-11-16T12:56:05Z</time>
      </trkpt>
      <trkpt lat="48.58251" lon="-3.18515">
        <ele>141</ele>
        <time>2012-11-16T12:56:10Z</time>
      </trkpt>
      <trkpt lat="48.58259" lon="-3.18517">
        <ele>141</ele>
        <time>2012-11-16T12:56:15Z</time>
      </trkpt>
      <trkpt lat="48.58267" lon="-3.18519">
        <ele>141</ele>
        <time>2012-11-16T12:56:20Z</time>
      </trkpt>
      <trkpt lat="48.58274" lon="-3.18523">
        <ele>141</ele>
        <time>2012-11-16T12:56:25Z</time>
      </trkpt>
      <trkpt lat="48.58281" lon="-3.18526">
        <ele>141</ele>
        <time>2012-11-16T12:56:30Z</time>
      </trkpt>
      <trkpt lat="48.58288" lon="-3.18532">
        <ele>141</ele>
        <time>2012-11-16T12:56:35Z</time>
      </trkpt>
      <trkpt lat="48.58296" lon="-3.18536">
        <ele>141</ele>
        <time>2012-11-16T12:56:40Z</time>
      </trkpt>
      <trkpt lat="48.58304" lon="-3.18541">
        <ele>141</ele>
        <time>2012-11-16T12:56:45Z</time>
      </trkpt>
      <trkpt lat="48.58311" lon="-3.18546">
        <ele>141</ele>
        <time>2012-11-16T12:56:50Z</time>
      </trkpt>
      <trkpt lat="48.58319" lon="-3.1855">
        <ele>141</ele>
        <time>2012-11-16T12:56:55Z</time>
      </trkpt>
      <trkpt lat="48.58327" lon="-3.18554">
        <ele>141</ele>
        <time>2012-11-16T12:57:00Z</time>
      </trkpt>
      <trkpt lat="48.58334" lon="-3.18559">
        <ele>141</ele>
        <time>2012-11-16T12:57:05Z</time>
      </trkpt>
      <trkpt lat="48.58341" lon="-3.18566">
        <ele>141</ele>
        <time>2012-11-16T12:57:10Z</time>
      </trkpt>
      <trkpt lat="48.58348" lon="-3.18572">
        <ele>141</ele>
        <time>2012-11-16T12:57:15Z</time>
      </trkpt>
      <trkpt lat="48.58354" lon="-3.18578">
        <ele>141</ele>
        <time>2012-11-16T12:57:20Z</time>
      </trkpt>
      <trkpt lat="48.58359" lon="-3.18585">
        <ele>141</ele>
        <time>2012-11-16T12:57:25Z</time>
      </trkpt>
      <trkpt lat="48.58365" lon="-3.18588">
        <ele>141</ele>
        <time>2012-11-16T12:57:30Z</time>
      </trkpt>
      <trkpt lat="48.58372" lon="-3.18592">
        <ele>141</ele>
        <time>2012-11-16T12:57:35Z</time>
      </trkpt>
      <trkpt lat="48.5838" lon="-3.18599">
        <ele>141</ele>
        <time>2012-11-16T12:57:40Z</time>
      </trkpt>
      <trkpt lat="48.58387" lon="-3.18605">
        <ele>141</ele>
        <time>2012-11-16T12:57:45Z</time>
      </trkpt>
      <trkpt lat="48.58395" lon="-3.1861">
        <ele>140</ele>
        <time>2012-11-16T12:57:50Z</time>
      </trkpt>
      <trkpt lat="48.58401" lon="-3.18617">
        <ele>140</ele>
        <time>2012-11-16T12:57:55Z</time>
      </trkpt>
      <trkpt lat="48.58408" lon="-3.18622">
        <ele>140</ele>
        <time>2012-11-16T12:58:00Z</time>
      </trkpt>
      <trkpt lat="48.58415" lon="-3.18628">
        <ele>140</ele>
        <time>2012-11-16T12:58:05Z</time>
      </trkpt>
      <trkpt lat="48.58421" lon="-3.18634">
        <ele>140</ele>
        <time>2012-11-16T12:58:10Z</time>
      </trkpt>
      <trkpt lat="48.58429" lon="-3.18639">
        <ele>140</ele>
        <time>2012-11-16T12:58:15Z</time>
      </trkpt>
      <trkpt lat="48.58436" lon="-3.18644">
        <ele>140</ele>
        <time>2012-11-16T12:58:20Z</time>
      </trkpt>
      <trkpt lat="48.58443" lon="-3.18651">
        <ele>140</ele>
        <time>2012-11-16T12:58:25Z</time>
      </trkpt>
      <trkpt lat="48.58453" lon="-3.18661">
        <ele>140</ele>
        <time>2012-11-16T12:58:33Z</time>
      </trkpt>
      <trkpt lat="48.58461" lon="-3.18666">
        <ele>140</ele>
        <time>2012-11-16T12:58:38Z</time>
      </trkpt>
      <trkpt lat="48.58467" lon="-3.18672">
        <ele>140</ele>
        <time>2012-11-16T12:58:43Z</time>
      </trkpt>
      <trkpt lat="48.58474" lon="-3.18676">
        <ele>140</ele>
        <time>2012-11-16T12:58:48Z</time>
      </trkpt>
      <trkpt lat="48.58482" lon="-3.18682">
        <ele>140</ele>
        <time>2012-11-16T12:58:53Z</time>
      </trkpt>
      <trkpt lat="48.58489" lon="-3.18688">
        <ele>140</ele>
        <time>2012-11-16T12:58:58Z</time>
      </trkpt>
      <trkpt lat="48.58496" lon="-3.18692">
        <ele>140</ele>
        <time>2012-11-16T12:59:03Z</time>
      </trkpt>
      <trkpt lat="48.58503" lon="-3.187">
        <ele>140</ele>
        <time>2012-11-16T12:59:09Z</time>
      </trkpt>
      <trkpt lat="48.58509" lon="-3.18706">
        <ele>140</ele>
        <time>2012-11-16T12:59:14Z</time>
      </trkpt>
      <trkpt lat="48.58517" lon="-3.18711">
        <ele>140</ele>
        <time>2012-11-16T12:59:19Z</time>
      </trkpt>
      <trkpt lat="48.58524" lon="-3.18718">
        <ele>140</ele>
        <time>2012-11-16T12:59:24Z</time>
      </trkpt>
      <trkpt lat="48.5853" lon="-3.18725">
        <ele>140</ele>
        <time>2012-11-16T12:59:29Z</time>
      </trkpt>
      <trkpt lat="48.58535" lon="-3.18734">
        <ele>140</ele>
        <time>2012-11-16T12:59:35Z</time>
      </trkpt>
      <trkpt lat="48.58541" lon="-3.1874">
        <ele>140</ele>
        <time>2012-11-16T12:59:40Z</time>
      </trkpt>
      <trkpt lat="48.58547" lon="-3.18748">
        <ele>140</ele>
        <time>2012-11-16T12:59:45Z</time>
      </trkpt>
      <trkpt lat="48.58553" lon="-3.18754">
        <ele>140</ele>
        <time>2012-11-16T12:59:50Z</time>
      </trkpt>
      <trkpt lat="48.58559" lon="-3.18761">
        <ele>141</ele>
        <time>2012-11-16T12:59:55Z</time>
      </trkpt>
      <trkpt lat="48.58565" lon="-3.18769">
        <ele>141</ele>
        <time>2012-11-16T13:00:01Z</time>
      </trkpt>
      <trkpt lat="48.58576" lon="-3.18777">
        <ele>141</ele>
        <time>2012-11-16T13:00:06Z</time>
      </trkpt>
      <trkpt lat="48.58581" lon="-3.18788">
        <ele>141</ele>
        <time>2012-11-16T13:00:12Z</time>
      </trkpt>
      <trkpt lat="48.58586" lon="-3.18797">
        <ele>141</ele>
        <time>2012-11-16T13:00:17Z</time>
      </trkpt>
      <trkpt lat="48.58591" lon="-3.18806">
        <ele>141</ele>
        <time>2012-11-16T13:00:22Z</time>
      </trkpt>
      <trkpt lat="48.58598" lon="-3.18815">
        <ele>141</ele>
        <time>2012-11-16T13:00:28Z</time>
      </trkpt>
      <trkpt lat="48.58604" lon="-3.18822">
        <ele>141</ele>
        <time>2012-11-16T13:00:33Z</time>
      </trkpt>
      <trkpt lat="48.58609" lon="-3.1883">
        <ele>141</ele>
        <time>2012-11-16T13:00:38Z</time>
      </trkpt>
      <trkpt lat="48.58616" lon="-3.18838">
        <ele>141</ele>
        <time>2012-11-16T13:00:43Z</time>
      </trkpt>
      <trkpt lat="48.58622" lon="-3.18846">
        <ele>141</ele>
        <time>2012-11-16T13:00:48Z</time>
      </trkpt>
      <trkpt lat="48.58627" lon="-3.18855">
        <ele>141</ele>
        <time>2012-11-16T13:00:53Z</time>
      </trkpt>
      <trkpt lat="48.58631" lon="-3.18865">
        <ele>141</ele>
        <time>2012-11-16T13:00:58Z</time>
      </trkpt>
      <trkpt lat="48.58636" lon="-3.18872">
        <ele>141</ele>
        <time>2012-11-16T13:01:03Z</time>
      </trkpt>
      <trkpt lat="48.58642" lon="-3.18878">
        <ele>141</ele>
        <time>2012-11-16T13:01:08Z</time>
      </trkpt>
      <trkpt lat="48.58647" lon="-3.18888">
        <ele>140</ele>
        <time>2012-11-16T13:01:13Z</time>
      </trkpt>
      <trkpt lat="48.58654" lon="-3.18895">
        <ele>140</ele>
        <time>2012-11-16T13:01:18Z</time>
      </trkpt>
      <trkpt lat="48.5866" lon="-3.189">
        <ele>140</ele>
        <time>2012-11-16T13:01:23Z</time>
      </trkpt>
      <trkpt lat="48.58667" lon="-3.18906">
        <ele>140</ele>
        <time>2012-11-16T13:01:28Z</time>
      </trkpt>
      <trkpt lat="48.58673" lon="-3.1891">
        <ele>140</ele>
        <time>2012-11-16T13:01:33Z</time>
      </trkpt>
      <trkpt lat="48.5868" lon="-3.18914">
        <ele>140</ele>
        <time>2012-11-16T13:01:38Z</time>
      </trkpt>
      <trkpt lat="48.58688" lon="-3.18918">
        <ele>140</ele>
        <time>2012-11-16T13:01:43Z</time>
      </trkpt>
      <trkpt lat="48.58697" lon="-3.18922">
        <ele>140</ele>
        <time>2012-11-16T13:01:49Z</time>
      </trkpt>
      <trkpt lat="48.58705" lon="-3.18921">
        <ele>140</ele>
        <time>2012-11-16T13:01:54Z</time>
      </trkpt>
      <trkpt lat="48.58712" lon="-3.18923">
        <ele>140</ele>
        <time>2012-11-16T13:01:59Z</time>
      </trkpt>
      <trkpt lat="48.58721" lon="-3.18924">
        <ele>140</ele>
        <time>2012-11-16T13:02:04Z</time>
      </trkpt>
      <trkpt lat="48.58729" lon="-3.18926">
        <ele>140</ele>
        <time>2012-11-16T13:02:09Z</time>
      </trkpt>
      <trkpt lat="48.58736" lon="-3.18926">
        <ele>140</ele>
        <time>2012-11-16T13:02:14Z</time>
      </trkpt>
      <trkpt lat="48.58744" lon="-3.18926">
        <ele>140</ele>
        <time>2012-11-16T13:02:19Z</time>
      </trkpt>
      <trkpt lat="48.58752" lon="-3.18926">
        <ele>140</ele>
        <time>2012-11-16T13:02:24Z</time>
      </trkpt>
      <trkpt lat="48.58761" lon="-3.18931">
        <ele>140</ele>
        <time>2012-11-16T13:02:30Z</time>
      </trkpt>
      <trkpt lat="48.58767" lon="-3.18932">
        <ele>140</ele>
        <time>2012-11-16T13:02:35Z</time>
      </trkpt>
      <trkpt lat="48.58772" lon="-3.18933">
        <ele>140</ele>
        <time>2012-11-16T13:02:58Z</time>
      </trkpt>
      <trkpt lat="48.58779" lon="-3.18934">
        <ele>140</ele>
        <time>2012-11-16T13:03:03Z</time>
      </trkpt>
      <trkpt lat="48.58787" lon="-3.18938">
        <ele>140</ele>
        <time>2012-11-16T13:03:08Z</time>
      </trkpt>
      <trkpt lat="48.58794" lon="-3.18942">
        <ele>140</ele>
        <time>2012-11-16T13:03:13Z</time>
      </trkpt>
      <trkpt lat="48.588" lon="-3.18946">
        <ele>140</ele>
        <time>2012-11-16T13:03:18Z</time>
      </trkpt>
      <trkpt lat="48.58809" lon="-3.18949">
        <ele>140</ele>
        <time>2012-11-16T13:03:24Z</time>
      </trkpt>
      <trkpt lat="48.58815" lon="-3.18955">
        <ele>140</ele>
        <time>2012-11-16T13:03:29Z</time>
      </trkpt>
      <trkpt lat="48.58822" lon="-3.1896">
        <ele>140</ele>
        <time>2012-11-16T13:03:34Z</time>
      </trkpt>
      <trkpt lat="48.58829" lon="-3.18962">
        <ele>140</ele>
        <time>2012-11-16T13:03:39Z</time>
      </trkpt>
      <trkpt lat="48.58836" lon="-3.18968">
        <ele>140</ele>
        <time>2012-11-16T13:03:44Z</time>
      </trkpt>
      <trkpt lat="48.58842" lon="-3.18972">
        <ele>140</ele>
        <time>2012-11-16T13:03:49Z</time>
      </trkpt>
      <trkpt lat="48.5885" lon="-3.18978">
        <ele>140</ele>
        <time>2012-11-16T13:03:54Z</time>
      </trkpt>
      <trkpt lat="48.58857" lon="-3.18985">
        <ele>140</ele>
        <time>2012-11-16T13:04:00Z</time>
      </trkpt>
      <trkpt lat="48.58864" lon="-3.18992">
        <ele>140</ele>
        <time>2012-11-16T13:04:05Z</time>
      </trkpt>
      <trkpt lat="48.58871" lon="-3.18998">
        <ele>140</ele>
        <time>2012-11-16T13:04:10Z</time>
      </trkpt>
      <trkpt lat="48.58875" lon="-3.19008">
        <ele>140</ele>
        <time>2012-11-16T13:04:15Z</time>
      </trkpt>
      <trkpt lat="48.58882" lon="-3.19016">
        <ele>140</ele>
        <time>2012-11-16T13:04:20Z</time>
      </trkpt>
      <trkpt lat="48.58889" lon="-3.19023">
        <ele>140</ele>
        <time>2012-11-16T13:04:25Z</time>
      </trkpt>
      <trkpt lat="48.58894" lon="-3.19034">
        <ele>140</ele>
        <time>2012-11-16T13:04:30Z</time>
      </trkpt>
      <trkpt lat="48.58897" lon="-3.19043">
        <ele>140</ele>
        <time>2012-11-16T13:04:35Z</time>
      </trkpt>
      <trkpt lat="48.58902" lon="-3.19053">
        <ele>140</ele>
        <time>2012-11-16T13:04:40Z</time>
      </trkpt>
      <trkpt lat="48.58909" lon="-3.19061">
        <ele>140</ele>
        <time>2012-11-16T13:04:45Z</time>
      </trkpt>
      <trkpt lat="48.58914" lon="-3.1907">
        <ele>140</ele>
        <time>2012-11-16T13:04:50Z</time>
      </trkpt>
      <trkpt lat="48.58918" lon="-3.1908">
        <ele>140</ele>
        <time>2012-11-16T13:04:55Z</time>
      </trkpt>
      <trkpt lat="48.58923" lon="-3.19088">
        <ele>140</ele>
        <time>2012-11-16T13:05:00Z</time>
      </trkpt>
      <trkpt lat="48.58928" lon="-3.19097">
        <ele>140</ele>
        <time>2012-11-16T13:05:05Z</time>
      </trkpt>
      <trkpt lat="48.58935" lon="-3.19104">
        <ele>140</ele>
        <time>2012-11-16T13:05:10Z</time>
      </trkpt>
      <trkpt lat="48.58941" lon="-3.1911">
        <ele>140</ele>
        <time>2012-11-16T13:05:15Z</time>
      </trkpt>
      <trkpt lat="48.58948" lon="-3.19117">
        <ele>140</ele>
        <time>2012-11-16T13:05:20Z</time>
      </trkpt>
      <trkpt lat="48.58954" lon="-3.19123">
        <ele>140</ele>
        <time>2012-11-16T13:05:25Z</time>
      </trkpt>
      <trkpt lat="48.58961" lon="-3.19129">
        <ele>140</ele>
        <time>2012-11-16T13:05:30Z</time>
      </trkpt>
      <trkpt lat="48.58967" lon="-3.19135">
        <ele>140</ele>
        <time>2012-11-16T13:05:35Z</time>
      </trkpt>
      <trkpt lat="48.58972" lon="-3.19142">
        <ele>140</ele>
        <time>2012-11-16T13:05:40Z</time>
      </trkpt>
      <trkpt lat="48.58979" lon="-3.19149">
        <ele>140</ele>
        <time>2012-11-16T13:05:45Z</time>
      </trkpt>
      <trkpt lat="48.58986" lon="-3.19155">
        <ele>140</ele>
        <time>2012-11-16T13:05:50Z</time>
      </trkpt>
      <trkpt lat="48.58991" lon="-3.19163">
        <ele>142</ele>
        <time>2012-11-16T13:05:55Z</time>
      </trkpt>
      <trkpt lat="48.58996" lon="-3.1917">
        <ele>144</ele>
        <time>2012-11-16T13:06:00Z</time>
      </trkpt>
      <trkpt lat="48.59002" lon="-3.19177">
        <ele>145</ele>
        <time>2012-11-16T13:06:05Z</time>
      </trkpt>
      <trkpt lat="48.59008" lon="-3.19185">
        <ele>145</ele>
        <time>2012-11-16T13:06:10Z</time>
      </trkpt>
      <trkpt lat="48.59015" lon="-3.19191">
        <ele>145</ele>
        <time>2012-11-16T13:06:15Z</time>
      </trkpt>
      <trkpt lat="48.59021" lon="-3.19198">
        <ele>145</ele>
        <time>2012-11-16T13:06:20Z</time>
      </trkpt>
      <trkpt lat="48.59028" lon="-3.19204">
        <ele>145</ele>
        <time>2012-11-16T13:06:25Z</time>
      </trkpt>
      <trkpt lat="48.59034" lon="-3.1921">
        <ele>145</ele>
        <time>2012-11-16T13:06:30Z</time>
      </trkpt>
      <trkpt lat="48.59041" lon="-3.19217">
        <ele>145</ele>
        <time>2012-11-16T13:06:35Z</time>
      </trkpt>
      <trkpt lat="48.59047" lon="-3.19224">
        <ele>145</ele>
        <time>2012-11-16T13:06:40Z</time>
      </trkpt>
      <trkpt lat="48.59054" lon="-3.1923">
        <ele>145</ele>
        <time>2012-11-16T13:06:45Z</time>
      </trkpt>
      <trkpt lat="48.5906" lon="-3.19237">
        <ele>145</ele>
        <time>2012-11-16T13:06:50Z</time>
      </trkpt>
      <trkpt lat="48.59066" lon="-3.19243">
        <ele>145</ele>
        <time>2012-11-16T13:06:55Z</time>
      </trkpt>
      <trkpt lat="48.59072" lon="-3.19249">
        <ele>145</ele>
        <time>2012-11-16T13:07:00Z</time>
      </trkpt>
      <trkpt lat="48.59078" lon="-3.19257">
        <ele>145</ele>
        <time>2012-11-16T13:07:05Z</time>
      </trkpt>
      <trkpt lat="48.59084" lon="-3.19264">
        <ele>145</ele>
        <time>2012-11-16T13:07:10Z</time>
      </trkpt>
      <trkpt lat="48.5909" lon="-3.19272">
        <ele>145</ele>
        <time>2012-11-16T13:07:15Z</time>
      </trkpt>
      <trkpt lat="48.59096" lon="-3.19279">
        <ele>145</ele>
        <time>2012-11-16T13:07:20Z</time>
      </trkpt>
      <trkpt lat="48.59102" lon="-3.19286">
        <ele>144</ele>
        <time>2012-11-16T13:07:25Z</time>
      </trkpt>
      <trkpt lat="48.59103" lon="-3.19299">
        <ele>144</ele>
        <time>2012-11-16T13:07:30Z</time>
      </trkpt>
      <trkpt lat="48.59104" lon="-3.19312">
        <ele>144</ele>
        <time>2012-11-16T13:07:35Z</time>
      </trkpt>
      <trkpt lat="48.59104" lon="-3.19325">
        <ele>144</ele>
        <time>2012-11-16T13:07:40Z</time>
      </trkpt>
      <trkpt lat="48.59104" lon="-3.19337">
        <ele>144</ele>
        <time>2012-11-16T13:07:45Z</time>
      </trkpt>
      <trkpt lat="48.59106" lon="-3.19349">
        <ele>144</ele>
        <time>2012-11-16T13:07:50Z</time>
      </trkpt>
      <trkpt lat="48.59107" lon="-3.19361">
        <ele>144</ele>
        <time>2012-11-16T13:07:55Z</time>
      </trkpt>
      <trkpt lat="48.59108" lon="-3.19373">
        <ele>144</ele>
        <time>2012-11-16T13:08:00Z</time>
      </trkpt>
      <trkpt lat="48.59111" lon="-3.19385">
        <ele>144</ele>
        <time>2012-11-16T13:08:05Z</time>
      </trkpt>
      <trkpt lat="48.59113" lon="-3.19395">
        <ele>144</ele>
        <time>2012-11-16T13:08:10Z</time>
      </trkpt>
      <trkpt lat="48.59115" lon="-3.19406">
        <ele>144</ele>
        <time>2012-11-16T13:08:15Z</time>
      </trkpt>
      <trkpt lat="48.59118" lon="-3.19417">
        <ele>144</ele>
        <time>2012-11-16T13:08:20Z</time>
      </trkpt>
      <trkpt lat="48.59121" lon="-3.19427">
        <ele>144</ele>
        <time>2012-11-16T13:08:25Z</time>
      </trkpt>
      <trkpt lat="48.59123" lon="-3.19438">
        <ele>144</ele>
        <time>2012-11-16T13:08:30Z</time>
      </trkpt>
      <trkpt lat="48.59126" lon="-3.19447">
        <ele>144</ele>
        <time>2012-11-16T13:08:35Z</time>
      </trkpt>
      <trkpt lat="48.59127" lon="-3.19459">
        <ele>144</ele>
        <time>2012-11-16T13:08:40Z</time>
      </trkpt>
      <trkpt lat="48.59128" lon="-3.19472">
        <ele>144</ele>
        <time>2012-11-16T13:08:45Z</time>
      </trkpt>
      <trkpt lat="48.59129" lon="-3.19484">
        <ele>144</ele>
        <time>2012-11-16T13:08:50Z</time>
      </trkpt>
      <trkpt lat="48.59131" lon="-3.19498">
        <ele>144</ele>
        <time>2012-11-16T13:08:55Z</time>
      </trkpt>
      <trkpt lat="48.59133" lon="-3.19509">
        <ele>144</ele>
        <time>2012-11-16T13:09:00Z</time>
      </trkpt>
      <trkpt lat="48.59135" lon="-3.19521">
        <ele>144</ele>
        <time>2012-11-16T13:09:05Z</time>
      </trkpt>
      <trkpt lat="48.59137" lon="-3.19532">
        <ele>144</ele>
        <time>2012-11-16T13:09:10Z</time>
      </trkpt>
      <trkpt lat="48.5914" lon="-3.19543">
        <ele>144</ele>
        <time>2012-11-16T13:09:15Z</time>
      </trkpt>
      <trkpt lat="48.59144" lon="-3.19554">
        <ele>144</ele>
        <time>2012-11-16T13:09:20Z</time>
      </trkpt>
      <trkpt lat="48.59147" lon="-3.19565">
        <ele>144</ele>
        <time>2012-11-16T13:09:25Z</time>
      </trkpt>
      <trkpt lat="48.59151" lon="-3.19574">
        <ele>144</ele>
        <time>2012-11-16T13:09:30Z</time>
      </trkpt>
      <trkpt lat="48.59157" lon="-3.19583">
        <ele>144</ele>
        <time>2012-11-16T13:09:35Z</time>
      </trkpt>
      <trkpt lat="48.59165" lon="-3.19585">
        <ele>144</ele>
        <time>2012-11-16T13:09:40Z</time>
      </trkpt>
      <trkpt lat="48.59173" lon="-3.19583">
        <ele>144</ele>
        <time>2012-11-16T13:09:45Z</time>
      </trkpt>
      <trkpt lat="48.5918" lon="-3.19581">
        <ele>144</ele>
        <time>2012-11-16T13:09:50Z</time>
      </trkpt>
      <trkpt lat="48.59188" lon="-3.19578">
        <ele>144</ele>
        <time>2012-11-16T13:09:55Z</time>
      </trkpt>
      <trkpt lat="48.59196" lon="-3.19576">
        <ele>144</ele>
        <time>2012-11-16T13:10:00Z</time>
      </trkpt>
      <trkpt lat="48.59203" lon="-3.19574">
        <ele>144</ele>
        <time>2012-11-16T13:10:05Z</time>
      </trkpt>
      <trkpt lat="48.5921" lon="-3.19573">
        <ele>144</ele>
        <time>2012-11-16T13:10:10Z</time>
      </trkpt>
      <trkpt lat="48.59217" lon="-3.19572">
        <ele>144</ele>
        <time>2012-11-16T13:10:15Z</time>
      </trkpt>
      <trkpt lat="48.59224" lon="-3.19571">
        <ele>143</ele>
        <time>2012-11-16T13:10:20Z</time>
      </trkpt>
      <trkpt lat="48.59232" lon="-3.19569">
        <ele>143</ele>
        <time>2012-11-16T13:10:25Z</time>
      </trkpt>
      <trkpt lat="48.59239" lon="-3.19568">
        <ele>142</ele>
        <time>2012-11-16T13:10:30Z</time>
      </trkpt>
      <trkpt lat="48.59247" lon="-3.19567">
        <ele>142</ele>
        <time>2012-11-16T13:10:35Z</time>
      </trkpt>
      <trkpt lat="48.59255" lon="-3.19566">
        <ele>142</ele>
        <time>2012-11-16T13:10:40Z</time>
      </trkpt>
      <trkpt lat="48.59263" lon="-3.19563">
        <ele>142</ele>
        <time>2012-11-16T13:10:45Z</time>
      </trkpt>
      <trkpt lat="48.59271" lon="-3.19562">
        <ele>142</ele>
        <time>2012-11-16T13:10:50Z</time>
      </trkpt>
      <trkpt lat="48.59279" lon="-3.19561">
        <ele>142</ele>
        <time>2012-11-16T13:10:55Z</time>
      </trkpt>
      <trkpt lat="48.59285" lon="-3.1956">
        <ele>142</ele>
        <time>2012-11-16T13:11:00Z</time>
      </trkpt>
      <trkpt lat="48.59293" lon="-3.19559">
        <ele>142</ele>
        <time>2012-11-16T13:11:05Z</time>
      </trkpt>
      <trkpt lat="48.59301" lon="-3.1956">
        <ele>142</ele>
        <time>2012-11-16T13:11:10Z</time>
      </trkpt>
      <trkpt lat="48.5931" lon="-3.19558">
        <ele>142</ele>
        <time>2012-11-16T13:11:15Z</time>
      </trkpt>
      <trkpt lat="48.59317" lon="-3.19555">
        <ele>142</ele>
        <time>2012-11-16T13:11:20Z</time>
      </trkpt>
      <trkpt lat="48.59326" lon="-3.19552">
        <ele>142</ele>
        <time>2012-11-16T13:11:25Z</time>
      </trkpt>
      <trkpt lat="48.59333" lon="-3.19551">
        <ele>142</ele>
        <time>2012-11-16T13:11:30Z</time>
      </trkpt>
      <trkpt lat="48.59341" lon="-3.19551">
        <ele>142</ele>
        <time>2012-11-16T13:11:35Z</time>
      </trkpt>
      <trkpt lat="48.59349" lon="-3.1955">
        <ele>142</ele>
        <time>2012-11-16T13:11:40Z</time>
      </trkpt>
      <trkpt lat="48.59356" lon="-3.19549">
        <ele>142</ele>
        <time>2012-11-16T13:11:45Z</time>
      </trkpt>
      <trkpt lat="48.59364" lon="-3.19548">
        <ele>142</ele>
        <time>2012-11-16T13:11:50Z</time>
      </trkpt>
      <trkpt lat="48.59372" lon="-3.19548">
        <ele>142</ele>
        <time>2012-11-16T13:11:55Z</time>
      </trkpt>
      <trkpt lat="48.5938" lon="-3.19551">
        <ele>142</ele>
        <time>2012-11-16T13:12:00Z</time>
      </trkpt>
      <trkpt lat="48.59388" lon="-3.19555">
        <ele>142</ele>
        <time>2012-11-16T13:12:05Z</time>
      </trkpt>
      <trkpt lat="48.59395" lon="-3.1956">
        <ele>142</ele>
        <time>2012-11-16T13:12:10Z</time>
      </trkpt>
      <trkpt lat="48.59402" lon="-3.19566">
        <ele>142</ele>
        <time>2012-11-16T13:12:15Z</time>
      </trkpt>
      <trkpt lat="48.59409" lon="-3.19573">
        <ele>142</ele>
        <time>2012-11-16T13:12:20Z</time>
      </trkpt>
      <trkpt lat="48.59416" lon="-3.19579">
        <ele>142</ele>
        <time>2012-11-16T13:12:25Z</time>
      </trkpt>
      <trkpt lat="48.59423" lon="-3.19584">
        <ele>142</ele>
        <time>2012-11-16T13:12:30Z</time>
      </trkpt>
      <trkpt lat="48.59431" lon="-3.19588">
        <ele>142</ele>
        <time>2012-11-16T13:12:35Z</time>
      </trkpt>
      <trkpt lat="48.59439" lon="-3.19593">
        <ele>142</ele>
        <time>2012-11-16T13:12:40Z</time>
      </trkpt>
      <trkpt lat="48.59446" lon="-3.19598">
        <ele>142</ele>
        <time>2012-11-16T13:12:45Z</time>
      </trkpt>
      <trkpt lat="48.59453" lon="-3.19603">
        <ele>142</ele>
        <time>2012-11-16T13:12:50Z</time>
      </trkpt>
      <trkpt lat="48.5946" lon="-3.19607">
        <ele>142</ele>
        <time>2012-11-16T13:12:55Z</time>
      </trkpt>
      <trkpt lat="48.59468" lon="-3.19611">
        <ele>142</ele>
        <time>2012-11-16T13:13:00Z</time>
      </trkpt>
      <trkpt lat="48.59475" lon="-3.19615">
        <ele>142</ele>
        <time>2012-11-16T13:13:05Z</time>
      </trkpt>
      <trkpt lat="48.59482" lon="-3.1962">
        <ele>142</ele>
        <time>2012-11-16T13:13:10Z</time>
      </trkpt>
      <trkpt lat="48.59489" lon="-3.19624">
        <ele>142</ele>
        <time>2012-11-16T13:13:15Z</time>
      </trkpt>
      <trkpt lat="48.59496" lon="-3.19628">
        <ele>142</ele>
        <time>2012-11-16T13:13:20Z</time>
      </trkpt>
      <trkpt lat="48.59503" lon="-3.19633">
        <ele>142</ele>
        <time>2012-11-16T13:13:25Z</time>
      </trkpt>
      <trkpt lat="48.5951" lon="-3.19638">
        <ele>142</ele>
        <time>2012-11-16T13:13:30Z</time>
      </trkpt>
      <trkpt lat="48.59517" lon="-3.19643">
        <ele>142</ele>
        <time>2012-11-16T13:13:35Z</time>
      </trkpt>
      <trkpt lat="48.59524" lon="-3.19649">
        <ele>142</ele>
        <time>2012-11-16T13:13:40Z</time>
      </trkpt>
      <trkpt lat="48.59531" lon="-3.19653">
        <ele>142</ele>
        <time>2012-11-16T13:13:45Z</time>
      </trkpt>
      <trkpt lat="48.59538" lon="-3.19658">
        <ele>142</ele>
        <time>2012-11-16T13:13:50Z</time>
      </trkpt>
      <trkpt lat="48.59545" lon="-3.19664">
        <ele>142</ele>
        <time>2012-11-16T13:13:55Z</time>
      </trkpt>
      <trkpt lat="48.59552" lon="-3.19669">
        <ele>142</ele>
        <time>2012-11-16T13:14:00Z</time>
      </trkpt>
      <trkpt lat="48.59558" lon="-3.19676">
        <ele>142</ele>
        <time>2012-11-16T13:14:05Z</time>
      </trkpt>
      <trkpt lat="48.59565" lon="-3.19682">
        <ele>142</ele>
        <time>2012-11-16T13:14:10Z</time>
      </trkpt>
      <trkpt lat="48.59571" lon="-3.19689">
        <ele>142</ele>
        <time>2012-11-16T13:14:15Z</time>
      </trkpt>
      <trkpt lat="48.59576" lon="-3.19697">
        <ele>142</ele>
        <time>2012-11-16T13:14:20Z</time>
      </trkpt>
      <trkpt lat="48.59581" lon="-3.19705">
        <ele>142</ele>
        <time>2012-11-16T13:14:25Z</time>
      </trkpt>
      <trkpt lat="48.59588" lon="-3.19716">
        <ele>142</ele>
        <time>2012-11-16T13:14:31Z</time>
      </trkpt>
      <trkpt lat="48.59592" lon="-3.19725">
        <ele>142</ele>
        <time>2012-11-16T13:14:36Z</time>
      </trkpt>
      <trkpt lat="48.59597" lon="-3.19735">
        <ele>142</ele>
        <time>2012-11-16T13:14:41Z</time>
      </trkpt>
      <trkpt lat="48.59601" lon="-3.19744">
        <ele>142</ele>
        <time>2012-11-16T13:14:46Z</time>
      </trkpt>
      <trkpt lat="48.59606" lon="-3.19754">
        <ele>142</ele>
        <time>2012-11-16T13:14:51Z</time>
      </trkpt>
      <trkpt lat="48.5961" lon="-3.19764">
        <ele>142</ele>
        <time>2012-11-16T13:14:56Z</time>
      </trkpt>
      <trkpt lat="48.59613" lon="-3.19775">
        <ele>142</ele>
        <time>2012-11-16T13:15:01Z</time>
      </trkpt>
      <trkpt lat="48.59617" lon="-3.19785">
        <ele>142</ele>
        <time>2012-11-16T13:15:06Z</time>
      </trkpt>
      <trkpt lat="48.59619" lon="-3.19798">
        <ele>142</ele>
        <time>2012-11-16T13:15:11Z</time>
      </trkpt>
      <trkpt lat="48.59622" lon="-3.19808">
        <ele>142</ele>
        <time>2012-11-16T13:15:16Z</time>
      </trkpt>
      <trkpt lat="48.59626" lon="-3.19818">
        <ele>142</ele>
        <time>2012-11-16T13:15:21Z</time>
      </trkpt>
      <trkpt lat="48.5963" lon="-3.19828">
        <ele>142</ele>
        <time>2012-11-16T13:15:26Z</time>
      </trkpt>
      <trkpt lat="48.59634" lon="-3.19837">
        <ele>142</ele>
        <time>2012-11-16T13:15:31Z</time>
      </trkpt>
      <trkpt lat="48.59639" lon="-3.19847">
        <ele>142</ele>
        <time>2012-11-16T13:15:36Z</time>
      </trkpt>
      <trkpt lat="48.59642" lon="-3.19857">
        <ele>142</ele>
        <time>2012-11-16T13:15:41Z</time>
      </trkpt>
      <trkpt lat="48.59647" lon="-3.19867">
        <ele>142</ele>
        <time>2012-11-16T13:15:46Z</time>
      </trkpt>
      <trkpt lat="48.5965" lon="-3.19877">
        <ele>142</ele>
        <time>2012-11-16T13:15:51Z</time>
      </trkpt>
      <trkpt lat="48.59655" lon="-3.19886">
        <ele>142</ele>
        <time>2012-11-16T13:15:56Z</time>
      </trkpt>
      <trkpt lat="48.59659" lon="-3.19896">
        <ele>142</ele>
        <time>2012-11-16T13:16:01Z</time>
      </trkpt>
      <trkpt lat="48.59663" lon="-3.19906">
        <ele>142</ele>
        <time>2012-11-16T13:16:06Z</time>
      </trkpt>
      <trkpt lat="48.59667" lon="-3.19916">
        <ele>142</ele>
        <time>2012-11-16T13:16:11Z</time>
      </trkpt>
      <trkpt lat="48.59671" lon="-3.19927">
        <ele>142</ele>
        <time>2012-11-16T13:16:16Z</time>
      </trkpt>
      <trkpt lat="48.59674" lon="-3.19937">
        <ele>142</ele>
        <time>2012-11-16T13:16:21Z</time>
      </trkpt>
      <trkpt lat="48.59678" lon="-3.19947">
        <ele>142</ele>
        <time>2012-11-16T13:16:26Z</time>
      </trkpt>
      <trkpt lat="48.59682" lon="-3.19957">
        <ele>142</ele>
        <time>2012-11-16T13:16:31Z</time>
      </trkpt>
      <trkpt lat="48.59687" lon="-3.19966">
        <ele>141</ele>
        <time>2012-11-16T13:16:36Z</time>
      </trkpt>
      <trkpt lat="48.59691" lon="-3.19975">
        <ele>140</ele>
        <time>2012-11-16T13:16:41Z</time>
      </trkpt>
      <trkpt lat="48.59695" lon="-3.19985">
        <ele>140</ele>
        <time>2012-11-16T13:16:46Z</time>
      </trkpt>
      <trkpt lat="48.59699" lon="-3.19994">
        <ele>138</ele>
        <time>2012-11-16T13:16:51Z</time>
      </trkpt>
      <trkpt lat="48.59704" lon="-3.20003">
        <ele>137</ele>
        <time>2012-11-16T13:16:56Z</time>
      </trkpt>
      <trkpt lat="48.59708" lon="-3.20014">
        <ele>137</ele>
        <time>2012-11-16T13:17:01Z</time>
      </trkpt>
      <trkpt lat="48.59712" lon="-3.20024">
        <ele>136</ele>
        <time>2012-11-16T13:17:06Z</time>
      </trkpt>
      <trkpt lat="48.59716" lon="-3.20033">
        <ele>135</ele>
        <time>2012-11-16T13:17:11Z</time>
      </trkpt>
      <trkpt lat="48.59719" lon="-3.20046">
        <ele>135</ele>
        <time>2012-11-16T13:17:16Z</time>
      </trkpt>
      <trkpt lat="48.59723" lon="-3.20057">
        <ele>135</ele>
        <time>2012-11-16T13:17:21Z</time>
      </trkpt>
      <trkpt lat="48.59728" lon="-3.20068">
        <ele>135</ele>
        <time>2012-11-16T13:17:27Z</time>
      </trkpt>
      <trkpt lat="48.59734" lon="-3.20076">
        <ele>135</ele>
        <time>2012-11-16T13:17:32Z</time>
      </trkpt>
      <trkpt lat="48.5974" lon="-3.20084">
        <ele>135</ele>
        <time>2012-11-16T13:17:37Z</time>
      </trkpt>
      <trkpt lat="48.59746" lon="-3.20093">
        <ele>135</ele>
        <time>2012-11-16T13:17:42Z</time>
      </trkpt>
      <trkpt lat="48.59752" lon="-3.201">
        <ele>135</ele>
        <time>2012-11-16T13:17:47Z</time>
      </trkpt>
      <trkpt lat="48.59759" lon="-3.20107">
        <ele>135</ele>
        <time>2012-11-16T13:17:52Z</time>
      </trkpt>
      <trkpt lat="48.59765" lon="-3.20113">
        <ele>135</ele>
        <time>2012-11-16T13:17:57Z</time>
      </trkpt>
      <trkpt lat="48.59772" lon="-3.2012">
        <ele>135</ele>
        <time>2012-11-16T13:18:02Z</time>
      </trkpt>
      <trkpt lat="48.59778" lon="-3.20126">
        <ele>135</ele>
        <time>2012-11-16T13:18:07Z</time>
      </trkpt>
      <trkpt lat="48.59785" lon="-3.20132">
        <ele>135</ele>
        <time>2012-11-16T13:18:12Z</time>
      </trkpt>
      <trkpt lat="48.59791" lon="-3.20137">
        <ele>135</ele>
        <time>2012-11-16T13:18:17Z</time>
      </trkpt>
      <trkpt lat="48.59797" lon="-3.20145">
        <ele>135</ele>
        <time>2012-11-16T13:18:22Z</time>
      </trkpt>
      <trkpt lat="48.59803" lon="-3.20152">
        <ele>135</ele>
        <time>2012-11-16T13:18:27Z</time>
      </trkpt>
      <trkpt lat="48.5981" lon="-3.2016">
        <ele>135</ele>
        <time>2012-11-16T13:18:33Z</time>
      </trkpt>
      <trkpt lat="48.59817" lon="-3.20169">
        <ele>135</ele>
        <time>2012-11-16T13:18:39Z</time>
      </trkpt>
      <trkpt lat="48.59823" lon="-3.20176">
        <ele>135</ele>
        <time>2012-11-16T13:18:44Z</time>
      </trkpt>
      <trkpt lat="48.5983" lon="-3.20183">
        <ele>135</ele>
        <time>2012-11-16T13:18:49Z</time>
      </trkpt>
      <trkpt lat="48.59835" lon="-3.20189">
        <ele>135</ele>
        <time>2012-11-16T13:18:54Z</time>
      </trkpt>
      <trkpt lat="48.59842" lon="-3.20196">
        <ele>135</ele>
        <time>2012-11-16T13:18:59Z</time>
      </trkpt>
      <trkpt lat="48.59847" lon="-3.20204">
        <ele>135</ele>
        <time>2012-11-16T13:19:04Z</time>
      </trkpt>
      <trkpt lat="48.59854" lon="-3.20206">
        <ele>135</ele>
        <time>2012-11-16T13:19:09Z</time>
      </trkpt>
      <trkpt lat="48.59861" lon="-3.20209">
        <ele>135</ele>
        <time>2012-11-16T13:19:14Z</time>
      </trkpt>
      <trkpt lat="48.59866" lon="-3.20214">
        <ele>135</ele>
        <time>2012-11-16T13:19:19Z</time>
      </trkpt>
      <trkpt lat="48.59871" lon="-3.20217">
        <ele>135</ele>
        <time>2012-11-16T13:19:24Z</time>
      </trkpt>
      <trkpt lat="48.59876" lon="-3.20216">
        <ele>135</ele>
        <time>2012-11-16T13:19:29Z</time>
      </trkpt>
      <trkpt lat="48.59885" lon="-3.20217">
        <ele>135</ele>
        <time>2012-11-16T13:19:34Z</time>
      </trkpt>
      <trkpt lat="48.59892" lon="-3.20217">
        <ele>135</ele>
        <time>2012-11-16T13:19:39Z</time>
      </trkpt>
      <trkpt lat="48.599" lon="-3.20216">
        <ele>135</ele>
        <time>2012-11-16T13:19:44Z</time>
      </trkpt>
      <trkpt lat="48.59907" lon="-3.20218">
        <ele>135</ele>
        <time>2012-11-16T13:19:49Z</time>
      </trkpt>
      <trkpt lat="48.59915" lon="-3.20219">
        <ele>135</ele>
        <time>2012-11-16T13:19:54Z</time>
      </trkpt>
      <trkpt lat="48.59922" lon="-3.20218">
        <ele>135</ele>
        <time>2012-11-16T13:19:59Z</time>
      </trkpt>
      <trkpt lat="48.59929" lon="-3.20217">
        <ele>135</ele>
        <time>2012-11-16T13:20:04Z</time>
      </trkpt>
      <trkpt lat="48.59934" lon="-3.20219">
        <ele>135</ele>
        <time>2012-11-16T13:20:10Z</time>
      </trkpt>
      <trkpt lat="48.59942" lon="-3.20211">
        <ele>135</ele>
        <time>2012-11-16T13:20:15Z</time>
      </trkpt>
      <trkpt lat="48.59943" lon="-3.20199">
        <ele>135</ele>
        <time>2012-11-16T13:20:20Z</time>
      </trkpt>
      <trkpt lat="48.59944" lon="-3.20188">
        <ele>135</ele>
        <time>2012-11-16T13:20:25Z</time>
      </trkpt>
      <trkpt lat="48.59941" lon="-3.2018">
        <ele>134</ele>
        <time>2012-11-16T13:20:30Z</time>
      </trkpt>
      <trkpt lat="48.59941" lon="-3.2017">
        <ele>132</ele>
        <time>2012-11-16T13:20:35Z</time>
      </trkpt>
      <trkpt lat="48.59938" lon="-3.20159">
        <ele>131</ele>
        <time>2012-11-16T13:20:41Z</time>
      </trkpt>
      <trkpt lat="48.59938" lon="-3.2015">
        <ele>131</ele>
        <time>2012-11-16T13:20:46Z</time>
      </trkpt>
      <trkpt lat="48.5994" lon="-3.20141">
        <ele>131</ele>
        <time>2012-11-16T13:20:51Z</time>
      </trkpt>
      <trkpt lat="48.59944" lon="-3.2013">
        <ele>131</ele>
        <time>2012-11-16T13:20:56Z</time>
      </trkpt>
      <trkpt lat="48.59951" lon="-3.20127">
        <ele>131</ele>
        <time>2012-11-16T13:21:01Z</time>
      </trkpt>
      <trkpt lat="48.59958" lon="-3.20128">
        <ele>131</ele>
        <time>2012-11-16T13:21:06Z</time>
      </trkpt>
      <trkpt lat="48.59966" lon="-3.20129">
        <ele>130</ele>
        <time>2012-11-16T13:21:11Z</time>
      </trkpt>
      <trkpt lat="48.59973" lon="-3.20127">
        <ele>130</ele>
        <time>2012-11-16T13:21:16Z</time>
      </trkpt>
      <trkpt lat="48.5998" lon="-3.20127">
        <ele>130</ele>
        <time>2012-11-16T13:21:21Z</time>
      </trkpt>
      <trkpt lat="48.59987" lon="-3.20126">
        <ele>130</ele>
        <time>2012-11-16T13:21:26Z</time>
      </trkpt>
      <trkpt lat="48.59994" lon="-3.20125">
        <ele>130</ele>
        <time>2012-11-16T13:21:31Z</time>
      </trkpt>
      <trkpt lat="48.6" lon="-3.20123">
        <ele>130</ele>
        <time>2012-11-16T13:21:36Z</time>
      </trkpt>
      <trkpt lat="48.60006" lon="-3.20121">
        <ele>130</ele>
        <time>2012-11-16T13:21:41Z</time>
      </trkpt>
      <trkpt lat="48.60013" lon="-3.20118">
        <ele>132</ele>
        <time>2012-11-16T13:21:46Z</time>
      </trkpt>
      <trkpt lat="48.60019" lon="-3.20115">
        <ele>132</ele>
        <time>2012-11-16T13:21:51Z</time>
      </trkpt>
      <trkpt lat="48.60024" lon="-3.20113">
        <ele>132</ele>
        <time>2012-11-16T13:21:56Z</time>
      </trkpt>
      <trkpt lat="48.60029" lon="-3.20113">
        <ele>132</ele>
        <time>2012-11-16T13:22:02Z</time>
      </trkpt>
      <trkpt lat="48.60035" lon="-3.20111">
        <ele>132</ele>
        <time>2012-11-16T13:22:07Z</time>
      </trkpt>
      <trkpt lat="48.6004" lon="-3.2011">
        <ele>132</ele>
        <time>2012-11-16T13:22:12Z</time>
      </trkpt>
      <trkpt lat="48.60046" lon="-3.20109">
        <ele>132</ele>
        <time>2012-11-16T13:22:17Z</time>
      </trkpt>
      <trkpt lat="48.60052" lon="-3.20106">
        <ele>132</ele>
        <time>2012-11-16T13:22:22Z</time>
      </trkpt>
      <trkpt lat="48.60057" lon="-3.20101">
        <ele>132</ele>
        <time>2012-11-16T13:22:27Z</time>
      </trkpt>
      <trkpt lat="48.60063" lon="-3.20096">
        <ele>132</ele>
        <time>2012-11-16T13:22:33Z</time>
      </trkpt>
      <trkpt lat="48.60067" lon="-3.20092">
        <ele>132</ele>
        <time>2012-11-16T13:22:38Z</time>
      </trkpt>
      <trkpt lat="48.60073" lon="-3.20091">
        <ele>132</ele>
        <time>2012-11-16T13:22:44Z</time>
      </trkpt>
      <trkpt lat="48.60078" lon="-3.20086">
        <ele>132</ele>
        <time>2012-11-16T13:22:49Z</time>
      </trkpt>
      <trkpt lat="48.60084" lon="-3.20082">
        <ele>132</ele>
        <time>2012-11-16T13:22:54Z</time>
      </trkpt>
      <trkpt lat="48.60089" lon="-3.20078">
        <ele>131</ele>
        <time>2012-11-16T13:22:59Z</time>
      </trkpt>
      <trkpt lat="48.60096" lon="-3.20073">
        <ele>130</ele>
        <time>2012-11-16T13:23:05Z</time>
      </trkpt>
      <trkpt lat="48.60101" lon="-3.2007">
        <ele>129</ele>
        <time>2012-11-16T13:23:10Z</time>
      </trkpt>
      <trkpt lat="48.60107" lon="-3.20066">
        <ele>129</ele>
        <time>2012-11-16T13:23:15Z</time>
      </trkpt>
      <trkpt lat="48.60111" lon="-3.20062">
        <ele>129</ele>
        <time>2012-11-16T13:23:20Z</time>
      </trkpt>
      <trkpt lat="48.60116" lon="-3.20057">
        <ele>129</ele>
        <time>2012-11-16T13:23:26Z</time>
      </trkpt>
      <trkpt lat="48.60122" lon="-3.20053">
        <ele>129</ele>
        <time>2012-11-16T13:23:31Z</time>
      </trkpt>
      <trkpt lat="48.60128" lon="-3.20047">
        <ele>129</ele>
        <time>2012-11-16T13:23:36Z</time>
      </trkpt>
      <trkpt lat="48.60136" lon="-3.20044">
        <ele>129</ele>
        <time>2012-11-16T13:23:42Z</time>
      </trkpt>
      <trkpt lat="48.60142" lon="-3.20042">
        <ele>127</ele>
        <time>2012-11-16T13:23:47Z</time>
      </trkpt>
      <trkpt lat="48.60149" lon="-3.2004">
        <ele>126</ele>
        <time>2012-11-16T13:23:52Z</time>
      </trkpt>
      <trkpt lat="48.60155" lon="-3.20038">
        <ele>125</ele>
        <time>2012-11-16T13:23:57Z</time>
      </trkpt>
      <trkpt lat="48.6016" lon="-3.20038">
        <ele>125</ele>
        <time>2012-11-16T13:24:02Z</time>
      </trkpt>
      <trkpt lat="48.60168" lon="-3.20032">
        <ele>125</ele>
        <time>2012-11-16T13:24:07Z</time>
      </trkpt>
      <trkpt lat="48.60175" lon="-3.20025">
        <ele>126</ele>
        <time>2012-11-16T13:24:12Z</time>
      </trkpt>
      <trkpt lat="48.60176" lon="-3.20015">
        <ele>127</ele>
        <time>2012-11-16T13:24:17Z</time>
      </trkpt>
      <trkpt lat="48.60176" lon="-3.20005">
        <ele>127</ele>
        <time>2012-11-16T13:24:22Z</time>
      </trkpt>
      <trkpt lat="48.60174" lon="-3.19994">
        <ele>127</ele>
        <time>2012-11-16T13:24:27Z</time>
      </trkpt>
      <trkpt lat="48.60172" lon="-3.19983">
        <ele>127</ele>
        <time>2012-11-16T13:24:32Z</time>
      </trkpt>
      <trkpt lat="48.6017" lon="-3.19971">
        <ele>127</ele>
        <time>2012-11-16T13:24:37Z</time>
      </trkpt>
      <trkpt lat="48.60169" lon="-3.1996">
        <ele>127</ele>
        <time>2012-11-16T13:24:42Z</time>
      </trkpt>
      <trkpt lat="48.60167" lon="-3.1995">
        <ele>127</ele>
        <time>2012-11-16T13:24:47Z</time>
      </trkpt>
      <trkpt lat="48.60167" lon="-3.19937">
        <ele>127</ele>
        <time>2012-11-16T13:24:52Z</time>
      </trkpt>
      <trkpt lat="48.60166" lon="-3.19925">
        <ele>127</ele>
        <time>2012-11-16T13:24:57Z</time>
      </trkpt>
      <trkpt lat="48.60167" lon="-3.19913">
        <ele>127</ele>
        <time>2012-11-16T13:25:02Z</time>
      </trkpt>
      <trkpt lat="48.60168" lon="-3.19902">
        <ele>127</ele>
        <time>2012-11-16T13:25:07Z</time>
      </trkpt>
      <trkpt lat="48.60167" lon="-3.1989">
        <ele>128</ele>
        <time>2012-11-16T13:25:12Z</time>
      </trkpt>
      <trkpt lat="48.60166" lon="-3.19879">
        <ele>128</ele>
        <time>2012-11-16T13:25:17Z</time>
      </trkpt>
      <trkpt lat="48.60162" lon="-3.19868">
        <ele>128</ele>
        <time>2012-11-16T13:25:22Z</time>
      </trkpt>
      <trkpt lat="48.60156" lon="-3.19861">
        <ele>128</ele>
        <time>2012-11-16T13:25:27Z</time>
      </trkpt>
      <trkpt lat="48.60149" lon="-3.19855">
        <ele>128</ele>
        <time>2012-11-16T13:25:32Z</time>
      </trkpt>
      <trkpt lat="48.60142" lon="-3.19849">
        <ele>128</ele>
        <time>2012-11-16T13:25:37Z</time>
      </trkpt>
      <trkpt lat="48.60136" lon="-3.19844">
        <ele>127</ele>
        <time>2012-11-16T13:25:42Z</time>
      </trkpt>
      <trkpt lat="48.60129" lon="-3.1984">
        <ele>126</ele>
        <time>2012-11-16T13:25:47Z</time>
      </trkpt>
      <trkpt lat="48.60121" lon="-3.19837">
        <ele>126</ele>
        <time>2012-11-16T13:25:52Z</time>
      </trkpt>
      <trkpt lat="48.60114" lon="-3.19833">
        <ele>126</ele>
        <time>2012-11-16T13:25:57Z</time>
      </trkpt>
      <trkpt lat="48.60106" lon="-3.19829">
        <ele>126</ele>
        <time>2012-11-16T13:26:02Z</time>
      </trkpt>
      <trkpt lat="48.60099" lon="-3.19821">
        <ele>126</ele>
        <time>2012-11-16T13:26:08Z</time>
      </trkpt>
      <trkpt lat="48.60091" lon="-3.19815">
        <ele>126</ele>
        <time>2012-11-16T13:26:13Z</time>
      </trkpt>
      <trkpt lat="48.60084" lon="-3.1981">
        <ele>126</ele>
        <time>2012-11-16T13:26:18Z</time>
      </trkpt>
      <trkpt lat="48.60078" lon="-3.19799">
        <ele>126</ele>
        <time>2012-11-16T13:26:24Z</time>
      </trkpt>
      <trkpt lat="48.60073" lon="-3.1979">
        <ele>126</ele>
        <time>2012-11-16T13:26:29Z</time>
      </trkpt>
      <trkpt lat="48.60071" lon="-3.19779">
        <ele>126</ele>
        <time>2012-11-16T13:26:34Z</time>
      </trkpt>
      <trkpt lat="48.60069" lon="-3.19768">
        <ele>126</ele>
        <time>2012-11-16T13:26:39Z</time>
      </trkpt>
      <trkpt lat="48.60068" lon="-3.19757">
        <ele>126</ele>
        <time>2012-11-16T13:26:44Z</time>
      </trkpt>
      <trkpt lat="48.60069" lon="-3.19745">
        <ele>126</ele>
        <time>2012-11-16T13:26:49Z</time>
      </trkpt>
      <trkpt lat="48.60069" lon="-3.19733">
        <ele>126</ele>
        <time>2012-11-16T13:26:54Z</time>
      </trkpt>
      <trkpt lat="48.6007" lon="-3.19722">
        <ele>126</ele>
        <time>2012-11-16T13:26:59Z</time>
      </trkpt>
      <trkpt lat="48.6007" lon="-3.19711">
        <ele>126</ele>
        <time>2012-11-16T13:27:04Z</time>
      </trkpt>
      <trkpt lat="48.60071" lon="-3.19699">
        <ele>126</ele>
        <time>2012-11-16T13:27:09Z</time>
      </trkpt>
      <trkpt lat="48.60072" lon="-3.19687">
        <ele>126</ele>
        <time>2012-11-16T13:27:14Z</time>
      </trkpt>
      <trkpt lat="48.60072" lon="-3.19677">
        <ele>126</ele>
        <time>2012-11-16T13:27:19Z</time>
      </trkpt>
      <trkpt lat="48.60073" lon="-3.19665">
        <ele>126</ele>
        <time>2012-11-16T13:27:24Z</time>
      </trkpt>
      <trkpt lat="48.60072" lon="-3.19653">
        <ele>126</ele>
        <time>2012-11-16T13:27:29Z</time>
      </trkpt>
      <trkpt lat="48.60072" lon="-3.19643">
        <ele>126</ele>
        <time>2012-11-16T13:27:34Z</time>
      </trkpt>
      <trkpt lat="48.6007" lon="-3.19632">
        <ele>126</ele>
        <time>2012-11-16T13:27:39Z</time>
      </trkpt>
      <trkpt lat="48.60069" lon="-3.1962">
        <ele>125</ele>
        <time>2012-11-16T13:27:44Z</time>
      </trkpt>
      <trkpt lat="48.60067" lon="-3.19609">
        <ele>123</ele>
        <time>2012-11-16T13:27:49Z</time>
      </trkpt>
      <trkpt lat="48.60066" lon="-3.19597">
        <ele>123</ele>
        <time>2012-11-16T13:27:54Z</time>
      </trkpt>
      <trkpt lat="48.60064" lon="-3.19586">
        <ele>123</ele>
        <time>2012-11-16T13:27:59Z</time>
      </trkpt>
      <trkpt lat="48.60062" lon="-3.19574">
        <ele>123</ele>
        <time>2012-11-16T13:28:04Z</time>
      </trkpt>
      <trkpt lat="48.60058" lon="-3.19564">
        <ele>123</ele>
        <time>2012-11-16T13:28:09Z</time>
      </trkpt>
      <trkpt lat="48.60053" lon="-3.19554">
        <ele>123</ele>
        <time>2012-11-16T13:28:14Z</time>
      </trkpt>
      <trkpt lat="48.60048" lon="-3.19545">
        <ele>124</ele>
        <time>2012-11-16T13:28:19Z</time>
      </trkpt>
      <trkpt lat="48.60042" lon="-3.19538">
        <ele>124</ele>
        <time>2012-11-16T13:28:24Z</time>
      </trkpt>
      <trkpt lat="48.60036" lon="-3.19531">
        <ele>124</ele>
        <time>2012-11-16T13:28:29Z</time>
      </trkpt>
      <trkpt lat="48.6003" lon="-3.19522">
        <ele>124</ele>
        <time>2012-11-16T13:28:35Z</time>
      </trkpt>
      <trkpt lat="48.60026" lon="-3.19513">
        <ele>124</ele>
        <time>2012-11-16T13:28:40Z</time>
      </trkpt>
      <trkpt lat="48.60026" lon="-3.19502">
        <ele>124</ele>
        <time>2012-11-16T13:28:45Z</time>
      </trkpt>
      <trkpt lat="48.60032" lon="-3.19493">
        <ele>124</ele>
        <time>2012-11-16T13:28:51Z</time>
      </trkpt>
      <trkpt lat="48.60039" lon="-3.19491">
        <ele>124</ele>
        <time>2012-11-16T13:28:56Z</time>
      </trkpt>
      <trkpt lat="48.60048" lon="-3.19491">
        <ele>124</ele>
        <time>2012-11-16T13:29:02Z</time>
      </trkpt>
      <trkpt lat="48.60055" lon="-3.1949">
        <ele>124</ele>
        <time>2012-11-16T13:29:07Z</time>
      </trkpt>
      <trkpt lat="48.60063" lon="-3.19489">
        <ele>124</ele>
        <time>2012-11-16T13:29:12Z</time>
      </trkpt>
      <trkpt lat="48.6007" lon="-3.19489">
        <ele>124</ele>
        <time>2012-11-16T13:29:17Z</time>
      </trkpt>
      <trkpt lat="48.60077" lon="-3.19489">
        <ele>124</ele>
        <time>2012-11-16T13:29:22Z</time>
      </trkpt>
      <trkpt lat="48.60085" lon="-3.19488">
        <ele>124</ele>
        <time>2012-11-16T13:29:27Z</time>
      </trkpt>
      <trkpt lat="48.60093" lon="-3.19485">
        <ele>124</ele>
        <time>2012-11-16T13:29:32Z</time>
      </trkpt>
      <trkpt lat="48.60101" lon="-3.19482">
        <ele>124</ele>
        <time>2012-11-16T13:29:37Z</time>
      </trkpt>
      <trkpt lat="48.60107" lon="-3.19475">
        <ele>124</ele>
        <time>2012-11-16T13:29:42Z</time>
      </trkpt>
      <trkpt lat="48.60108" lon="-3.19462">
        <ele>124</ele>
        <time>2012-11-16T13:29:47Z</time>
      </trkpt>
      <trkpt lat="48.60107" lon="-3.1945">
        <ele>124</ele>
        <time>2012-11-16T13:29:52Z</time>
      </trkpt>
      <trkpt lat="48.60107" lon="-3.19439">
        <ele>124</ele>
        <time>2012-11-16T13:29:57Z</time>
      </trkpt>
      <trkpt lat="48.60106" lon="-3.19428">
        <ele>124</ele>
        <time>2012-11-16T13:30:02Z</time>
      </trkpt>
      <trkpt lat="48.60105" lon="-3.19418">
        <ele>124</ele>
        <time>2012-11-16T13:30:07Z</time>
      </trkpt>
      <trkpt lat="48.60104" lon="-3.19408">
        <ele>124</ele>
        <time>2012-11-16T13:30:12Z</time>
      </trkpt>
      <trkpt lat="48.60104" lon="-3.19396">
        <ele>124</ele>
        <time>2012-11-16T13:30:17Z</time>
      </trkpt>
      <trkpt lat="48.60103" lon="-3.19384">
        <ele>124</ele>
        <time>2012-11-16T13:30:22Z</time>
      </trkpt>
      <trkpt lat="48.60102" lon="-3.19371">
        <ele>124</ele>
        <time>2012-11-16T13:30:27Z</time>
      </trkpt>
      <trkpt lat="48.60101" lon="-3.1936">
        <ele>124</ele>
        <time>2012-11-16T13:30:32Z</time>
      </trkpt>
      <trkpt lat="48.60101" lon="-3.19349">
        <ele>124</ele>
        <time>2012-11-16T13:30:37Z</time>
      </trkpt>
      <trkpt lat="48.601" lon="-3.19339">
        <ele>124</ele>
        <time>2012-11-16T13:30:42Z</time>
      </trkpt>
      <trkpt lat="48.60099" lon="-3.19327">
        <ele>124</ele>
        <time>2012-11-16T13:30:47Z</time>
      </trkpt>
      <trkpt lat="48.60098" lon="-3.19316">
        <ele>124</ele>
        <time>2012-11-16T13:30:52Z</time>
      </trkpt>
      <trkpt lat="48.60097" lon="-3.19306">
        <ele>126</ele>
        <time>2012-11-16T13:30:57Z</time>
      </trkpt>
      <trkpt lat="48.60095" lon="-3.19296">
        <ele>127</ele>
        <time>2012-11-16T13:31:02Z</time>
      </trkpt>
      <trkpt lat="48.60093" lon="-3.19283">
        <ele>128</ele>
        <time>2012-11-16T13:31:08Z</time>
      </trkpt>
      <trkpt lat="48.60093" lon="-3.19274">
        <ele>129</ele>
        <time>2012-11-16T13:31:13Z</time>
      </trkpt>
      <trkpt lat="48.60092" lon="-3.19265">
        <ele>129</ele>
        <time>2012-11-16T13:31:18Z</time>
      </trkpt>
      <trkpt lat="48.60092" lon="-3.19253">
        <ele>129</ele>
        <time>2012-11-16T13:31:23Z</time>
      </trkpt>
      <trkpt lat="48.6009" lon="-3.19244">
        <ele>129</ele>
        <time>2012-11-16T13:31:28Z</time>
      </trkpt>
      <trkpt lat="48.60092" lon="-3.1923">
        <ele>129</ele>
        <time>2012-11-16T13:31:33Z</time>
      </trkpt>
      <trkpt lat="48.60094" lon="-3.19223">
        <ele>129</ele>
        <time>2012-11-16T13:31:38Z</time>
      </trkpt>
      <trkpt lat="48.601" lon="-3.19213">
        <ele>129</ele>
        <time>2012-11-16T13:31:44Z</time>
      </trkpt>
      <trkpt lat="48.60105" lon="-3.19208">
        <ele>129</ele>
        <time>2012-11-16T13:31:50Z</time>
      </trkpt>
      <trkpt lat="48.60109" lon="-3.19203">
        <ele>129</ele>
        <time>2012-11-16T13:31:55Z</time>
      </trkpt>
      <trkpt lat="48.60116" lon="-3.19201">
        <ele>129</ele>
        <time>2012-11-16T13:32:00Z</time>
      </trkpt>
      <trkpt lat="48.60123" lon="-3.19196">
        <ele>129</ele>
        <time>2012-11-16T13:32:07Z</time>
      </trkpt>
      <trkpt lat="48.60135" lon="-3.19191">
        <ele>129</ele>
        <time>2012-11-16T13:32:13Z</time>
      </trkpt>
      <trkpt lat="48.60141" lon="-3.19185">
        <ele>129</ele>
        <time>2012-11-16T13:32:18Z</time>
      </trkpt>
      <trkpt lat="48.60149" lon="-3.1918">
        <ele>129</ele>
        <time>2012-11-16T13:32:24Z</time>
      </trkpt>
      <trkpt lat="48.60155" lon="-3.19176">
        <ele>129</ele>
        <time>2012-11-16T13:32:29Z</time>
      </trkpt>
      <trkpt lat="48.60163" lon="-3.1917">
        <ele>129</ele>
        <time>2012-11-16T13:32:34Z</time>
      </trkpt>
      <trkpt lat="48.60171" lon="-3.19168">
        <ele>129</ele>
        <time>2012-11-16T13:32:40Z</time>
      </trkpt>
      <trkpt lat="48.60178" lon="-3.19165">
        <ele>129</ele>
        <time>2012-11-16T13:32:45Z</time>
      </trkpt>
      <trkpt lat="48.60185" lon="-3.19156">
        <ele>129</ele>
        <time>2012-11-16T13:32:51Z</time>
      </trkpt>
      <trkpt lat="48.60191" lon="-3.19154">
        <ele>129</ele>
        <time>2012-11-16T13:32:56Z</time>
      </trkpt>
      <trkpt lat="48.60198" lon="-3.1915">
        <ele>129</ele>
        <time>2012-11-16T13:33:01Z</time>
      </trkpt>
      <trkpt lat="48.60205" lon="-3.19146">
        <ele>129</ele>
        <time>2012-11-16T13:33:06Z</time>
      </trkpt>
      <trkpt lat="48.60213" lon="-3.19141">
        <ele>129</ele>
        <time>2012-11-16T13:33:11Z</time>
      </trkpt>
      <trkpt lat="48.60221" lon="-3.19135">
        <ele>129</ele>
        <time>2012-11-16T13:33:17Z</time>
      </trkpt>
      <trkpt lat="48.60227" lon="-3.19133">
        <ele>129</ele>
        <time>2012-11-16T13:33:22Z</time>
      </trkpt>
      <trkpt lat="48.60232" lon="-3.19129">
        <ele>129</ele>
        <time>2012-11-16T13:33:27Z</time>
      </trkpt>
      <trkpt lat="48.60238" lon="-3.19123">
        <ele>129</ele>
        <time>2012-11-16T13:33:33Z</time>
      </trkpt>
      <trkpt lat="48.60245" lon="-3.19114">
        <ele>129</ele>
        <time>2012-11-16T13:33:39Z</time>
      </trkpt>
      <trkpt lat="48.60253" lon="-3.1911">
        <ele>129</ele>
        <time>2012-11-16T13:33:44Z</time>
      </trkpt>
      <trkpt lat="48.60261" lon="-3.19107">
        <ele>129</ele>
        <time>2012-11-16T13:33:49Z</time>
      </trkpt>
      <trkpt lat="48.60269" lon="-3.19108">
        <ele>129</ele>
        <time>2012-11-16T13:33:54Z</time>
      </trkpt>
      <trkpt lat="48.60277" lon="-3.1911">
        <ele>129</ele>
        <time>2012-11-16T13:33:59Z</time>
      </trkpt>
      <trkpt lat="48.60285" lon="-3.19112">
        <ele>129</ele>
        <time>2012-11-16T13:34:04Z</time>
      </trkpt>
      <trkpt lat="48.60292" lon="-3.19113">
        <ele>129</ele>
        <time>2012-11-16T13:34:09Z</time>
      </trkpt>
      <trkpt lat="48.603" lon="-3.19114">
        <ele>129</ele>
        <time>2012-11-16T13:34:14Z</time>
      </trkpt>
      <trkpt lat="48.60309" lon="-3.19115">
        <ele>130</ele>
        <time>2012-11-16T13:34:20Z</time>
      </trkpt>
      <trkpt lat="48.60317" lon="-3.19116">
        <ele>130</ele>
        <time>2012-11-16T13:34:25Z</time>
      </trkpt>
      <trkpt lat="48.60326" lon="-3.19118">
        <ele>130</ele>
        <time>2012-11-16T13:34:31Z</time>
      </trkpt>
      <trkpt lat="48.60333" lon="-3.19119">
        <ele>130</ele>
        <time>2012-11-16T13:34:36Z</time>
      </trkpt>
      <trkpt lat="48.60341" lon="-3.19121">
        <ele>130</ele>
        <time>2012-11-16T13:34:41Z</time>
      </trkpt>
      <trkpt lat="48.60348" lon="-3.1912">
        <ele>130</ele>
        <time>2012-11-16T13:34:46Z</time>
      </trkpt>
      <trkpt lat="48.60356" lon="-3.19118">
        <ele>130</ele>
        <time>2012-11-16T13:34:51Z</time>
      </trkpt>
      <trkpt lat="48.60356" lon="-3.19108">
        <ele>130</ele>
        <time>2012-11-16T13:34:56Z</time>
      </trkpt>
      <trkpt lat="48.60355" lon="-3.19097">
        <ele>130</ele>
        <time>2012-11-16T13:35:01Z</time>
      </trkpt>
      <trkpt lat="48.60352" lon="-3.19084">
        <ele>130</ele>
        <time>2012-11-16T13:35:07Z</time>
      </trkpt>
      <trkpt lat="48.60346" lon="-3.19071">
        <ele>130</ele>
        <time>2012-11-16T13:35:14Z</time>
      </trkpt>
      <trkpt lat="48.60342" lon="-3.19061">
        <ele>130</ele>
        <time>2012-11-16T13:35:19Z</time>
      </trkpt>
      <trkpt lat="48.60338" lon="-3.19051">
        <ele>130</ele>
        <time>2012-11-16T13:35:24Z</time>
      </trkpt>
      <trkpt lat="48.60335" lon="-3.19039">
        <ele>130</ele>
        <time>2012-11-16T13:35:29Z</time>
      </trkpt>
      <trkpt lat="48.60333" lon="-3.19029">
        <ele>130</ele>
        <time>2012-11-16T13:35:34Z</time>
      </trkpt>
      <trkpt lat="48.60331" lon="-3.19019">
        <ele>130</ele>
        <time>2012-11-16T13:35:39Z</time>
      </trkpt>
      <trkpt lat="48.60329" lon="-3.19007">
        <ele>130</ele>
        <time>2012-11-16T13:35:44Z</time>
      </trkpt>
      <trkpt lat="48.60327" lon="-3.18996">
        <ele>130</ele>
        <time>2012-11-16T13:35:49Z</time>
      </trkpt>
      <trkpt lat="48.60325" lon="-3.18982">
        <ele>130</ele>
        <time>2012-11-16T13:35:55Z</time>
      </trkpt>
      <trkpt lat="48.60322" lon="-3.18972">
        <ele>130</ele>
        <time>2012-11-16T13:36:00Z</time>
      </trkpt>
      <trkpt lat="48.6032" lon="-3.18959">
        <ele>130</ele>
        <time>2012-11-16T13:36:06Z</time>
      </trkpt>
      <trkpt lat="48.60321" lon="-3.18948">
        <ele>130</ele>
        <time>2012-11-16T13:36:11Z</time>
      </trkpt>
      <trkpt lat="48.60322" lon="-3.18936">
        <ele>130</ele>
        <time>2012-11-16T13:36:16Z</time>
      </trkpt>
      <trkpt lat="48.60324" lon="-3.18925">
        <ele>130</ele>
        <time>2012-11-16T13:36:21Z</time>
      </trkpt>
      <trkpt lat="48.60327" lon="-3.18915">
        <ele>130</ele>
        <time>2012-11-16T13:36:26Z</time>
      </trkpt>
      <trkpt lat="48.60328" lon="-3.18903">
        <ele>130</ele>
        <time>2012-11-16T13:36:31Z</time>
      </trkpt>
      <trkpt lat="48.60331" lon="-3.1889">
        <ele>130</ele>
        <time>2012-11-16T13:36:36Z</time>
      </trkpt>
      <trkpt lat="48.60332" lon="-3.18878">
        <ele>130</ele>
        <time>2012-11-16T13:36:41Z</time>
      </trkpt>
      <trkpt lat="48.60334" lon="-3.18866">
        <ele>130</ele>
        <time>2012-11-16T13:36:46Z</time>
      </trkpt>
      <trkpt lat="48.60335" lon="-3.18856">
        <ele>130</ele>
        <time>2012-11-16T13:36:51Z</time>
      </trkpt>
      <trkpt lat="48.60337" lon="-3.18842">
        <ele>130</ele>
        <time>2012-11-16T13:36:56Z</time>
      </trkpt>
      <trkpt lat="48.60338" lon="-3.1883">
        <ele>130</ele>
        <time>2012-11-16T13:37:01Z</time>
      </trkpt>
      <trkpt lat="48.60339" lon="-3.18818">
        <ele>130</ele>
        <time>2012-11-16T13:37:06Z</time>
      </trkpt>
      <trkpt lat="48.60339" lon="-3.18807">
        <ele>130</ele>
        <time>2012-11-16T13:37:11Z</time>
      </trkpt>
      <trkpt lat="48.60338" lon="-3.18795">
        <ele>130</ele>
        <time>2012-11-16T13:37:16Z</time>
      </trkpt>
      <trkpt lat="48.60336" lon="-3.18785">
        <ele>130</ele>
        <time>2012-11-16T13:37:21Z</time>
      </trkpt>
      <trkpt lat="48.60334" lon="-3.18773">
        <ele>130</ele>
        <time>2012-11-16T13:37:26Z</time>
      </trkpt>
      <trkpt lat="48.60331" lon="-3.18764">
        <ele>130</ele>
        <time>2012-11-16T13:37:31Z</time>
      </trkpt>
      <trkpt lat="48.60328" lon="-3.18754">
        <ele>130</ele>
        <time>2012-11-16T13:37:36Z</time>
      </trkpt>
      <trkpt lat="48.60326" lon="-3.18743">
        <ele>130</ele>
        <time>2012-11-16T13:37:41Z</time>
      </trkpt>
      <trkpt lat="48.60324" lon="-3.18732">
        <ele>130</ele>
        <time>2012-11-16T13:37:46Z</time>
      </trkpt>
      <trkpt lat="48.60323" lon="-3.18722">
        <ele>129</ele>
        <time>2012-11-16T13:37:51Z</time>
      </trkpt>
      <trkpt lat="48.60323" lon="-3.18711">
        <ele>129</ele>
        <time>2012-11-16T13:37:56Z</time>
      </trkpt>
      <trkpt lat="48.60323" lon="-3.18699">
        <ele>128</ele>
        <time>2012-11-16T13:38:01Z</time>
      </trkpt>
      <trkpt lat="48.60321" lon="-3.18687">
        <ele>128</ele>
        <time>2012-11-16T13:38:06Z</time>
      </trkpt>
      <trkpt lat="48.60322" lon="-3.18676">
        <ele>128</ele>
        <time>2012-11-16T13:38:11Z</time>
      </trkpt>
      <trkpt lat="48.60321" lon="-3.18665">
        <ele>128</ele>
        <time>2012-11-16T13:38:16Z</time>
      </trkpt>
      <trkpt lat="48.60321" lon="-3.18655">
        <ele>127</ele>
        <time>2012-11-16T13:38:21Z</time>
      </trkpt>
      <trkpt lat="48.60324" lon="-3.18644">
        <ele>125</ele>
        <time>2012-11-16T13:38:26Z</time>
      </trkpt>
      <trkpt lat="48.60325" lon="-3.18634">
        <ele>123</ele>
        <time>2012-11-16T13:38:31Z</time>
      </trkpt>
      <trkpt lat="48.60326" lon="-3.18622">
        <ele>123</ele>
        <time>2012-11-16T13:38:36Z</time>
      </trkpt>
      <trkpt lat="48.60327" lon="-3.1861">
        <ele>123</ele>
        <time>2012-11-16T13:38:41Z</time>
      </trkpt>
      <trkpt lat="48.6033" lon="-3.18597">
        <ele>123</ele>
        <time>2012-11-16T13:38:46Z</time>
      </trkpt>
      <trkpt lat="48.60332" lon="-3.18585">
        <ele>123</ele>
        <time>2012-11-16T13:38:51Z</time>
      </trkpt>
      <trkpt lat="48.60332" lon="-3.18574">
        <ele>124</ele>
        <time>2012-11-16T13:38:56Z</time>
      </trkpt>
      <trkpt lat="48.60332" lon="-3.18564">
        <ele>125</ele>
        <time>2012-11-16T13:39:01Z</time>
      </trkpt>
      <trkpt lat="48.60334" lon="-3.18553">
        <ele>125</ele>
        <time>2012-11-16T13:39:06Z</time>
      </trkpt>
      <trkpt lat="48.60333" lon="-3.18542">
        <ele>125</ele>
        <time>2012-11-16T13:39:11Z</time>
      </trkpt>
      <trkpt lat="48.60331" lon="-3.18531">
        <ele>126</ele>
        <time>2012-11-16T13:39:16Z</time>
      </trkpt>
      <trkpt lat="48.60329" lon="-3.18519">
        <ele>126</ele>
        <time>2012-11-16T13:39:21Z</time>
      </trkpt>
      <trkpt lat="48.60331" lon="-3.18505">
        <ele>126</ele>
        <time>2012-11-16T13:39:26Z</time>
      </trkpt>
      <trkpt lat="48.60334" lon="-3.18493">
        <ele>126</ele>
        <time>2012-11-16T13:39:31Z</time>
      </trkpt>
      <trkpt lat="48.60337" lon="-3.18482">
        <ele>126</ele>
        <time>2012-11-16T13:39:36Z</time>
      </trkpt>
      <trkpt lat="48.60342" lon="-3.18472">
        <ele>126</ele>
        <time>2012-11-16T13:39:41Z</time>
      </trkpt>
      <trkpt lat="48.60347" lon="-3.18464">
        <ele>126</ele>
        <time>2012-11-16T13:39:46Z</time>
      </trkpt>
      <trkpt lat="48.60353" lon="-3.18455">
        <ele>126</ele>
        <time>2012-11-16T13:39:51Z</time>
      </trkpt>
      <trkpt lat="48.60359" lon="-3.18448">
        <ele>125</ele>
        <time>2012-11-16T13:39:56Z</time>
      </trkpt>
      <trkpt lat="48.60364" lon="-3.1844">
        <ele>123</ele>
        <time>2012-11-16T13:40:01Z</time>
      </trkpt>
      <trkpt lat="48.60369" lon="-3.1843">
        <ele>123</ele>
        <time>2012-11-16T13:40:06Z</time>
      </trkpt>
      <trkpt lat="48.60374" lon="-3.18421">
        <ele>122</ele>
        <time>2012-11-16T13:40:11Z</time>
      </trkpt>
      <trkpt lat="48.60379" lon="-3.18413">
        <ele>121</ele>
        <time>2012-11-16T13:40:16Z</time>
      </trkpt>
      <trkpt lat="48.60384" lon="-3.18404">
        <ele>121</ele>
        <time>2012-11-16T13:40:21Z</time>
      </trkpt>
      <trkpt lat="48.60389" lon="-3.18396">
        <ele>121</ele>
        <time>2012-11-16T13:40:26Z</time>
      </trkpt>
      <trkpt lat="48.60394" lon="-3.18388">
        <ele>121</ele>
        <time>2012-11-16T13:40:31Z</time>
      </trkpt>
      <trkpt lat="48.604" lon="-3.1838">
        <ele>121</ele>
        <time>2012-11-16T13:40:36Z</time>
      </trkpt>
      <trkpt lat="48.60406" lon="-3.18372">
        <ele>121</ele>
        <time>2012-11-16T13:40:41Z</time>
      </trkpt>
      <trkpt lat="48.60412" lon="-3.18363">
        <ele>121</ele>
        <time>2012-11-16T13:40:47Z</time>
      </trkpt>
      <trkpt lat="48.60418" lon="-3.18355">
        <ele>121</ele>
        <time>2012-11-16T13:40:52Z</time>
      </trkpt>
      <trkpt lat="48.60422" lon="-3.18346">
        <ele>121</ele>
        <time>2012-11-16T13:40:57Z</time>
      </trkpt>
      <trkpt lat="48.60428" lon="-3.18334">
        <ele>121</ele>
        <time>2012-11-16T13:41:03Z</time>
      </trkpt>
      <trkpt lat="48.60432" lon="-3.18323">
        <ele>121</ele>
        <time>2012-11-16T13:41:08Z</time>
      </trkpt>
      <trkpt lat="48.60435" lon="-3.18313">
        <ele>121</ele>
        <time>2012-11-16T13:41:13Z</time>
      </trkpt>
      <trkpt lat="48.60439" lon="-3.18304">
        <ele>121</ele>
        <time>2012-11-16T13:41:19Z</time>
      </trkpt>
      <trkpt lat="48.60444" lon="-3.18292">
        <ele>121</ele>
        <time>2012-11-16T13:41:24Z</time>
      </trkpt>
      <trkpt lat="48.60448" lon="-3.18283">
        <ele>121</ele>
        <time>2012-11-16T13:41:29Z</time>
      </trkpt>
      <trkpt lat="48.60453" lon="-3.18272">
        <ele>121</ele>
        <time>2012-11-16T13:41:34Z</time>
      </trkpt>
      <trkpt lat="48.60456" lon="-3.18263">
        <ele>121</ele>
        <time>2012-11-16T13:41:39Z</time>
      </trkpt>
      <trkpt lat="48.60459" lon="-3.18252">
        <ele>121</ele>
        <time>2012-11-16T13:41:44Z</time>
      </trkpt>
      <trkpt lat="48.60463" lon="-3.18242">
        <ele>121</ele>
        <time>2012-11-16T13:41:49Z</time>
      </trkpt>
      <trkpt lat="48.60466" lon="-3.18232">
        <ele>121</ele>
        <time>2012-11-16T13:41:54Z</time>
      </trkpt>
      <trkpt lat="48.6047" lon="-3.18222">
        <ele>121</ele>
        <time>2012-11-16T13:41:59Z</time>
      </trkpt>
      <trkpt lat="48.60474" lon="-3.18212">
        <ele>121</ele>
        <time>2012-11-16T13:42:04Z</time>
      </trkpt>
      <trkpt lat="48.60477" lon="-3.18202">
        <ele>121</ele>
        <time>2012-11-16T13:42:09Z</time>
      </trkpt>
      <trkpt lat="48.6048" lon="-3.18192">
        <ele>121</ele>
        <time>2012-11-16T13:42:14Z</time>
      </trkpt>
      <trkpt lat="48.60483" lon="-3.18182">
        <ele>121</ele>
        <time>2012-11-16T13:42:19Z</time>
      </trkpt>
      <trkpt lat="48.60487" lon="-3.18171">
        <ele>121</ele>
        <time>2012-11-16T13:42:24Z</time>
      </trkpt>
      <trkpt lat="48.6049" lon="-3.18161">
        <ele>121</ele>
        <time>2012-11-16T13:42:29Z</time>
      </trkpt>
      <trkpt lat="48.60492" lon="-3.18151">
        <ele>121</ele>
        <time>2012-11-16T13:42:34Z</time>
      </trkpt>
      <trkpt lat="48.60497" lon="-3.18141">
        <ele>120</ele>
        <time>2012-11-16T13:42:39Z</time>
      </trkpt>
      <trkpt lat="48.605" lon="-3.18131">
        <ele>120</ele>
        <time>2012-11-16T13:42:44Z</time>
      </trkpt>
      <trkpt lat="48.60501" lon="-3.1812">
        <ele>120</ele>
        <time>2012-11-16T13:42:49Z</time>
      </trkpt>
      <trkpt lat="48.60504" lon="-3.1811">
        <ele>119</ele>
        <time>2012-11-16T13:42:54Z</time>
      </trkpt>
      <trkpt lat="48.60508" lon="-3.18101">
        <ele>118</ele>
        <time>2012-11-16T13:42:59Z</time>
      </trkpt>
      <trkpt lat="48.6051" lon="-3.18091">
        <ele>116</ele>
        <time>2012-11-16T13:43:04Z</time>
      </trkpt>
      <trkpt lat="48.60513" lon="-3.18082">
        <ele>115</ele>
        <time>2012-11-16T13:43:09Z</time>
      </trkpt>
      <trkpt lat="48.60516" lon="-3.18073">
        <ele>114</ele>
        <time>2012-11-16T13:43:14Z</time>
      </trkpt>
      <trkpt lat="48.60519" lon="-3.18061">
        <ele>114</ele>
        <time>2012-11-16T13:43:19Z</time>
      </trkpt>
      <trkpt lat="48.60522" lon="-3.1805">
        <ele>113</ele>
        <time>2012-11-16T13:43:24Z</time>
      </trkpt>
      <trkpt lat="48.60524" lon="-3.18039">
        <ele>113</ele>
        <time>2012-11-16T13:43:29Z</time>
      </trkpt>
      <trkpt lat="48.60526" lon="-3.18026">
        <ele>113</ele>
        <time>2012-11-16T13:43:34Z</time>
      </trkpt>
      <trkpt lat="48.60527" lon="-3.18015">
        <ele>113</ele>
        <time>2012-11-16T13:43:39Z</time>
      </trkpt>
      <trkpt lat="48.6053" lon="-3.18005">
        <ele>113</ele>
        <time>2012-11-16T13:43:44Z</time>
      </trkpt>
      <trkpt lat="48.60533" lon="-3.17994">
        <ele>113</ele>
        <time>2012-11-16T13:43:49Z</time>
      </trkpt>
      <trkpt lat="48.60535" lon="-3.17982">
        <ele>113</ele>
        <time>2012-11-16T13:43:54Z</time>
      </trkpt>
      <trkpt lat="48.60538" lon="-3.1797">
        <ele>113</ele>
        <time>2012-11-16T13:43:59Z</time>
      </trkpt>
      <trkpt lat="48.60541" lon="-3.1796">
        <ele>113</ele>
        <time>2012-11-16T13:44:04Z</time>
      </trkpt>
      <trkpt lat="48.60543" lon="-3.17949">
        <ele>113</ele>
        <time>2012-11-16T13:44:09Z</time>
      </trkpt>
      <trkpt lat="48.60546" lon="-3.17938">
        <ele>113</ele>
        <time>2012-11-16T13:44:14Z</time>
      </trkpt>
      <trkpt lat="48.60548" lon="-3.17928">
        <ele>113</ele>
        <time>2012-11-16T13:44:19Z</time>
      </trkpt>
      <trkpt lat="48.60549" lon="-3.17917">
        <ele>113</ele>
        <time>2012-11-16T13:44:24Z</time>
      </trkpt>
      <trkpt lat="48.60551" lon="-3.17906">
        <ele>113</ele>
        <time>2012-11-16T13:44:29Z</time>
      </trkpt>
      <trkpt lat="48.60552" lon="-3.17897">
        <ele>113</ele>
        <time>2012-11-16T13:44:34Z</time>
      </trkpt>
      <trkpt lat="48.60553" lon="-3.17888">
        <ele>113</ele>
        <time>2012-11-16T13:44:39Z</time>
      </trkpt>
      <trkpt lat="48.60555" lon="-3.17885">
        <ele>113</ele>
        <time>2012-11-16T13:44:48Z</time>
      </trkpt>
      <trkpt lat="48.60555" lon="-3.17882">
        <ele>113</ele>
        <time>2012-11-16T13:44:54Z</time>
      </trkpt>
      <trkpt lat="48.60555" lon="-3.17872">
        <ele>113</ele>
        <time>2012-11-16T13:44:59Z</time>
      </trkpt>
      <trkpt lat="48.60549" lon="-3.17863">
        <ele>113</ele>
        <time>2012-11-16T13:45:05Z</time>
      </trkpt>
      <trkpt lat="48.60545" lon="-3.17855">
        <ele>113</ele>
        <time>2012-11-16T13:45:10Z</time>
      </trkpt>
      <trkpt lat="48.60544" lon="-3.17844">
        <ele>114</ele>
        <time>2012-11-16T13:45:15Z</time>
      </trkpt>
      <trkpt lat="48.60546" lon="-3.17833">
        <ele>114</ele>
        <time>2012-11-16T13:45:20Z</time>
      </trkpt>
      <trkpt lat="48.60548" lon="-3.17821">
        <ele>115</ele>
        <time>2012-11-16T13:45:25Z</time>
      </trkpt>
      <trkpt lat="48.6055" lon="-3.1781">
        <ele>115</ele>
        <time>2012-11-16T13:45:30Z</time>
      </trkpt>
      <trkpt lat="48.60552" lon="-3.17799">
        <ele>115</ele>
        <time>2012-11-16T13:45:35Z</time>
      </trkpt>
      <trkpt lat="48.60553" lon="-3.17789">
        <ele>115</ele>
        <time>2012-11-16T13:45:40Z</time>
      </trkpt>
      <trkpt lat="48.60555" lon="-3.17778">
        <ele>115</ele>
        <time>2012-11-16T13:45:45Z</time>
      </trkpt>
      <trkpt lat="48.60558" lon="-3.17768">
        <ele>115</ele>
        <time>2012-11-16T13:45:50Z</time>
      </trkpt>
      <trkpt lat="48.6056" lon="-3.17756">
        <ele>115</ele>
        <time>2012-11-16T13:45:55Z</time>
      </trkpt>
      <trkpt lat="48.60561" lon="-3.17743">
        <ele>115</ele>
        <time>2012-11-16T13:46:00Z</time>
      </trkpt>
      <trkpt lat="48.60564" lon="-3.17733">
        <ele>115</ele>
        <time>2012-11-16T13:46:05Z</time>
      </trkpt>
      <trkpt lat="48.60566" lon="-3.1772">
        <ele>115</ele>
        <time>2012-11-16T13:46:10Z</time>
      </trkpt>
      <trkpt lat="48.60568" lon="-3.17708">
        <ele>115</ele>
        <time>2012-11-16T13:46:15Z</time>
      </trkpt>
      <trkpt lat="48.6057" lon="-3.17697">
        <ele>115</ele>
        <time>2012-11-16T13:46:20Z</time>
      </trkpt>
      <trkpt lat="48.60572" lon="-3.17686">
        <ele>115</ele>
        <time>2012-11-16T13:46:25Z</time>
      </trkpt>
      <trkpt lat="48.60574" lon="-3.17675">
        <ele>115</ele>
        <time>2012-11-16T13:46:30Z</time>
      </trkpt>
      <trkpt lat="48.60577" lon="-3.17665">
        <ele>115</ele>
        <time>2012-11-16T13:46:35Z</time>
      </trkpt>
      <trkpt lat="48.60579" lon="-3.17655">
        <ele>115</ele>
        <time>2012-11-16T13:46:40Z</time>
      </trkpt>
      <trkpt lat="48.60581" lon="-3.17645">
        <ele>115</ele>
        <time>2012-11-16T13:46:45Z</time>
      </trkpt>
      <trkpt lat="48.60584" lon="-3.17634">
        <ele>115</ele>
        <time>2012-11-16T13:46:50Z</time>
      </trkpt>
      <trkpt lat="48.60586" lon="-3.17623">
        <ele>115</ele>
        <time>2012-11-16T13:46:55Z</time>
      </trkpt>
      <trkpt lat="48.60587" lon="-3.17612">
        <ele>115</ele>
        <time>2012-11-16T13:47:00Z</time>
      </trkpt>
      <trkpt lat="48.60585" lon="-3.17599">
        <ele>115</ele>
        <time>2012-11-16T13:47:05Z</time>
      </trkpt>
      <trkpt lat="48.60581" lon="-3.17589">
        <ele>115</ele>
        <time>2012-11-16T13:47:10Z</time>
      </trkpt>
      <trkpt lat="48.60575" lon="-3.17582">
        <ele>115</ele>
        <time>2012-11-16T13:47:15Z</time>
      </trkpt>
      <trkpt lat="48.60568" lon="-3.17576">
        <ele>115</ele>
        <time>2012-11-16T13:47:20Z</time>
      </trkpt>
      <trkpt lat="48.60561" lon="-3.17571">
        <ele>115</ele>
        <time>2012-11-16T13:47:25Z</time>
      </trkpt>
      <trkpt lat="48.60555" lon="-3.17566">
        <ele>115</ele>
        <time>2012-11-16T13:47:30Z</time>
      </trkpt>
      <trkpt lat="48.60548" lon="-3.17561">
        <ele>115</ele>
        <time>2012-11-16T13:47:35Z</time>
      </trkpt>
      <trkpt lat="48.60542" lon="-3.17554">
        <ele>115</ele>
        <time>2012-11-16T13:47:40Z</time>
      </trkpt>
      <trkpt lat="48.60536" lon="-3.1755">
        <ele>115</ele>
        <time>2012-11-16T13:47:45Z</time>
      </trkpt>
      <trkpt lat="48.60529" lon="-3.17544">
        <ele>114</ele>
        <time>2012-11-16T13:47:50Z</time>
      </trkpt>
      <trkpt lat="48.60522" lon="-3.17538">
        <ele>112</ele>
        <time>2012-11-16T13:47:55Z</time>
      </trkpt>
      <trkpt lat="48.60517" lon="-3.1753">
        <ele>112</ele>
        <time>2012-11-16T13:48:00Z</time>
      </trkpt>
      <trkpt lat="48.60511" lon="-3.17525">
        <ele>111</ele>
        <time>2012-11-16T13:48:05Z</time>
      </trkpt>
      <trkpt lat="48.60504" lon="-3.17521">
        <ele>111</ele>
        <time>2012-11-16T13:48:10Z</time>
      </trkpt>
      <trkpt lat="48.605" lon="-3.17515">
        <ele>111</ele>
        <time>2012-11-16T13:48:15Z</time>
      </trkpt>
      <trkpt lat="48.60499" lon="-3.17506">
        <ele>111</ele>
        <time>2012-11-16T13:48:20Z</time>
      </trkpt>
      <trkpt lat="48.605" lon="-3.17495">
        <ele>111</ele>
        <time>2012-11-16T13:48:25Z</time>
      </trkpt>
      <trkpt lat="48.60503" lon="-3.17485">
        <ele>111</ele>
        <time>2012-11-16T13:48:30Z</time>
      </trkpt>
      <trkpt lat="48.60504" lon="-3.17475">
        <ele>111</ele>
        <time>2012-11-16T13:48:35Z</time>
      </trkpt>
      <trkpt lat="48.60502" lon="-3.17465">
        <ele>111</ele>
        <time>2012-11-16T13:48:40Z</time>
      </trkpt>
      <trkpt lat="48.60498" lon="-3.17455">
        <ele>111</ele>
        <time>2012-11-16T13:48:46Z</time>
      </trkpt>
      <trkpt lat="48.60493" lon="-3.17448">
        <ele>111</ele>
        <time>2012-11-16T13:48:51Z</time>
      </trkpt>
      <trkpt lat="48.60488" lon="-3.1744">
        <ele>111</ele>
        <time>2012-11-16T13:48:56Z</time>
      </trkpt>
      <trkpt lat="48.60482" lon="-3.17432">
        <ele>111</ele>
        <time>2012-11-16T13:49:01Z</time>
      </trkpt>
      <trkpt lat="48.60475" lon="-3.17424">
        <ele>111</ele>
        <time>2012-11-16T13:49:07Z</time>
      </trkpt>
      <trkpt lat="48.60468" lon="-3.17417">
        <ele>111</ele>
        <time>2012-11-16T13:49:12Z</time>
      </trkpt>
      <trkpt lat="48.60463" lon="-3.1741">
        <ele>111</ele>
        <time>2012-11-16T13:49:17Z</time>
      </trkpt>
      <trkpt lat="48.60456" lon="-3.17404">
        <ele>111</ele>
        <time>2012-11-16T13:49:22Z</time>
      </trkpt>
      <trkpt lat="48.60449" lon="-3.17398">
        <ele>111</ele>
        <time>2012-11-16T13:49:27Z</time>
      </trkpt>
      <trkpt lat="48.60443" lon="-3.17391">
        <ele>111</ele>
        <time>2012-11-16T13:49:32Z</time>
      </trkpt>
      <trkpt lat="48.60437" lon="-3.17384">
        <ele>111</ele>
        <time>2012-11-16T13:49:37Z</time>
      </trkpt>
      <trkpt lat="48.6043" lon="-3.17379">
        <ele>111</ele>
        <time>2012-11-16T13:49:42Z</time>
      </trkpt>
      <trkpt lat="48.60424" lon="-3.17375">
        <ele>112</ele>
        <time>2012-11-16T13:49:47Z</time>
      </trkpt>
      <trkpt lat="48.60416" lon="-3.17373">
        <ele>113</ele>
        <time>2012-11-16T13:49:52Z</time>
      </trkpt>
      <trkpt lat="48.60408" lon="-3.17372">
        <ele>114</ele>
        <time>2012-11-16T13:49:57Z</time>
      </trkpt>
      <trkpt lat="48.60402" lon="-3.17376">
        <ele>114</ele>
        <time>2012-11-16T13:50:02Z</time>
      </trkpt>
      <trkpt lat="48.60394" lon="-3.17377">
        <ele>114</ele>
        <time>2012-11-16T13:50:07Z</time>
      </trkpt>
      <trkpt lat="48.60387" lon="-3.17377">
        <ele>114</ele>
        <time>2012-11-16T13:50:12Z</time>
      </trkpt>
      <trkpt lat="48.6038" lon="-3.17377">
        <ele>114</ele>
        <time>2012-11-16T13:50:17Z</time>
      </trkpt>
      <trkpt lat="48.60373" lon="-3.17378">
        <ele>114</ele>
        <time>2012-11-16T13:50:22Z</time>
      </trkpt>
      <trkpt lat="48.60366" lon="-3.17377">
        <ele>114</ele>
        <time>2012-11-16T13:50:27Z</time>
      </trkpt>
      <trkpt lat="48.60359" lon="-3.17377">
        <ele>114</ele>
        <time>2012-11-16T13:50:32Z</time>
      </trkpt>
      <trkpt lat="48.6035" lon="-3.17375">
        <ele>114</ele>
        <time>2012-11-16T13:50:37Z</time>
      </trkpt>
      <trkpt lat="48.60342" lon="-3.17373">
        <ele>114</ele>
        <time>2012-11-16T13:50:42Z</time>
      </trkpt>
      <trkpt lat="48.60334" lon="-3.1737">
        <ele>114</ele>
        <time>2012-11-16T13:50:47Z</time>
      </trkpt>
      <trkpt lat="48.60327" lon="-3.17365">
        <ele>114</ele>
        <time>2012-11-16T13:50:52Z</time>
      </trkpt>
      <trkpt lat="48.60319" lon="-3.1736">
        <ele>114</ele>
        <time>2012-11-16T13:50:57Z</time>
      </trkpt>
      <trkpt lat="48.60312" lon="-3.17356">
        <ele>114</ele>
        <time>2012-11-16T13:51:02Z</time>
      </trkpt>
      <trkpt lat="48.60305" lon="-3.17352">
        <ele>114</ele>
        <time>2012-11-16T13:51:07Z</time>
      </trkpt>
      <trkpt lat="48.60298" lon="-3.17349">
        <ele>114</ele>
        <time>2012-11-16T13:51:12Z</time>
      </trkpt>
      <trkpt lat="48.60291" lon="-3.17346">
        <ele>114</ele>
        <time>2012-11-16T13:51:17Z</time>
      </trkpt>
      <trkpt lat="48.60284" lon="-3.17342">
        <ele>114</ele>
        <time>2012-11-16T13:51:22Z</time>
      </trkpt>
      <trkpt lat="48.60277" lon="-3.17339">
        <ele>114</ele>
        <time>2012-11-16T13:51:27Z</time>
      </trkpt>
      <trkpt lat="48.6027" lon="-3.17336">
        <ele>114</ele>
        <time>2012-11-16T13:51:32Z</time>
      </trkpt>
      <trkpt lat="48.60263" lon="-3.17334">
        <ele>114</ele>
        <time>2012-11-16T13:51:37Z</time>
      </trkpt>
      <trkpt lat="48.60256" lon="-3.17331">
        <ele>114</ele>
        <time>2012-11-16T13:51:42Z</time>
      </trkpt>
      <trkpt lat="48.60248" lon="-3.17327">
        <ele>114</ele>
        <time>2012-11-16T13:51:47Z</time>
      </trkpt>
      <trkpt lat="48.60241" lon="-3.17322">
        <ele>116</ele>
        <time>2012-11-16T13:51:52Z</time>
      </trkpt>
      <trkpt lat="48.60233" lon="-3.1732">
        <ele>117</ele>
        <time>2012-11-16T13:51:57Z</time>
      </trkpt>
      <trkpt lat="48.60226" lon="-3.17317">
        <ele>117</ele>
        <time>2012-11-16T13:52:02Z</time>
      </trkpt>
      <trkpt lat="48.60219" lon="-3.17314">
        <ele>117</ele>
        <time>2012-11-16T13:52:07Z</time>
      </trkpt>
      <trkpt lat="48.60215" lon="-3.17311">
        <ele>117</ele>
        <time>2012-11-16T13:52:12Z</time>
      </trkpt>
      <trkpt lat="48.60212" lon="-3.17311">
        <ele>117</ele>
        <time>2012-11-16T13:52:17Z</time>
      </trkpt>
      <trkpt lat="48.60211" lon="-3.1731">
        <ele>117</ele>
        <time>2012-11-16T13:52:33Z</time>
      </trkpt>
      <trkpt lat="48.60209" lon="-3.1731">
        <ele>117</ele>
        <time>2012-11-16T13:52:45Z</time>
      </trkpt>
      <trkpt lat="48.60208" lon="-3.17311">
        <ele>117</ele>
        <time>2012-11-16T13:52:54Z</time>
      </trkpt>
      <trkpt lat="48.60206" lon="-3.17307">
        <ele>117</ele>
        <time>2012-11-16T13:53:00Z</time>
      </trkpt>
      <trkpt lat="48.60207" lon="-3.17309">
        <ele>117</ele>
        <time>2012-11-16T13:53:31Z</time>
      </trkpt>
      <trkpt lat="48.60208" lon="-3.17311">
        <ele>115</ele>
        <time>2012-11-16T13:54:24Z</time>
      </trkpt>
      <trkpt lat="48.60209" lon="-3.17309">
        <ele>117</ele>
        <time>2012-11-16T13:55:21Z</time>
      </trkpt>
      <trkpt lat="48.6021" lon="-3.17309">
        <ele>117</ele>
        <time>2012-11-16T13:56:08Z</time>
      </trkpt>
      <trkpt lat="48.60211" lon="-3.17306">
        <ele>117</ele>
        <time>2012-11-16T13:56:13Z</time>
      </trkpt>
      <trkpt lat="48.60212" lon="-3.17296">
        <ele>117</ele>
        <time>2012-11-16T13:56:18Z</time>
      </trkpt>
      <trkpt lat="48.60212" lon="-3.17287">
        <ele>116</ele>
        <time>2012-11-16T13:56:23Z</time>
      </trkpt>
      <trkpt lat="48.60213" lon="-3.17278">
        <ele>115</ele>
        <time>2012-11-16T13:56:28Z</time>
      </trkpt>
      <trkpt lat="48.60213" lon="-3.17269">
        <ele>115</ele>
        <time>2012-11-16T13:56:33Z</time>
      </trkpt>
      <trkpt lat="48.60212" lon="-3.17259">
        <ele>114</ele>
        <time>2012-11-16T13:56:38Z</time>
      </trkpt>
      <trkpt lat="48.60208" lon="-3.17254">
        <ele>113</ele>
        <time>2012-11-16T13:56:43Z</time>
      </trkpt>
      <trkpt lat="48.60203" lon="-3.17251">
        <ele>113</ele>
        <time>2012-11-16T13:56:49Z</time>
      </trkpt>
      <trkpt lat="48.602" lon="-3.17244">
        <ele>112</ele>
        <time>2012-11-16T13:56:54Z</time>
      </trkpt>
      <trkpt lat="48.602" lon="-3.17234">
        <ele>112</ele>
        <time>2012-11-16T13:56:59Z</time>
      </trkpt>
      <trkpt lat="48.60202" lon="-3.17224">
        <ele>112</ele>
        <time>2012-11-16T13:57:04Z</time>
      </trkpt>
      <trkpt lat="48.60205" lon="-3.17214">
        <ele>112</ele>
        <time>2012-11-16T13:57:09Z</time>
      </trkpt>
      <trkpt lat="48.60207" lon="-3.17203">
        <ele>112</ele>
        <time>2012-11-16T13:57:14Z</time>
      </trkpt>
      <trkpt lat="48.60209" lon="-3.17193">
        <ele>112</ele>
        <time>2012-11-16T13:57:19Z</time>
      </trkpt>
      <trkpt lat="48.60213" lon="-3.17183">
        <ele>112</ele>
        <time>2012-11-16T13:57:24Z</time>
      </trkpt>
      <trkpt lat="48.60214" lon="-3.17172">
        <ele>112</ele>
        <time>2012-11-16T13:57:29Z</time>
      </trkpt>
      <trkpt lat="48.60216" lon="-3.17161">
        <ele>112</ele>
        <time>2012-11-16T13:57:34Z</time>
      </trkpt>
      <trkpt lat="48.60216" lon="-3.17151">
        <ele>112</ele>
        <time>2012-11-16T13:57:39Z</time>
      </trkpt>
      <trkpt lat="48.60217" lon="-3.1714">
        <ele>112</ele>
        <time>2012-11-16T13:57:44Z</time>
      </trkpt>
      <trkpt lat="48.60218" lon="-3.17129">
        <ele>112</ele>
        <time>2012-11-16T13:57:49Z</time>
      </trkpt>
      <trkpt lat="48.60219" lon="-3.17117">
        <ele>112</ele>
        <time>2012-11-16T13:57:54Z</time>
      </trkpt>
      <trkpt lat="48.60221" lon="-3.17105">
        <ele>112</ele>
        <time>2012-11-16T13:57:59Z</time>
      </trkpt>
      <trkpt lat="48.60221" lon="-3.17094">
        <ele>112</ele>
        <time>2012-11-16T13:58:04Z</time>
      </trkpt>
      <trkpt lat="48.60222" lon="-3.17083">
        <ele>112</ele>
        <time>2012-11-16T13:58:09Z</time>
      </trkpt>
      <trkpt lat="48.60223" lon="-3.17072">
        <ele>112</ele>
        <time>2012-11-16T13:58:14Z</time>
      </trkpt>
      <trkpt lat="48.60225" lon="-3.17061">
        <ele>112</ele>
        <time>2012-11-16T13:58:19Z</time>
      </trkpt>
      <trkpt lat="48.60227" lon="-3.1705">
        <ele>112</ele>
        <time>2012-11-16T13:58:24Z</time>
      </trkpt>
      <trkpt lat="48.60231" lon="-3.1704">
        <ele>112</ele>
        <time>2012-11-16T13:58:30Z</time>
      </trkpt>
      <trkpt lat="48.60237" lon="-3.17037">
        <ele>112</ele>
        <time>2012-11-16T13:58:35Z</time>
      </trkpt>
      <trkpt lat="48.60245" lon="-3.17037">
        <ele>112</ele>
        <time>2012-11-16T13:58:40Z</time>
      </trkpt>
      <trkpt lat="48.60253" lon="-3.17037">
        <ele>112</ele>
        <time>2012-11-16T13:58:45Z</time>
      </trkpt>
      <trkpt lat="48.6026" lon="-3.17036">
        <ele>112</ele>
        <time>2012-11-16T13:58:50Z</time>
      </trkpt>
      <trkpt lat="48.60267" lon="-3.17028">
        <ele>112</ele>
        <time>2012-11-16T13:58:55Z</time>
      </trkpt>
      <trkpt lat="48.60271" lon="-3.1702">
        <ele>112</ele>
        <time>2012-11-16T13:59:00Z</time>
      </trkpt>
      <trkpt lat="48.60275" lon="-3.17009">
        <ele>112</ele>
        <time>2012-11-16T13:59:05Z</time>
      </trkpt>
      <trkpt lat="48.60278" lon="-3.16999">
        <ele>112</ele>
        <time>2012-11-16T13:59:10Z</time>
      </trkpt>
      <trkpt lat="48.60281" lon="-3.1699">
        <ele>112</ele>
        <time>2012-11-16T13:59:15Z</time>
      </trkpt>
      <trkpt lat="48.60285" lon="-3.16981">
        <ele>112</ele>
        <time>2012-11-16T13:59:20Z</time>
      </trkpt>
      <trkpt lat="48.6029" lon="-3.16973">
        <ele>112</ele>
        <time>2012-11-16T13:59:25Z</time>
      </trkpt>
      <trkpt lat="48.60295" lon="-3.16965">
        <ele>112</ele>
        <time>2012-11-16T13:59:31Z</time>
      </trkpt>
      <trkpt lat="48.60297" lon="-3.16956">
        <ele>112</ele>
        <time>2012-11-16T13:59:36Z</time>
      </trkpt>
      <trkpt lat="48.60293" lon="-3.1695">
        <ele>112</ele>
        <time>2012-11-16T13:59:41Z</time>
      </trkpt>
      <trkpt lat="48.60287" lon="-3.16941">
        <ele>112</ele>
        <time>2012-11-16T13:59:47Z</time>
      </trkpt>
      <trkpt lat="48.60282" lon="-3.16934">
        <ele>112</ele>
        <time>2012-11-16T13:59:52Z</time>
      </trkpt>
      <trkpt lat="48.60277" lon="-3.16926">
        <ele>112</ele>
        <time>2012-11-16T13:59:57Z</time>
      </trkpt>
      <trkpt lat="48.60274" lon="-3.16918">
        <ele>111</ele>
        <time>2012-11-16T14:00:02Z</time>
      </trkpt>
      <trkpt lat="48.60272" lon="-3.16908">
        <ele>110</ele>
        <time>2012-11-16T14:00:07Z</time>
      </trkpt>
      <trkpt lat="48.60274" lon="-3.16895">
        <ele>110</ele>
        <time>2012-11-16T14:00:12Z</time>
      </trkpt>
      <trkpt lat="48.60275" lon="-3.16882">
        <ele>110</ele>
        <time>2012-11-16T14:00:17Z</time>
      </trkpt>
      <trkpt lat="48.60277" lon="-3.16872">
        <ele>110</ele>
        <time>2012-11-16T14:00:22Z</time>
      </trkpt>
      <trkpt lat="48.60278" lon="-3.16861">
        <ele>110</ele>
        <time>2012-11-16T14:00:27Z</time>
      </trkpt>
      <trkpt lat="48.60281" lon="-3.1685">
        <ele>110</ele>
        <time>2012-11-16T14:00:32Z</time>
      </trkpt>
      <trkpt lat="48.60284" lon="-3.1684">
        <ele>110</ele>
        <time>2012-11-16T14:00:37Z</time>
      </trkpt>
      <trkpt lat="48.60288" lon="-3.16829">
        <ele>111</ele>
        <time>2012-11-16T14:00:42Z</time>
      </trkpt>
      <trkpt lat="48.60291" lon="-3.16818">
        <ele>111</ele>
        <time>2012-11-16T14:00:48Z</time>
      </trkpt>
      <trkpt lat="48.60296" lon="-3.16806">
        <ele>111</ele>
        <time>2012-11-16T14:00:54Z</time>
      </trkpt>
      <trkpt lat="48.603" lon="-3.16797">
        <ele>111</ele>
        <time>2012-11-16T14:00:59Z</time>
      </trkpt>
      <trkpt lat="48.60304" lon="-3.16787">
        <ele>111</ele>
        <time>2012-11-16T14:01:04Z</time>
      </trkpt>
      <trkpt lat="48.60308" lon="-3.16777">
        <ele>111</ele>
        <time>2012-11-16T14:01:09Z</time>
      </trkpt>
      <trkpt lat="48.60309" lon="-3.16766">
        <ele>111</ele>
        <time>2012-11-16T14:01:14Z</time>
      </trkpt>
      <trkpt lat="48.60306" lon="-3.16756">
        <ele>111</ele>
        <time>2012-11-16T14:01:19Z</time>
      </trkpt>
      <trkpt lat="48.60301" lon="-3.16747">
        <ele>111</ele>
        <time>2012-11-16T14:01:24Z</time>
      </trkpt>
      <trkpt lat="48.60296" lon="-3.16739">
        <ele>111</ele>
        <time>2012-11-16T14:01:29Z</time>
      </trkpt>
      <trkpt lat="48.6029" lon="-3.16731">
        <ele>111</ele>
        <time>2012-11-16T14:01:34Z</time>
      </trkpt>
      <trkpt lat="48.60284" lon="-3.16722">
        <ele>111</ele>
        <time>2012-11-16T14:01:39Z</time>
      </trkpt>
      <trkpt lat="48.60279" lon="-3.16716">
        <ele>111</ele>
        <time>2012-11-16T14:01:45Z</time>
      </trkpt>
      <trkpt lat="48.60273" lon="-3.16707">
        <ele>111</ele>
        <time>2012-11-16T14:01:50Z</time>
      </trkpt>
      <trkpt lat="48.6027" lon="-3.16696">
        <ele>111</ele>
        <time>2012-11-16T14:01:55Z</time>
      </trkpt>
      <trkpt lat="48.60271" lon="-3.16685">
        <ele>111</ele>
        <time>2012-11-16T14:02:00Z</time>
      </trkpt>
      <trkpt lat="48.60275" lon="-3.16673">
        <ele>111</ele>
        <time>2012-11-16T14:02:05Z</time>
      </trkpt>
      <trkpt lat="48.60277" lon="-3.16662">
        <ele>111</ele>
        <time>2012-11-16T14:02:10Z</time>
      </trkpt>
      <trkpt lat="48.6028" lon="-3.1665">
        <ele>111</ele>
        <time>2012-11-16T14:02:15Z</time>
      </trkpt>
      <trkpt lat="48.60282" lon="-3.16639">
        <ele>110</ele>
        <time>2012-11-16T14:02:20Z</time>
      </trkpt>
      <trkpt lat="48.60285" lon="-3.16627">
        <ele>110</ele>
        <time>2012-11-16T14:02:25Z</time>
      </trkpt>
      <trkpt lat="48.60287" lon="-3.16616">
        <ele>109</ele>
        <time>2012-11-16T14:02:30Z</time>
      </trkpt>
      <trkpt lat="48.60289" lon="-3.16605">
        <ele>109</ele>
        <time>2012-11-16T14:02:35Z</time>
      </trkpt>
      <trkpt lat="48.60291" lon="-3.16594">
        <ele>109</ele>
        <time>2012-11-16T14:02:40Z</time>
      </trkpt>
      <trkpt lat="48.60291" lon="-3.16581">
        <ele>109</ele>
        <time>2012-11-16T14:02:45Z</time>
      </trkpt>
      <trkpt lat="48.60291" lon="-3.1657">
        <ele>109</ele>
        <time>2012-11-16T14:02:50Z</time>
      </trkpt>
      <trkpt lat="48.60286" lon="-3.16562">
        <ele>109</ele>
        <time>2012-11-16T14:02:55Z</time>
      </trkpt>
      <trkpt lat="48.60279" lon="-3.16561">
        <ele>109</ele>
        <time>2012-11-16T14:03:00Z</time>
      </trkpt>
      <trkpt lat="48.60271" lon="-3.16562">
        <ele>109</ele>
        <time>2012-11-16T14:03:05Z</time>
      </trkpt>
      <trkpt lat="48.60263" lon="-3.16562">
        <ele>109</ele>
        <time>2012-11-16T14:03:10Z</time>
      </trkpt>
      <trkpt lat="48.60256" lon="-3.16562">
        <ele>108</ele>
        <time>2012-11-16T14:03:15Z</time>
      </trkpt>
      <trkpt lat="48.60248" lon="-3.16562">
        <ele>108</ele>
        <time>2012-11-16T14:03:20Z</time>
      </trkpt>
      <trkpt lat="48.6024" lon="-3.16562">
        <ele>108</ele>
        <time>2012-11-16T14:03:25Z</time>
      </trkpt>
      <trkpt lat="48.60232" lon="-3.16561">
        <ele>108</ele>
        <time>2012-11-16T14:03:30Z</time>
      </trkpt>
      <trkpt lat="48.60225" lon="-3.16559">
        <ele>108</ele>
        <time>2012-11-16T14:03:35Z</time>
      </trkpt>
      <trkpt lat="48.60217" lon="-3.16557">
        <ele>108</ele>
        <time>2012-11-16T14:03:40Z</time>
      </trkpt>
      <trkpt lat="48.60209" lon="-3.16555">
        <ele>108</ele>
        <time>2012-11-16T14:03:45Z</time>
      </trkpt>
      <trkpt lat="48.60202" lon="-3.16554">
        <ele>108</ele>
        <time>2012-11-16T14:03:50Z</time>
      </trkpt>
      <trkpt lat="48.60194" lon="-3.16552">
        <ele>107</ele>
        <time>2012-11-16T14:03:55Z</time>
      </trkpt>
      <trkpt lat="48.60187" lon="-3.16549">
        <ele>106</ele>
        <time>2012-11-16T14:04:00Z</time>
      </trkpt>
      <trkpt lat="48.6018" lon="-3.16545">
        <ele>106</ele>
        <time>2012-11-16T14:04:05Z</time>
      </trkpt>
      <trkpt lat="48.60173" lon="-3.16542">
        <ele>106</ele>
        <time>2012-11-16T14:04:10Z</time>
      </trkpt>
      <trkpt lat="48.60166" lon="-3.16541">
        <ele>106</ele>
        <time>2012-11-16T14:04:15Z</time>
      </trkpt>
      <trkpt lat="48.60158" lon="-3.16543">
        <ele>105</ele>
        <time>2012-11-16T14:04:20Z</time>
      </trkpt>
      <trkpt lat="48.60151" lon="-3.16543">
        <ele>105</ele>
        <time>2012-11-16T14:04:25Z</time>
      </trkpt>
      <trkpt lat="48.60145" lon="-3.16542">
        <ele>104</ele>
        <time>2012-11-16T14:04:30Z</time>
      </trkpt>
      <trkpt lat="48.60139" lon="-3.1654">
        <ele>103</ele>
        <time>2012-11-16T14:04:35Z</time>
      </trkpt>
      <trkpt lat="48.60135" lon="-3.16533">
        <ele>103</ele>
        <time>2012-11-16T14:04:40Z</time>
      </trkpt>
      <trkpt lat="48.60136" lon="-3.16521">
        <ele>103</ele>
        <time>2012-11-16T14:04:45Z</time>
      </trkpt>
      <trkpt lat="48.60139" lon="-3.16512">
        <ele>103</ele>
        <time>2012-11-16T14:04:50Z</time>
      </trkpt>
      <trkpt lat="48.60139" lon="-3.16502">
        <ele>103</ele>
        <time>2012-11-16T14:04:55Z</time>
      </trkpt>
      <trkpt lat="48.60141" lon="-3.1649">
        <ele>103</ele>
        <time>2012-11-16T14:05:00Z</time>
      </trkpt>
      <trkpt lat="48.60143" lon="-3.16478">
        <ele>103</ele>
        <time>2012-11-16T14:05:05Z</time>
      </trkpt>
      <trkpt lat="48.60145" lon="-3.16468">
        <ele>103</ele>
        <time>2012-11-16T14:05:10Z</time>
      </trkpt>
      <trkpt lat="48.60147" lon="-3.16457">
        <ele>103</ele>
        <time>2012-11-16T14:05:15Z</time>
      </trkpt>
      <trkpt lat="48.60148" lon="-3.16444">
        <ele>103</ele>
        <time>2012-11-16T14:05:20Z</time>
      </trkpt>
      <trkpt lat="48.60149" lon="-3.16433">
        <ele>103</ele>
        <time>2012-11-16T14:05:25Z</time>
      </trkpt>
      <trkpt lat="48.60151" lon="-3.16422">
        <ele>103</ele>
        <time>2012-11-16T14:05:30Z</time>
      </trkpt>
      <trkpt lat="48.60153" lon="-3.16412">
        <ele>103</ele>
        <time>2012-11-16T14:05:35Z</time>
      </trkpt>
      <trkpt lat="48.60155" lon="-3.16401">
        <ele>103</ele>
        <time>2012-11-16T14:05:40Z</time>
      </trkpt>
      <trkpt lat="48.60157" lon="-3.16389">
        <ele>103</ele>
        <time>2012-11-16T14:05:45Z</time>
      </trkpt>
      <trkpt lat="48.60157" lon="-3.16377">
        <ele>103</ele>
        <time>2012-11-16T14:05:50Z</time>
      </trkpt>
      <trkpt lat="48.60157" lon="-3.16367">
        <ele>103</ele>
        <time>2012-11-16T14:05:55Z</time>
      </trkpt>
      <trkpt lat="48.60158" lon="-3.16357">
        <ele>103</ele>
        <time>2012-11-16T14:06:00Z</time>
      </trkpt>
      <trkpt lat="48.6016" lon="-3.16347">
        <ele>102</ele>
        <time>2012-11-16T14:06:05Z</time>
      </trkpt>
      <trkpt lat="48.60162" lon="-3.16337">
        <ele>101</ele>
        <time>2012-11-16T14:06:10Z</time>
      </trkpt>
      <trkpt lat="48.60163" lon="-3.16326">
        <ele>99</ele>
        <time>2012-11-16T14:06:15Z</time>
      </trkpt>
      <trkpt lat="48.60164" lon="-3.16314">
        <ele>99</ele>
        <time>2012-11-16T14:06:20Z</time>
      </trkpt>
      <trkpt lat="48.60162" lon="-3.16304">
        <ele>99</ele>
        <time>2012-11-16T14:06:25Z</time>
      </trkpt>
      <trkpt lat="48.60163" lon="-3.16293">
        <ele>99</ele>
        <time>2012-11-16T14:06:30Z</time>
      </trkpt>
      <trkpt lat="48.60168" lon="-3.16282">
        <ele>99</ele>
        <time>2012-11-16T14:06:35Z</time>
      </trkpt>
      <trkpt lat="48.60173" lon="-3.16272">
        <ele>99</ele>
        <time>2012-11-16T14:06:41Z</time>
      </trkpt>
      <trkpt lat="48.60175" lon="-3.16262">
        <ele>99</ele>
        <time>2012-11-16T14:06:46Z</time>
      </trkpt>
      <trkpt lat="48.60178" lon="-3.16252">
        <ele>99</ele>
        <time>2012-11-16T14:06:52Z</time>
      </trkpt>
      <trkpt lat="48.60181" lon="-3.16244">
        <ele>99</ele>
        <time>2012-11-16T14:06:57Z</time>
      </trkpt>
      <trkpt lat="48.60185" lon="-3.16234">
        <ele>98</ele>
        <time>2012-11-16T14:07:02Z</time>
      </trkpt>
      <trkpt lat="48.60187" lon="-3.16222">
        <ele>98</ele>
        <time>2012-11-16T14:07:07Z</time>
      </trkpt>
      <trkpt lat="48.60189" lon="-3.16213">
        <ele>98</ele>
        <time>2012-11-16T14:07:12Z</time>
      </trkpt>
      <trkpt lat="48.60191" lon="-3.16206">
        <ele>98</ele>
        <time>2012-11-16T14:07:17Z</time>
      </trkpt>
      <trkpt lat="48.60193" lon="-3.16195">
        <ele>96</ele>
        <time>2012-11-16T14:07:22Z</time>
      </trkpt>
      <trkpt lat="48.60196" lon="-3.1618">
        <ele>95</ele>
        <time>2012-11-16T14:07:27Z</time>
      </trkpt>
      <trkpt lat="48.60197" lon="-3.16166">
        <ele>95</ele>
        <time>2012-11-16T14:07:32Z</time>
      </trkpt>
      <trkpt lat="48.60197" lon="-3.16155">
        <ele>95</ele>
        <time>2012-11-16T14:07:37Z</time>
      </trkpt>
      <trkpt lat="48.60197" lon="-3.16143">
        <ele>95</ele>
        <time>2012-11-16T14:07:42Z</time>
      </trkpt>
      <trkpt lat="48.60198" lon="-3.16131">
        <ele>96</ele>
        <time>2012-11-16T14:07:47Z</time>
      </trkpt>
      <trkpt lat="48.60197" lon="-3.16118">
        <ele>96</ele>
        <time>2012-11-16T14:07:52Z</time>
      </trkpt>
      <trkpt lat="48.60195" lon="-3.16107">
        <ele>96</ele>
        <time>2012-11-16T14:07:57Z</time>
      </trkpt>
      <trkpt lat="48.6019" lon="-3.16098">
        <ele>96</ele>
        <time>2012-11-16T14:08:02Z</time>
      </trkpt>
      <trkpt lat="48.60185" lon="-3.16092">
        <ele>96</ele>
        <time>2012-11-16T14:08:07Z</time>
      </trkpt>
      <trkpt lat="48.6018" lon="-3.16084">
        <ele>96</ele>
        <time>2012-11-16T14:08:12Z</time>
      </trkpt>
      <trkpt lat="48.60176" lon="-3.16074">
        <ele>96</ele>
        <time>2012-11-16T14:08:17Z</time>
      </trkpt>
      <trkpt lat="48.60172" lon="-3.16066">
        <ele>96</ele>
        <time>2012-11-16T14:08:22Z</time>
      </trkpt>
      <trkpt lat="48.60167" lon="-3.16058">
        <ele>96</ele>
        <time>2012-11-16T14:08:27Z</time>
      </trkpt>
      <trkpt lat="48.60161" lon="-3.16049">
        <ele>99</ele>
        <time>2012-11-16T14:08:32Z</time>
      </trkpt>
      <trkpt lat="48.60155" lon="-3.16042">
        <ele>99</ele>
        <time>2012-11-16T14:08:38Z</time>
      </trkpt>
      <trkpt lat="48.6015" lon="-3.16035">
        <ele>99</ele>
        <time>2012-11-16T14:08:44Z</time>
      </trkpt>
      <trkpt lat="48.60145" lon="-3.16028">
        <ele>97</ele>
        <time>2012-11-16T14:08:50Z</time>
      </trkpt>
      <trkpt lat="48.60143" lon="-3.16017">
        <ele>96</ele>
        <time>2012-11-16T14:08:55Z</time>
      </trkpt>
      <trkpt lat="48.60139" lon="-3.16001">
        <ele>96</ele>
        <time>2012-11-16T14:09:00Z</time>
      </trkpt>
      <trkpt lat="48.60135" lon="-3.15992">
        <ele>96</ele>
        <time>2012-11-16T14:09:05Z</time>
      </trkpt>
      <trkpt lat="48.6013" lon="-3.15983">
        <ele>96</ele>
        <time>2012-11-16T14:09:10Z</time>
      </trkpt>
      <trkpt lat="48.60125" lon="-3.15969">
        <ele>96</ele>
        <time>2012-11-16T14:09:15Z</time>
      </trkpt>
      <trkpt lat="48.60121" lon="-3.15959">
        <ele>96</ele>
        <time>2012-11-16T14:09:20Z</time>
      </trkpt>
      <trkpt lat="48.60118" lon="-3.1595">
        <ele>96</ele>
        <time>2012-11-16T14:09:26Z</time>
      </trkpt>
      <trkpt lat="48.60116" lon="-3.15942">
        <ele>96</ele>
        <time>2012-11-16T14:09:31Z</time>
      </trkpt>
      <trkpt lat="48.60114" lon="-3.15934">
        <ele>96</ele>
        <time>2012-11-16T14:09:37Z</time>
      </trkpt>
      <trkpt lat="48.6011" lon="-3.15924">
        <ele>96</ele>
        <time>2012-11-16T14:09:43Z</time>
      </trkpt>
      <trkpt lat="48.60108" lon="-3.15916">
        <ele>96</ele>
        <time>2012-11-16T14:09:48Z</time>
      </trkpt>
      <trkpt lat="48.60106" lon="-3.1591">
        <ele>93</ele>
        <time>2012-11-16T14:09:53Z</time>
      </trkpt>
      <trkpt lat="48.60103" lon="-3.15902">
        <ele>91</ele>
        <time>2012-11-16T14:09:58Z</time>
      </trkpt>
      <trkpt lat="48.601" lon="-3.15891">
        <ele>91</ele>
        <time>2012-11-16T14:10:03Z</time>
      </trkpt>
      <trkpt lat="48.60099" lon="-3.15878">
        <ele>91</ele>
        <time>2012-11-16T14:10:09Z</time>
      </trkpt>
      <trkpt lat="48.60097" lon="-3.15868">
        <ele>91</ele>
        <time>2012-11-16T14:10:14Z</time>
      </trkpt>
      <trkpt lat="48.60094" lon="-3.15853">
        <ele>91</ele>
        <time>2012-11-16T14:10:19Z</time>
      </trkpt>
      <trkpt lat="48.60092" lon="-3.1584">
        <ele>91</ele>
        <time>2012-11-16T14:10:24Z</time>
      </trkpt>
      <trkpt lat="48.60092" lon="-3.15828">
        <ele>91</ele>
        <time>2012-11-16T14:10:29Z</time>
      </trkpt>
      <trkpt lat="48.6009" lon="-3.15817">
        <ele>91</ele>
        <time>2012-11-16T14:10:34Z</time>
      </trkpt>
      <trkpt lat="48.60089" lon="-3.15806">
        <ele>91</ele>
        <time>2012-11-16T14:10:39Z</time>
      </trkpt>
      <trkpt lat="48.60089" lon="-3.15796">
        <ele>91</ele>
        <time>2012-11-16T14:10:44Z</time>
      </trkpt>
      <trkpt lat="48.60089" lon="-3.15786">
        <ele>91</ele>
        <time>2012-11-16T14:10:49Z</time>
      </trkpt>
      <trkpt lat="48.6009" lon="-3.15774">
        <ele>91</ele>
        <time>2012-11-16T14:10:54Z</time>
      </trkpt>
      <trkpt lat="48.60091" lon="-3.15763">
        <ele>91</ele>
        <time>2012-11-16T14:10:59Z</time>
      </trkpt>
      <trkpt lat="48.60091" lon="-3.15754">
        <ele>91</ele>
        <time>2012-11-16T14:11:04Z</time>
      </trkpt>
      <trkpt lat="48.60089" lon="-3.15741">
        <ele>91</ele>
        <time>2012-11-16T14:11:09Z</time>
      </trkpt>
      <trkpt lat="48.60089" lon="-3.15728">
        <ele>91</ele>
        <time>2012-11-16T14:11:14Z</time>
      </trkpt>
      <trkpt lat="48.60089" lon="-3.15715">
        <ele>91</ele>
        <time>2012-11-16T14:11:19Z</time>
      </trkpt>
      <trkpt lat="48.60088" lon="-3.15703">
        <ele>92</ele>
        <time>2012-11-16T14:11:24Z</time>
      </trkpt>
      <trkpt lat="48.60087" lon="-3.15692">
        <ele>93</ele>
        <time>2012-11-16T14:11:29Z</time>
      </trkpt>
      <trkpt lat="48.60087" lon="-3.15682">
        <ele>93</ele>
        <time>2012-11-16T14:11:34Z</time>
      </trkpt>
      <trkpt lat="48.60089" lon="-3.15671">
        <ele>93</ele>
        <time>2012-11-16T14:11:39Z</time>
      </trkpt>
      <trkpt lat="48.60089" lon="-3.15659">
        <ele>93</ele>
        <time>2012-11-16T14:11:44Z</time>
      </trkpt>
      <trkpt lat="48.6009" lon="-3.15648">
        <ele>93</ele>
        <time>2012-11-16T14:11:49Z</time>
      </trkpt>
      <trkpt lat="48.60092" lon="-3.15638">
        <ele>93</ele>
        <time>2012-11-16T14:11:54Z</time>
      </trkpt>
      <trkpt lat="48.60094" lon="-3.15627">
        <ele>93</ele>
        <time>2012-11-16T14:11:59Z</time>
      </trkpt>
      <trkpt lat="48.60096" lon="-3.15616">
        <ele>93</ele>
        <time>2012-11-16T14:12:04Z</time>
      </trkpt>
      <trkpt lat="48.60098" lon="-3.15605">
        <ele>93</ele>
        <time>2012-11-16T14:12:09Z</time>
      </trkpt>
      <trkpt lat="48.60098" lon="-3.15593">
        <ele>93</ele>
        <time>2012-11-16T14:12:14Z</time>
      </trkpt>
      <trkpt lat="48.60099" lon="-3.15582">
        <ele>93</ele>
        <time>2012-11-16T14:12:19Z</time>
      </trkpt>
      <trkpt lat="48.60099" lon="-3.15572">
        <ele>93</ele>
        <time>2012-11-16T14:12:24Z</time>
      </trkpt>
      <trkpt lat="48.60098" lon="-3.15562">
        <ele>93</ele>
        <time>2012-11-16T14:12:29Z</time>
      </trkpt>
      <trkpt lat="48.60098" lon="-3.15551">
        <ele>93</ele>
        <time>2012-11-16T14:12:34Z</time>
      </trkpt>
      <trkpt lat="48.60096" lon="-3.15541">
        <ele>93</ele>
        <time>2012-11-16T14:12:39Z</time>
      </trkpt>
      <trkpt lat="48.60096" lon="-3.15529">
        <ele>93</ele>
        <time>2012-11-16T14:12:44Z</time>
      </trkpt>
      <trkpt lat="48.60097" lon="-3.15519">
        <ele>93</ele>
        <time>2012-11-16T14:12:49Z</time>
      </trkpt>
      <trkpt lat="48.60096" lon="-3.15507">
        <ele>93</ele>
        <time>2012-11-16T14:12:55Z</time>
      </trkpt>
      <trkpt lat="48.60093" lon="-3.15493">
        <ele>93</ele>
        <time>2012-11-16T14:13:01Z</time>
      </trkpt>
      <trkpt lat="48.60089" lon="-3.15481">
        <ele>93</ele>
        <time>2012-11-16T14:13:06Z</time>
      </trkpt>
      <trkpt lat="48.60087" lon="-3.1547">
        <ele>93</ele>
        <time>2012-11-16T14:13:12Z</time>
      </trkpt>
      <trkpt lat="48.60085" lon="-3.15459">
        <ele>93</ele>
        <time>2012-11-16T14:13:17Z</time>
      </trkpt>
      <trkpt lat="48.60081" lon="-3.15449">
        <ele>93</ele>
        <time>2012-11-16T14:13:22Z</time>
      </trkpt>
      <trkpt lat="48.60078" lon="-3.1544">
        <ele>93</ele>
        <time>2012-11-16T14:13:27Z</time>
      </trkpt>
      <trkpt lat="48.60074" lon="-3.1543">
        <ele>93</ele>
        <time>2012-11-16T14:13:32Z</time>
      </trkpt>
      <trkpt lat="48.60072" lon="-3.15419">
        <ele>93</ele>
        <time>2012-11-16T14:13:37Z</time>
      </trkpt>
      <trkpt lat="48.60069" lon="-3.15409">
        <ele>93</ele>
        <time>2012-11-16T14:13:42Z</time>
      </trkpt>
      <trkpt lat="48.60067" lon="-3.15399">
        <ele>93</ele>
        <time>2012-11-16T14:13:47Z</time>
      </trkpt>
      <trkpt lat="48.60063" lon="-3.15387">
        <ele>93</ele>
        <time>2012-11-16T14:13:52Z</time>
      </trkpt>
      <trkpt lat="48.60059" lon="-3.15376">
        <ele>93</ele>
        <time>2012-11-16T14:13:57Z</time>
      </trkpt>
      <trkpt lat="48.60055" lon="-3.15367">
        <ele>93</ele>
        <time>2012-11-16T14:14:02Z</time>
      </trkpt>
      <trkpt lat="48.6005" lon="-3.15356">
        <ele>93</ele>
        <time>2012-11-16T14:14:08Z</time>
      </trkpt>
      <trkpt lat="48.60047" lon="-3.15347">
        <ele>93</ele>
        <time>2012-11-16T14:14:13Z</time>
      </trkpt>
      <trkpt lat="48.60045" lon="-3.15339">
        <ele>93</ele>
        <time>2012-11-16T14:14:18Z</time>
      </trkpt>
      <trkpt lat="48.60041" lon="-3.1533">
        <ele>93</ele>
        <time>2012-11-16T14:14:23Z</time>
      </trkpt>
      <trkpt lat="48.60038" lon="-3.15321">
        <ele>93</ele>
        <time>2012-11-16T14:14:28Z</time>
      </trkpt>
      <trkpt lat="48.60034" lon="-3.15311">
        <ele>93</ele>
        <time>2012-11-16T14:14:34Z</time>
      </trkpt>
      <trkpt lat="48.60031" lon="-3.15301">
        <ele>93</ele>
        <time>2012-11-16T14:14:40Z</time>
      </trkpt>
      <trkpt lat="48.60028" lon="-3.15293">
        <ele>93</ele>
        <time>2012-11-16T14:14:45Z</time>
      </trkpt>
      <trkpt lat="48.60025" lon="-3.15284">
        <ele>93</ele>
        <time>2012-11-16T14:14:51Z</time>
      </trkpt>
      <trkpt lat="48.60021" lon="-3.15275">
        <ele>93</ele>
        <time>2012-11-16T14:14:57Z</time>
      </trkpt>
      <trkpt lat="48.60018" lon="-3.15267">
        <ele>93</ele>
        <time>2012-11-16T14:15:02Z</time>
      </trkpt>
      <trkpt lat="48.60015" lon="-3.15257">
        <ele>93</ele>
        <time>2012-11-16T14:15:07Z</time>
      </trkpt>
      <trkpt lat="48.60012" lon="-3.15247">
        <ele>93</ele>
        <time>2012-11-16T14:15:12Z</time>
      </trkpt>
      <trkpt lat="48.6001" lon="-3.1524">
        <ele>93</ele>
        <time>2012-11-16T14:15:17Z</time>
      </trkpt>
      <trkpt lat="48.60008" lon="-3.1523">
        <ele>93</ele>
        <time>2012-11-16T14:15:22Z</time>
      </trkpt>
      <trkpt lat="48.60005" lon="-3.15221">
        <ele>93</ele>
        <time>2012-11-16T14:15:27Z</time>
      </trkpt>
      <trkpt lat="48.60002" lon="-3.15213">
        <ele>93</ele>
        <time>2012-11-16T14:15:33Z</time>
      </trkpt>
      <trkpt lat="48.6" lon="-3.15205">
        <ele>93</ele>
        <time>2012-11-16T14:15:38Z</time>
      </trkpt>
      <trkpt lat="48.59997" lon="-3.15195">
        <ele>93</ele>
        <time>2012-11-16T14:15:44Z</time>
      </trkpt>
      <trkpt lat="48.59995" lon="-3.15185">
        <ele>93</ele>
        <time>2012-11-16T14:15:49Z</time>
      </trkpt>
      <trkpt lat="48.59993" lon="-3.15175">
        <ele>93</ele>
        <time>2012-11-16T14:15:54Z</time>
      </trkpt>
      <trkpt lat="48.5999" lon="-3.15166">
        <ele>93</ele>
        <time>2012-11-16T14:16:00Z</time>
      </trkpt>
      <trkpt lat="48.59987" lon="-3.15154">
        <ele>93</ele>
        <time>2012-11-16T14:16:05Z</time>
      </trkpt>
      <trkpt lat="48.59983" lon="-3.15144">
        <ele>93</ele>
        <time>2012-11-16T14:16:10Z</time>
      </trkpt>
      <trkpt lat="48.5998" lon="-3.15136">
        <ele>93</ele>
        <time>2012-11-16T14:16:15Z</time>
      </trkpt>
      <trkpt lat="48.59977" lon="-3.15128">
        <ele>93</ele>
        <time>2012-11-16T14:16:20Z</time>
      </trkpt>
      <trkpt lat="48.59972" lon="-3.15118">
        <ele>93</ele>
        <time>2012-11-16T14:16:26Z</time>
      </trkpt>
      <trkpt lat="48.59966" lon="-3.15111">
        <ele>93</ele>
        <time>2012-11-16T14:16:31Z</time>
      </trkpt>
      <trkpt lat="48.59961" lon="-3.15106">
        <ele>93</ele>
        <time>2012-11-16T14:16:36Z</time>
      </trkpt>
      <trkpt lat="48.59953" lon="-3.15101">
        <ele>93</ele>
        <time>2012-11-16T14:16:42Z</time>
      </trkpt>
      <trkpt lat="48.59947" lon="-3.15098">
        <ele>93</ele>
        <time>2012-11-16T14:16:47Z</time>
      </trkpt>
      <trkpt lat="48.5994" lon="-3.15096">
        <ele>93</ele>
        <time>2012-11-16T14:16:52Z</time>
      </trkpt>
      <trkpt lat="48.59933" lon="-3.15096">
        <ele>93</ele>
        <time>2012-11-16T14:16:57Z</time>
      </trkpt>
      <trkpt lat="48.59924" lon="-3.15094">
        <ele>93</ele>
        <time>2012-11-16T14:17:03Z</time>
      </trkpt>
      <trkpt lat="48.59917" lon="-3.1509">
        <ele>93</ele>
        <time>2012-11-16T14:17:08Z</time>
      </trkpt>
      <trkpt lat="48.5991" lon="-3.15087">
        <ele>94</ele>
        <time>2012-11-16T14:17:13Z</time>
      </trkpt>
      <trkpt lat="48.59903" lon="-3.15083">
        <ele>94</ele>
        <time>2012-11-16T14:17:18Z</time>
      </trkpt>
      <trkpt lat="48.59896" lon="-3.15078">
        <ele>94</ele>
        <time>2012-11-16T14:17:23Z</time>
      </trkpt>
      <trkpt lat="48.59888" lon="-3.15075">
        <ele>94</ele>
        <time>2012-11-16T14:17:28Z</time>
      </trkpt>
      <trkpt lat="48.5988" lon="-3.15068">
        <ele>94</ele>
        <time>2012-11-16T14:17:34Z</time>
      </trkpt>
      <trkpt lat="48.59873" lon="-3.15063">
        <ele>94</ele>
        <time>2012-11-16T14:17:39Z</time>
      </trkpt>
      <trkpt lat="48.59866" lon="-3.15058">
        <ele>94</ele>
        <time>2012-11-16T14:17:44Z</time>
      </trkpt>
      <trkpt lat="48.5986" lon="-3.15055">
        <ele>94</ele>
        <time>2012-11-16T14:17:49Z</time>
      </trkpt>
      <trkpt lat="48.59853" lon="-3.1505">
        <ele>94</ele>
        <time>2012-11-16T14:17:54Z</time>
      </trkpt>
      <trkpt lat="48.59845" lon="-3.15044">
        <ele>92</ele>
        <time>2012-11-16T14:18:00Z</time>
      </trkpt>
      <trkpt lat="48.59838" lon="-3.15039">
        <ele>92</ele>
        <time>2012-11-16T14:18:05Z</time>
      </trkpt>
      <trkpt lat="48.59831" lon="-3.15034">
        <ele>92</ele>
        <time>2012-11-16T14:18:10Z</time>
      </trkpt>
      <trkpt lat="48.59824" lon="-3.15029">
        <ele>92</ele>
        <time>2012-11-16T14:18:15Z</time>
      </trkpt>
      <trkpt lat="48.59817" lon="-3.15023">
        <ele>92</ele>
        <time>2012-11-16T14:18:20Z</time>
      </trkpt>
      <trkpt lat="48.5981" lon="-3.15018">
        <ele>92</ele>
        <time>2012-11-16T14:18:25Z</time>
      </trkpt>
      <trkpt lat="48.59802" lon="-3.15012">
        <ele>92</ele>
        <time>2012-11-16T14:18:30Z</time>
      </trkpt>
      <trkpt lat="48.59794" lon="-3.15011">
        <ele>92</ele>
        <time>2012-11-16T14:18:35Z</time>
      </trkpt>
      <trkpt lat="48.59785" lon="-3.15009">
        <ele>92</ele>
        <time>2012-11-16T14:18:41Z</time>
      </trkpt>
      <trkpt lat="48.59777" lon="-3.15007">
        <ele>92</ele>
        <time>2012-11-16T14:18:46Z</time>
      </trkpt>
      <trkpt lat="48.59771" lon="-3.15005">
        <ele>92</ele>
        <time>2012-11-16T14:18:51Z</time>
      </trkpt>
      <trkpt lat="48.59764" lon="-3.15005">
        <ele>92</ele>
        <time>2012-11-16T14:18:56Z</time>
      </trkpt>
      <trkpt lat="48.59756" lon="-3.15008">
        <ele>91</ele>
        <time>2012-11-16T14:19:01Z</time>
      </trkpt>
      <trkpt lat="48.59747" lon="-3.15011">
        <ele>91</ele>
        <time>2012-11-16T14:19:06Z</time>
      </trkpt>
      <trkpt lat="48.59738" lon="-3.15013">
        <ele>91</ele>
        <time>2012-11-16T14:19:11Z</time>
      </trkpt>
      <trkpt lat="48.59731" lon="-3.1501">
        <ele>91</ele>
        <time>2012-11-16T14:19:16Z</time>
      </trkpt>
      <trkpt lat="48.59724" lon="-3.15005">
        <ele>90</ele>
        <time>2012-11-16T14:19:21Z</time>
      </trkpt>
      <trkpt lat="48.59716" lon="-3.15">
        <ele>90</ele>
        <time>2012-11-16T14:19:26Z</time>
      </trkpt>
      <trkpt lat="48.59708" lon="-3.14994">
        <ele>90</ele>
        <time>2012-11-16T14:19:32Z</time>
      </trkpt>
      <trkpt lat="48.59701" lon="-3.1499">
        <ele>90</ele>
        <time>2012-11-16T14:19:37Z</time>
      </trkpt>
      <trkpt lat="48.59693" lon="-3.14987">
        <ele>90</ele>
        <time>2012-11-16T14:19:42Z</time>
      </trkpt>
      <trkpt lat="48.59686" lon="-3.14983">
        <ele>90</ele>
        <time>2012-11-16T14:19:47Z</time>
      </trkpt>
      <trkpt lat="48.59678" lon="-3.14981">
        <ele>90</ele>
        <time>2012-11-16T14:19:52Z</time>
      </trkpt>
      <trkpt lat="48.59671" lon="-3.14979">
        <ele>90</ele>
        <time>2012-11-16T14:19:58Z</time>
      </trkpt>
      <trkpt lat="48.59663" lon="-3.1498">
        <ele>90</ele>
        <time>2012-11-16T14:20:03Z</time>
      </trkpt>
      <trkpt lat="48.59656" lon="-3.14984">
        <ele>89</ele>
        <time>2012-11-16T14:20:08Z</time>
      </trkpt>
      <trkpt lat="48.59649" lon="-3.14988">
        <ele>88</ele>
        <time>2012-11-16T14:20:13Z</time>
      </trkpt>
      <trkpt lat="48.59641" lon="-3.14989">
        <ele>87</ele>
        <time>2012-11-16T14:20:18Z</time>
      </trkpt>
      <trkpt lat="48.59633" lon="-3.14989">
        <ele>87</ele>
        <time>2012-11-16T14:20:23Z</time>
      </trkpt>
      <trkpt lat="48.59627" lon="-3.14984">
        <ele>87</ele>
        <time>2012-11-16T14:20:28Z</time>
      </trkpt>
      <trkpt lat="48.59621" lon="-3.1498">
        <ele>87</ele>
        <time>2012-11-16T14:20:33Z</time>
      </trkpt>
      <trkpt lat="48.59615" lon="-3.14975">
        <ele>86</ele>
        <time>2012-11-16T14:20:38Z</time>
      </trkpt>
      <trkpt lat="48.5961" lon="-3.14967">
        <ele>85</ele>
        <time>2012-11-16T14:20:43Z</time>
      </trkpt>
      <trkpt lat="48.59602" lon="-3.14959">
        <ele>85</ele>
        <time>2012-11-16T14:20:49Z</time>
      </trkpt>
      <trkpt lat="48.59597" lon="-3.14953">
        <ele>85</ele>
        <time>2012-11-16T14:20:54Z</time>
      </trkpt>
      <trkpt lat="48.59592" lon="-3.14951">
        <ele>82</ele>
        <time>2012-11-16T14:20:59Z</time>
      </trkpt>
      <trkpt lat="48.59585" lon="-3.14947">
        <ele>81</ele>
        <time>2012-11-16T14:21:04Z</time>
      </trkpt>
      <trkpt lat="48.59579" lon="-3.14944">
        <ele>81</ele>
        <time>2012-11-16T14:21:09Z</time>
      </trkpt>
      <trkpt lat="48.59571" lon="-3.14936">
        <ele>81</ele>
        <time>2012-11-16T14:21:16Z</time>
      </trkpt>
      <trkpt lat="48.59567" lon="-3.14931">
        <ele>81</ele>
        <time>2012-11-16T14:21:21Z</time>
      </trkpt>
      <trkpt lat="48.59563" lon="-3.14926">
        <ele>77</ele>
        <time>2012-11-16T14:21:26Z</time>
      </trkpt>
      <trkpt lat="48.59557" lon="-3.14919">
        <ele>76</ele>
        <time>2012-11-16T14:21:32Z</time>
      </trkpt>
      <trkpt lat="48.59551" lon="-3.14915">
        <ele>75</ele>
        <time>2012-11-16T14:21:37Z</time>
      </trkpt>
      <trkpt lat="48.59544" lon="-3.14909">
        <ele>74</ele>
        <time>2012-11-16T14:21:42Z</time>
      </trkpt>
      <trkpt lat="48.59539" lon="-3.14904">
        <ele>74</ele>
        <time>2012-11-16T14:21:47Z</time>
      </trkpt>
      <trkpt lat="48.59534" lon="-3.14903">
        <ele>74</ele>
        <time>2012-11-16T14:21:52Z</time>
      </trkpt>
      <trkpt lat="48.59527" lon="-3.14898">
        <ele>74</ele>
        <time>2012-11-16T14:21:57Z</time>
      </trkpt>
      <trkpt lat="48.5952" lon="-3.14896">
        <ele>72</ele>
        <time>2012-11-16T14:22:02Z</time>
      </trkpt>
      <trkpt lat="48.59511" lon="-3.14891">
        <ele>69</ele>
        <time>2012-11-16T14:22:08Z</time>
      </trkpt>
      <trkpt lat="48.59505" lon="-3.14888">
        <ele>67</ele>
        <time>2012-11-16T14:22:13Z</time>
      </trkpt>
      <trkpt lat="48.59497" lon="-3.14886">
        <ele>67</ele>
        <time>2012-11-16T14:22:18Z</time>
      </trkpt>
      <trkpt lat="48.59491" lon="-3.14885">
        <ele>67</ele>
        <time>2012-11-16T14:22:24Z</time>
      </trkpt>
      <trkpt lat="48.59486" lon="-3.1489">
        <ele>67</ele>
        <time>2012-11-16T14:22:29Z</time>
      </trkpt>
      <trkpt lat="48.59481" lon="-3.14893">
        <ele>67</ele>
        <time>2012-11-16T14:22:35Z</time>
      </trkpt>
      <trkpt lat="48.59477" lon="-3.14893">
        <ele>67</ele>
        <time>2012-11-16T14:22:40Z</time>
      </trkpt>
      <trkpt lat="48.5947" lon="-3.14895">
        <ele>67</ele>
        <time>2012-11-16T14:22:45Z</time>
      </trkpt>
      <trkpt lat="48.59463" lon="-3.14898">
        <ele>67</ele>
        <time>2012-11-16T14:22:50Z</time>
      </trkpt>
      <trkpt lat="48.59454" lon="-3.14902">
        <ele>66</ele>
        <time>2012-11-16T14:22:56Z</time>
      </trkpt>
      <trkpt lat="48.59449" lon="-3.14903">
        <ele>65</ele>
        <time>2012-11-16T14:23:01Z</time>
      </trkpt>
      <trkpt lat="48.59445" lon="-3.14904">
        <ele>65</ele>
        <time>2012-11-16T14:23:06Z</time>
      </trkpt>
      <trkpt lat="48.59439" lon="-3.14903">
        <ele>65</ele>
        <time>2012-11-16T14:23:12Z</time>
      </trkpt>
      <trkpt lat="48.59432" lon="-3.14905">
        <ele>63</ele>
        <time>2012-11-16T14:23:17Z</time>
      </trkpt>
      <trkpt lat="48.59426" lon="-3.14904">
        <ele>61</ele>
        <time>2012-11-16T14:23:22Z</time>
      </trkpt>
      <trkpt lat="48.59418" lon="-3.14902">
        <ele>61</ele>
        <time>2012-11-16T14:23:27Z</time>
      </trkpt>
      <trkpt lat="48.59412" lon="-3.14897">
        <ele>61</ele>
        <time>2012-11-16T14:23:32Z</time>
      </trkpt>
      <trkpt lat="48.59402" lon="-3.14901">
        <ele>61</ele>
        <time>2012-11-16T14:23:38Z</time>
      </trkpt>
      <trkpt lat="48.59395" lon="-3.14901">
        <ele>59</ele>
        <time>2012-11-16T14:23:43Z</time>
      </trkpt>
      <trkpt lat="48.59388" lon="-3.14903">
        <ele>57</ele>
        <time>2012-11-16T14:23:49Z</time>
      </trkpt>
      <trkpt lat="48.59383" lon="-3.14903">
        <ele>57</ele>
        <time>2012-11-16T14:23:54Z</time>
      </trkpt>
      <trkpt lat="48.59379" lon="-3.149">
        <ele>56</ele>
        <time>2012-11-16T14:23:59Z</time>
      </trkpt>
      <trkpt lat="48.59376" lon="-3.14894">
        <ele>54</ele>
        <time>2012-11-16T14:24:04Z</time>
      </trkpt>
      <trkpt lat="48.59371" lon="-3.1489">
        <ele>53</ele>
        <time>2012-11-16T14:24:09Z</time>
      </trkpt>
      <trkpt lat="48.59363" lon="-3.14885">
        <ele>53</ele>
        <time>2012-11-16T14:24:14Z</time>
      </trkpt>
      <trkpt lat="48.59358" lon="-3.14876">
        <ele>53</ele>
        <time>2012-11-16T14:24:20Z</time>
      </trkpt>
      <trkpt lat="48.59352" lon="-3.14871">
        <ele>53</ele>
        <time>2012-11-16T14:24:25Z</time>
      </trkpt>
      <trkpt lat="48.59345" lon="-3.14867">
        <ele>53</ele>
        <time>2012-11-16T14:24:31Z</time>
      </trkpt>
      <trkpt lat="48.5934" lon="-3.14865">
        <ele>53</ele>
        <time>2012-11-16T14:24:37Z</time>
      </trkpt>
      <trkpt lat="48.59333" lon="-3.14863">
        <ele>54</ele>
        <time>2012-11-16T14:24:42Z</time>
      </trkpt>
      <trkpt lat="48.59324" lon="-3.14859">
        <ele>54</ele>
        <time>2012-11-16T14:24:47Z</time>
      </trkpt>
      <trkpt lat="48.59315" lon="-3.14858">
        <ele>54</ele>
        <time>2012-11-16T14:24:52Z</time>
      </trkpt>
      <trkpt lat="48.59308" lon="-3.14853">
        <ele>53</ele>
        <time>2012-11-16T14:24:58Z</time>
      </trkpt>
      <trkpt lat="48.59301" lon="-3.14849">
        <ele>51</ele>
        <time>2012-11-16T14:25:04Z</time>
      </trkpt>
      <trkpt lat="48.59294" lon="-3.14844">
        <ele>50</ele>
        <time>2012-11-16T14:25:09Z</time>
      </trkpt>
      <trkpt lat="48.59287" lon="-3.14838">
        <ele>49</ele>
        <time>2012-11-16T14:25:15Z</time>
      </trkpt>
      <trkpt lat="48.5928" lon="-3.14835">
        <ele>48</ele>
        <time>2012-11-16T14:25:20Z</time>
      </trkpt>
      <trkpt lat="48.59273" lon="-3.14832">
        <ele>48</ele>
        <time>2012-11-16T14:25:25Z</time>
      </trkpt>
      <trkpt lat="48.59266" lon="-3.14827">
        <ele>48</ele>
        <time>2012-11-16T14:25:30Z</time>
      </trkpt>
      <trkpt lat="48.59261" lon="-3.14825">
        <ele>48</ele>
        <time>2012-11-16T14:25:35Z</time>
      </trkpt>
      <trkpt lat="48.59256" lon="-3.14822">
        <ele>48</ele>
        <time>2012-11-16T14:25:40Z</time>
      </trkpt>
      <trkpt lat="48.59249" lon="-3.14819">
        <ele>48</ele>
        <time>2012-11-16T14:25:45Z</time>
      </trkpt>
      <trkpt lat="48.59241" lon="-3.1482">
        <ele>48</ele>
        <time>2012-11-16T14:25:50Z</time>
      </trkpt>
      <trkpt lat="48.59234" lon="-3.14819">
        <ele>48</ele>
        <time>2012-11-16T14:25:55Z</time>
      </trkpt>
      <trkpt lat="48.59227" lon="-3.14818">
        <ele>48</ele>
        <time>2012-11-16T14:26:00Z</time>
      </trkpt>
      <trkpt lat="48.59222" lon="-3.14816">
        <ele>48</ele>
        <time>2012-11-16T14:26:05Z</time>
      </trkpt>
      <trkpt lat="48.59214" lon="-3.14814">
        <ele>48</ele>
        <time>2012-11-16T14:26:10Z</time>
      </trkpt>
      <trkpt lat="48.59206" lon="-3.14815">
        <ele>48</ele>
        <time>2012-11-16T14:26:15Z</time>
      </trkpt>
      <trkpt lat="48.59198" lon="-3.14814">
        <ele>48</ele>
        <time>2012-11-16T14:26:20Z</time>
      </trkpt>
      <trkpt lat="48.5919" lon="-3.14813">
        <ele>48</ele>
        <time>2012-11-16T14:26:25Z</time>
      </trkpt>
      <trkpt lat="48.59183" lon="-3.14813">
        <ele>48</ele>
        <time>2012-11-16T14:26:31Z</time>
      </trkpt>
      <trkpt lat="48.59176" lon="-3.14817">
        <ele>48</ele>
        <time>2012-11-16T14:26:37Z</time>
      </trkpt>
      <trkpt lat="48.59168" lon="-3.14819">
        <ele>48</ele>
        <time>2012-11-16T14:26:42Z</time>
      </trkpt>
      <trkpt lat="48.59162" lon="-3.14817">
        <ele>48</ele>
        <time>2012-11-16T14:26:47Z</time>
      </trkpt>
      <trkpt lat="48.59154" lon="-3.14814">
        <ele>48</ele>
        <time>2012-11-16T14:26:53Z</time>
      </trkpt>
      <trkpt lat="48.59145" lon="-3.14816">
        <ele>48</ele>
        <time>2012-11-16T14:26:58Z</time>
      </trkpt>
      <trkpt lat="48.59138" lon="-3.14816">
        <ele>48</ele>
        <time>2012-11-16T14:27:03Z</time>
      </trkpt>
      <trkpt lat="48.59133" lon="-3.14815">
        <ele>48</ele>
        <time>2012-11-16T14:27:08Z</time>
      </trkpt>
      <trkpt lat="48.59125" lon="-3.14816">
        <ele>47</ele>
        <time>2012-11-16T14:27:13Z</time>
      </trkpt>
      <trkpt lat="48.59117" lon="-3.14818">
        <ele>47</ele>
        <time>2012-11-16T14:27:18Z</time>
      </trkpt>
      <trkpt lat="48.59108" lon="-3.14824">
        <ele>47</ele>
        <time>2012-11-16T14:27:23Z</time>
      </trkpt>
      <trkpt lat="48.59101" lon="-3.14826">
        <ele>47</ele>
        <time>2012-11-16T14:27:28Z</time>
      </trkpt>
      <trkpt lat="48.59094" lon="-3.14827">
        <ele>47</ele>
        <time>2012-11-16T14:27:33Z</time>
      </trkpt>
      <trkpt lat="48.59087" lon="-3.14828">
        <ele>47</ele>
        <time>2012-11-16T14:27:38Z</time>
      </trkpt>
      <trkpt lat="48.59078" lon="-3.14826">
        <ele>47</ele>
        <time>2012-11-16T14:27:43Z</time>
      </trkpt>
      <trkpt lat="48.59071" lon="-3.14826">
        <ele>47</ele>
        <time>2012-11-16T14:27:48Z</time>
      </trkpt>
      <trkpt lat="48.59063" lon="-3.14829">
        <ele>47</ele>
        <time>2012-11-16T14:27:53Z</time>
      </trkpt>
      <trkpt lat="48.59056" lon="-3.14833">
        <ele>47</ele>
        <time>2012-11-16T14:27:58Z</time>
      </trkpt>
      <trkpt lat="48.5905" lon="-3.14836">
        <ele>46</ele>
        <time>2012-11-16T14:28:03Z</time>
      </trkpt>
      <trkpt lat="48.59044" lon="-3.14838">
        <ele>46</ele>
        <time>2012-11-16T14:28:08Z</time>
      </trkpt>
      <trkpt lat="48.59036" lon="-3.14841">
        <ele>46</ele>
        <time>2012-11-16T14:28:13Z</time>
      </trkpt>
      <trkpt lat="48.5903" lon="-3.14845">
        <ele>46</ele>
        <time>2012-11-16T14:28:18Z</time>
      </trkpt>
      <trkpt lat="48.59023" lon="-3.1485">
        <ele>46</ele>
        <time>2012-11-16T14:28:23Z</time>
      </trkpt>
      <trkpt lat="48.59015" lon="-3.14854">
        <ele>46</ele>
        <time>2012-11-16T14:28:29Z</time>
      </trkpt>
      <trkpt lat="48.59009" lon="-3.14857">
        <ele>46</ele>
        <time>2012-11-16T14:28:34Z</time>
      </trkpt>
      <trkpt lat="48.59001" lon="-3.14862">
        <ele>46</ele>
        <time>2012-11-16T14:28:39Z</time>
      </trkpt>
      <trkpt lat="48.58994" lon="-3.14867">
        <ele>46</ele>
        <time>2012-11-16T14:28:44Z</time>
      </trkpt>
      <trkpt lat="48.58988" lon="-3.14874">
        <ele>46</ele>
        <time>2012-11-16T14:28:49Z</time>
      </trkpt>
      <trkpt lat="48.58985" lon="-3.14886">
        <ele>46</ele>
        <time>2012-11-16T14:28:54Z</time>
      </trkpt>
      <trkpt lat="48.58984" lon="-3.14897">
        <ele>46</ele>
        <time>2012-11-16T14:28:59Z</time>
      </trkpt>
      <trkpt lat="48.58984" lon="-3.14909">
        <ele>46</ele>
        <time>2012-11-16T14:29:04Z</time>
      </trkpt>
      <trkpt lat="48.58983" lon="-3.14919">
        <ele>46</ele>
        <time>2012-11-16T14:29:09Z</time>
      </trkpt>
      <trkpt lat="48.58983" lon="-3.1493">
        <ele>46</ele>
        <time>2012-11-16T14:29:14Z</time>
      </trkpt>
      <trkpt lat="48.58981" lon="-3.1494">
        <ele>46</ele>
        <time>2012-11-16T14:29:19Z</time>
      </trkpt>
      <trkpt lat="48.5898" lon="-3.14951">
        <ele>46</ele>
        <time>2012-11-16T14:29:24Z</time>
      </trkpt>
      <trkpt lat="48.58979" lon="-3.14962">
        <ele>46</ele>
        <time>2012-11-16T14:29:29Z</time>
      </trkpt>
      <trkpt lat="48.58978" lon="-3.14972">
        <ele>48</ele>
        <time>2012-11-16T14:29:34Z</time>
      </trkpt>
      <trkpt lat="48.58978" lon="-3.14983">
        <ele>49</ele>
        <time>2012-11-16T14:29:39Z</time>
      </trkpt>
      <trkpt lat="48.58977" lon="-3.14993">
        <ele>50</ele>
        <time>2012-11-16T14:29:44Z</time>
      </trkpt>
      <trkpt lat="48.58977" lon="-3.15005">
        <ele>51</ele>
        <time>2012-11-16T14:29:49Z</time>
      </trkpt>
      <trkpt lat="48.58977" lon="-3.15016">
        <ele>51</ele>
        <time>2012-11-16T14:29:54Z</time>
      </trkpt>
      <trkpt lat="48.58976" lon="-3.15024">
        <ele>52</ele>
        <time>2012-11-16T14:29:59Z</time>
      </trkpt>
      <trkpt lat="48.58975" lon="-3.15033">
        <ele>54</ele>
        <time>2012-11-16T14:30:04Z</time>
      </trkpt>
      <trkpt lat="48.58973" lon="-3.15044">
        <ele>55</ele>
        <time>2012-11-16T14:30:09Z</time>
      </trkpt>
      <trkpt lat="48.58971" lon="-3.15054">
        <ele>56</ele>
        <time>2012-11-16T14:30:14Z</time>
      </trkpt>
      <trkpt lat="48.5897" lon="-3.15062">
        <ele>56</ele>
        <time>2012-11-16T14:30:19Z</time>
      </trkpt>
      <trkpt lat="48.58972" lon="-3.15074">
        <ele>56</ele>
        <time>2012-11-16T14:30:24Z</time>
      </trkpt>
      <trkpt lat="48.58973" lon="-3.15085">
        <ele>56</ele>
        <time>2012-11-16T14:30:29Z</time>
      </trkpt>
      <trkpt lat="48.58977" lon="-3.15094">
        <ele>59</ele>
        <time>2012-11-16T14:30:34Z</time>
      </trkpt>
      <trkpt lat="48.58982" lon="-3.151">
        <ele>59</ele>
        <time>2012-11-16T14:30:39Z</time>
      </trkpt>
      <trkpt lat="48.58989" lon="-3.15104">
        <ele>59</ele>
        <time>2012-11-16T14:30:44Z</time>
      </trkpt>
      <trkpt lat="48.58996" lon="-3.15106">
        <ele>59</ele>
        <time>2012-11-16T14:30:49Z</time>
      </trkpt>
      <trkpt lat="48.59003" lon="-3.15108">
        <ele>59</ele>
        <time>2012-11-16T14:30:54Z</time>
      </trkpt>
      <trkpt lat="48.59009" lon="-3.15109">
        <ele>60</ele>
        <time>2012-11-16T14:30:59Z</time>
      </trkpt>
      <trkpt lat="48.59017" lon="-3.1511">
        <ele>60</ele>
        <time>2012-11-16T14:31:04Z</time>
      </trkpt>
      <trkpt lat="48.59025" lon="-3.15112">
        <ele>61</ele>
        <time>2012-11-16T14:31:09Z</time>
      </trkpt>
      <trkpt lat="48.59033" lon="-3.1511">
        <ele>63</ele>
        <time>2012-11-16T14:31:14Z</time>
      </trkpt>
      <trkpt lat="48.5904" lon="-3.15109">
        <ele>63</ele>
        <time>2012-11-16T14:31:19Z</time>
      </trkpt>
      <trkpt lat="48.59049" lon="-3.15108">
        <ele>64</ele>
        <time>2012-11-16T14:31:24Z</time>
      </trkpt>
      <trkpt lat="48.59055" lon="-3.15107">
        <ele>65</ele>
        <time>2012-11-16T14:31:29Z</time>
      </trkpt>
      <trkpt lat="48.59062" lon="-3.15105">
        <ele>65</ele>
        <time>2012-11-16T14:31:34Z</time>
      </trkpt>
      <trkpt lat="48.59068" lon="-3.15104">
        <ele>65</ele>
        <time>2012-11-16T14:31:39Z</time>
      </trkpt>
      <trkpt lat="48.59075" lon="-3.15102">
        <ele>65</ele>
        <time>2012-11-16T14:31:44Z</time>
      </trkpt>
      <trkpt lat="48.59081" lon="-3.15099">
        <ele>65</ele>
        <time>2012-11-16T14:31:49Z</time>
      </trkpt>
      <trkpt lat="48.5909" lon="-3.15101">
        <ele>65</ele>
        <time>2012-11-16T14:31:54Z</time>
      </trkpt>
      <trkpt lat="48.59098" lon="-3.15099">
        <ele>66</ele>
        <time>2012-11-16T14:31:59Z</time>
      </trkpt>
      <trkpt lat="48.59104" lon="-3.15098">
        <ele>66</ele>
        <time>2012-11-16T14:32:04Z</time>
      </trkpt>
      <trkpt lat="48.59111" lon="-3.15098">
        <ele>66</ele>
        <time>2012-11-16T14:32:09Z</time>
      </trkpt>
      <trkpt lat="48.59117" lon="-3.15097">
        <ele>66</ele>
        <time>2012-11-16T14:32:14Z</time>
      </trkpt>
      <trkpt lat="48.59126" lon="-3.15097">
        <ele>66</ele>
        <time>2012-11-16T14:32:20Z</time>
      </trkpt>
      <trkpt lat="48.59133" lon="-3.15097">
        <ele>67</ele>
        <time>2012-11-16T14:32:25Z</time>
      </trkpt>
      <trkpt lat="48.59141" lon="-3.15095">
        <ele>69</ele>
        <time>2012-11-16T14:32:30Z</time>
      </trkpt>
      <trkpt lat="48.59148" lon="-3.15094">
        <ele>70</ele>
        <time>2012-11-16T14:32:35Z</time>
      </trkpt>
      <trkpt lat="48.59156" lon="-3.15092">
        <ele>70</ele>
        <time>2012-11-16T14:32:40Z</time>
      </trkpt>
      <trkpt lat="48.59164" lon="-3.15093">
        <ele>71</ele>
        <time>2012-11-16T14:32:45Z</time>
      </trkpt>
      <trkpt lat="48.59172" lon="-3.15096">
        <ele>71</ele>
        <time>2012-11-16T14:32:50Z</time>
      </trkpt>
      <trkpt lat="48.59178" lon="-3.15103">
        <ele>72</ele>
        <time>2012-11-16T14:32:56Z</time>
      </trkpt>
      <trkpt lat="48.59182" lon="-3.15112">
        <ele>72</ele>
        <time>2012-11-16T14:33:02Z</time>
      </trkpt>
      <trkpt lat="48.59185" lon="-3.1512">
        <ele>72</ele>
        <time>2012-11-16T14:33:07Z</time>
      </trkpt>
      <trkpt lat="48.59189" lon="-3.15129">
        <ele>72</ele>
        <time>2012-11-16T14:33:12Z</time>
      </trkpt>
      <trkpt lat="48.59193" lon="-3.15135">
        <ele>72</ele>
        <time>2012-11-16T14:33:17Z</time>
      </trkpt>
      <trkpt lat="48.59196" lon="-3.15144">
        <ele>72</ele>
        <time>2012-11-16T14:33:22Z</time>
      </trkpt>
      <trkpt lat="48.59197" lon="-3.15154">
        <ele>72</ele>
        <time>2012-11-16T14:33:27Z</time>
      </trkpt>
      <trkpt lat="48.59198" lon="-3.15163">
        <ele>72</ele>
        <time>2012-11-16T14:33:32Z</time>
      </trkpt>
      <trkpt lat="48.59199" lon="-3.15172">
        <ele>73</ele>
        <time>2012-11-16T14:33:37Z</time>
      </trkpt>
      <trkpt lat="48.59201" lon="-3.15181">
        <ele>73</ele>
        <time>2012-11-16T14:33:42Z</time>
      </trkpt>
      <trkpt lat="48.59202" lon="-3.15192">
        <ele>73</ele>
        <time>2012-11-16T14:33:47Z</time>
      </trkpt>
      <trkpt lat="48.59201" lon="-3.15201">
        <ele>73</ele>
        <time>2012-11-16T14:33:52Z</time>
      </trkpt>
      <trkpt lat="48.59201" lon="-3.15212">
        <ele>76</ele>
        <time>2012-11-16T14:33:57Z</time>
      </trkpt>
      <trkpt lat="48.592" lon="-3.15222">
        <ele>78</ele>
        <time>2012-11-16T14:34:02Z</time>
      </trkpt>
      <trkpt lat="48.59198" lon="-3.15231">
        <ele>78</ele>
        <time>2012-11-16T14:34:07Z</time>
      </trkpt>
      <trkpt lat="48.59198" lon="-3.15242">
        <ele>79</ele>
        <time>2012-11-16T14:34:12Z</time>
      </trkpt>
      <trkpt lat="48.59197" lon="-3.15249">
        <ele>79</ele>
        <time>2012-11-16T14:34:17Z</time>
      </trkpt>
      <trkpt lat="48.592" lon="-3.15255">
        <ele>80</ele>
        <time>2012-11-16T14:34:23Z</time>
      </trkpt>
      <trkpt lat="48.59205" lon="-3.15261">
        <ele>81</ele>
        <time>2012-11-16T14:34:29Z</time>
      </trkpt>
      <trkpt lat="48.59208" lon="-3.15269">
        <ele>83</ele>
        <time>2012-11-16T14:34:35Z</time>
      </trkpt>
      <trkpt lat="48.59211" lon="-3.15277">
        <ele>83</ele>
        <time>2012-11-16T14:34:40Z</time>
      </trkpt>
      <trkpt lat="48.59215" lon="-3.15284">
        <ele>85</ele>
        <time>2012-11-16T14:34:45Z</time>
      </trkpt>
      <trkpt lat="48.59221" lon="-3.15287">
        <ele>85</ele>
        <time>2012-11-16T14:34:51Z</time>
      </trkpt>
      <trkpt lat="48.59226" lon="-3.15291">
        <ele>86</ele>
        <time>2012-11-16T14:34:56Z</time>
      </trkpt>
      <trkpt lat="48.59233" lon="-3.15295">
        <ele>86</ele>
        <time>2012-11-16T14:35:01Z</time>
      </trkpt>
      <trkpt lat="48.59239" lon="-3.15295">
        <ele>86</ele>
        <time>2012-11-16T14:35:06Z</time>
      </trkpt>
      <trkpt lat="48.59242" lon="-3.15297">
        <ele>88</ele>
        <time>2012-11-16T14:35:20Z</time>
      </trkpt>
      <trkpt lat="48.59237" lon="-3.15294">
        <ele>88</ele>
        <time>2012-11-16T14:35:25Z</time>
      </trkpt>
      <trkpt lat="48.59231" lon="-3.15293">
        <ele>88</ele>
        <time>2012-11-16T14:35:31Z</time>
      </trkpt>
      <trkpt lat="48.59226" lon="-3.15289">
        <ele>88</ele>
        <time>2012-11-16T14:35:37Z</time>
      </trkpt>
      <trkpt lat="48.59221" lon="-3.15286">
        <ele>88</ele>
        <time>2012-11-16T14:35:42Z</time>
      </trkpt>
      <trkpt lat="48.59214" lon="-3.15282">
        <ele>88</ele>
        <time>2012-11-16T14:35:48Z</time>
      </trkpt>
      <trkpt lat="48.59209" lon="-3.15275">
        <ele>88</ele>
        <time>2012-11-16T14:35:53Z</time>
      </trkpt>
      <trkpt lat="48.59204" lon="-3.15266">
        <ele>86</ele>
        <time>2012-11-16T14:35:59Z</time>
      </trkpt>
      <trkpt lat="48.592" lon="-3.15258">
        <ele>85</ele>
        <time>2012-11-16T14:36:04Z</time>
      </trkpt>
      <trkpt lat="48.59193" lon="-3.15262">
        <ele>85</ele>
        <time>2012-11-16T14:36:09Z</time>
      </trkpt>
      <trkpt lat="48.59192" lon="-3.15274">
        <ele>83</ele>
        <time>2012-11-16T14:36:14Z</time>
      </trkpt>
      <trkpt lat="48.59189" lon="-3.15284">
        <ele>82</ele>
        <time>2012-11-16T14:36:19Z</time>
      </trkpt>
      <trkpt lat="48.59185" lon="-3.15294">
        <ele>82</ele>
        <time>2012-11-16T14:36:24Z</time>
      </trkpt>
      <trkpt lat="48.59183" lon="-3.15306">
        <ele>82</ele>
        <time>2012-11-16T14:36:29Z</time>
      </trkpt>
      <trkpt lat="48.5918" lon="-3.15317">
        <ele>82</ele>
        <time>2012-11-16T14:36:34Z</time>
      </trkpt>
      <trkpt lat="48.59178" lon="-3.15329">
        <ele>82</ele>
        <time>2012-11-16T14:36:39Z</time>
      </trkpt>
      <trkpt lat="48.59175" lon="-3.15338">
        <ele>82</ele>
        <time>2012-11-16T14:36:44Z</time>
      </trkpt>
      <trkpt lat="48.59172" lon="-3.15349">
        <ele>82</ele>
        <time>2012-11-16T14:36:49Z</time>
      </trkpt>
      <trkpt lat="48.5917" lon="-3.1536">
        <ele>82</ele>
        <time>2012-11-16T14:36:54Z</time>
      </trkpt>
      <trkpt lat="48.59166" lon="-3.15371">
        <ele>82</ele>
        <time>2012-11-16T14:36:59Z</time>
      </trkpt>
      <trkpt lat="48.59164" lon="-3.15382">
        <ele>82</ele>
        <time>2012-11-16T14:37:04Z</time>
      </trkpt>
      <trkpt lat="48.59162" lon="-3.15393">
        <ele>82</ele>
        <time>2012-11-16T14:37:09Z</time>
      </trkpt>
      <trkpt lat="48.59159" lon="-3.15403">
        <ele>82</ele>
        <time>2012-11-16T14:37:14Z</time>
      </trkpt>
      <trkpt lat="48.59157" lon="-3.15413">
        <ele>82</ele>
        <time>2012-11-16T14:37:19Z</time>
      </trkpt>
      <trkpt lat="48.59154" lon="-3.15423">
        <ele>82</ele>
        <time>2012-11-16T14:37:24Z</time>
      </trkpt>
      <trkpt lat="48.5915" lon="-3.15433">
        <ele>82</ele>
        <time>2012-11-16T14:37:29Z</time>
      </trkpt>
      <trkpt lat="48.59147" lon="-3.15443">
        <ele>82</ele>
        <time>2012-11-16T14:37:34Z</time>
      </trkpt>
      <trkpt lat="48.59145" lon="-3.15454">
        <ele>82</ele>
        <time>2012-11-16T14:37:39Z</time>
      </trkpt>
      <trkpt lat="48.59143" lon="-3.15463">
        <ele>83</ele>
        <time>2012-11-16T14:37:44Z</time>
      </trkpt>
      <trkpt lat="48.5914" lon="-3.15474">
        <ele>84</ele>
        <time>2012-11-16T14:37:49Z</time>
      </trkpt>
      <trkpt lat="48.59137" lon="-3.15483">
        <ele>85</ele>
        <time>2012-11-16T14:37:54Z</time>
      </trkpt>
      <trkpt lat="48.59135" lon="-3.15492">
        <ele>86</ele>
        <time>2012-11-16T14:37:59Z</time>
      </trkpt>
      <trkpt lat="48.59132" lon="-3.15502">
        <ele>87</ele>
        <time>2012-11-16T14:38:04Z</time>
      </trkpt>
      <trkpt lat="48.59129" lon="-3.15512">
        <ele>87</ele>
        <time>2012-11-16T14:38:09Z</time>
      </trkpt>
      <trkpt lat="48.59126" lon="-3.15522">
        <ele>89</ele>
        <time>2012-11-16T14:38:15Z</time>
      </trkpt>
      <trkpt lat="48.59128" lon="-3.15529">
        <ele>89</ele>
        <time>2012-11-16T14:38:21Z</time>
      </trkpt>
      <trkpt lat="48.59135" lon="-3.15533">
        <ele>89</ele>
        <time>2012-11-16T14:38:27Z</time>
      </trkpt>
      <trkpt lat="48.5914" lon="-3.15537">
        <ele>89</ele>
        <time>2012-11-16T14:38:32Z</time>
      </trkpt>
      <trkpt lat="48.59146" lon="-3.15543">
        <ele>92</ele>
        <time>2012-11-16T14:38:37Z</time>
      </trkpt>
      <trkpt lat="48.59152" lon="-3.15547">
        <ele>93</ele>
        <time>2012-11-16T14:38:42Z</time>
      </trkpt>
      <trkpt lat="48.59159" lon="-3.15552">
        <ele>95</ele>
        <time>2012-11-16T14:38:47Z</time>
      </trkpt>
      <trkpt lat="48.59166" lon="-3.15557">
        <ele>97</ele>
        <time>2012-11-16T14:38:52Z</time>
      </trkpt>
      <trkpt lat="48.59172" lon="-3.1556">
        <ele>99</ele>
        <time>2012-11-16T14:38:57Z</time>
      </trkpt>
      <trkpt lat="48.59179" lon="-3.15563">
        <ele>99</ele>
        <time>2012-11-16T14:39:02Z</time>
      </trkpt>
      <trkpt lat="48.59186" lon="-3.15567">
        <ele>99</ele>
        <time>2012-11-16T14:39:07Z</time>
      </trkpt>
      <trkpt lat="48.59193" lon="-3.15571">
        <ele>99</ele>
        <time>2012-11-16T14:39:12Z</time>
      </trkpt>
      <trkpt lat="48.592" lon="-3.15575">
        <ele>99</ele>
        <time>2012-11-16T14:39:17Z</time>
      </trkpt>
      <trkpt lat="48.59206" lon="-3.15579">
        <ele>99</ele>
        <time>2012-11-16T14:39:22Z</time>
      </trkpt>
      <trkpt lat="48.59213" lon="-3.15583">
        <ele>99</ele>
        <time>2012-11-16T14:39:27Z</time>
      </trkpt>
      <trkpt lat="48.5922" lon="-3.15587">
        <ele>99</ele>
        <time>2012-11-16T14:39:33Z</time>
      </trkpt>
      <trkpt lat="48.59227" lon="-3.15595">
        <ele>99</ele>
        <time>2012-11-16T14:39:38Z</time>
      </trkpt>
      <trkpt lat="48.59233" lon="-3.15601">
        <ele>99</ele>
        <time>2012-11-16T14:39:43Z</time>
      </trkpt>
      <trkpt lat="48.59239" lon="-3.15606">
        <ele>99</ele>
        <time>2012-11-16T14:39:48Z</time>
      </trkpt>
      <trkpt lat="48.59247" lon="-3.15613">
        <ele>99</ele>
        <time>2012-11-16T14:39:54Z</time>
      </trkpt>
      <trkpt lat="48.59254" lon="-3.1562">
        <ele>99</ele>
        <time>2012-11-16T14:40:00Z</time>
      </trkpt>
      <trkpt lat="48.59259" lon="-3.15627">
        <ele>99</ele>
        <time>2012-11-16T14:40:06Z</time>
      </trkpt>
      <trkpt lat="48.59266" lon="-3.15634">
        <ele>99</ele>
        <time>2012-11-16T14:40:12Z</time>
      </trkpt>
      <trkpt lat="48.5927" lon="-3.15639">
        <ele>99</ele>
        <time>2012-11-16T14:40:17Z</time>
      </trkpt>
      <trkpt lat="48.59276" lon="-3.15644">
        <ele>99</ele>
        <time>2012-11-16T14:40:23Z</time>
      </trkpt>
      <trkpt lat="48.59284" lon="-3.15649">
        <ele>99</ele>
        <time>2012-11-16T14:40:28Z</time>
      </trkpt>
      <trkpt lat="48.5929" lon="-3.15653">
        <ele>99</ele>
        <time>2012-11-16T14:40:34Z</time>
      </trkpt>
      <trkpt lat="48.59295" lon="-3.15659">
        <ele>99</ele>
        <time>2012-11-16T14:40:39Z</time>
      </trkpt>
      <trkpt lat="48.59302" lon="-3.15666">
        <ele>100</ele>
        <time>2012-11-16T14:40:44Z</time>
      </trkpt>
      <trkpt lat="48.59306" lon="-3.15672">
        <ele>100</ele>
        <time>2012-11-16T14:40:49Z</time>
      </trkpt>
      <trkpt lat="48.5931" lon="-3.15678">
        <ele>100</ele>
        <time>2012-11-16T14:40:55Z</time>
      </trkpt>
      <trkpt lat="48.59316" lon="-3.15681">
        <ele>97</ele>
        <time>2012-11-16T14:41:01Z</time>
      </trkpt>
      <trkpt lat="48.59316" lon="-3.1569">
        <ele>93</ele>
        <time>2012-11-16T14:41:06Z</time>
      </trkpt>
      <trkpt lat="48.59317" lon="-3.15698">
        <ele>89</ele>
        <time>2012-11-16T14:41:11Z</time>
      </trkpt>
      <trkpt lat="48.5932" lon="-3.157">
        <ele>83</ele>
        <time>2012-11-16T14:41:17Z</time>
      </trkpt>
      <trkpt lat="48.59324" lon="-3.15703">
        <ele>81</ele>
        <time>2012-11-16T14:41:22Z</time>
      </trkpt>
      <trkpt lat="48.59327" lon="-3.15706">
        <ele>79</ele>
        <time>2012-11-16T14:41:27Z</time>
      </trkpt>
      <trkpt lat="48.59331" lon="-3.1571">
        <ele>78</ele>
        <time>2012-11-16T14:41:32Z</time>
      </trkpt>
      <trkpt lat="48.59335" lon="-3.15715">
        <ele>78</ele>
        <time>2012-11-16T14:41:37Z</time>
      </trkpt>
      <trkpt lat="48.59339" lon="-3.15723">
        <ele>78</ele>
        <time>2012-11-16T14:41:42Z</time>
      </trkpt>
      <trkpt lat="48.59344" lon="-3.15725">
        <ele>78</ele>
        <time>2012-11-16T14:41:47Z</time>
      </trkpt>
      <trkpt lat="48.59351" lon="-3.15732">
        <ele>79</ele>
        <time>2012-11-16T14:41:53Z</time>
      </trkpt>
      <trkpt lat="48.59358" lon="-3.15737">
        <ele>81</ele>
        <time>2012-11-16T14:42:00Z</time>
      </trkpt>
      <trkpt lat="48.59364" lon="-3.15742">
        <ele>81</ele>
        <time>2012-11-16T14:42:05Z</time>
      </trkpt>
      <trkpt lat="48.59371" lon="-3.15747">
        <ele>84</ele>
        <time>2012-11-16T14:42:11Z</time>
      </trkpt>
      <trkpt lat="48.59376" lon="-3.15749">
        <ele>85</ele>
        <time>2012-11-16T14:42:16Z</time>
      </trkpt>
      <trkpt lat="48.59379" lon="-3.15754">
        <ele>86</ele>
        <time>2012-11-16T14:42:22Z</time>
      </trkpt>
      <trkpt lat="48.59383" lon="-3.15758">
        <ele>86</ele>
        <time>2012-11-16T14:42:29Z</time>
      </trkpt>
      <trkpt lat="48.59388" lon="-3.15762">
        <ele>86</ele>
        <time>2012-11-16T14:42:34Z</time>
      </trkpt>
      <trkpt lat="48.59397" lon="-3.15772">
        <ele>86</ele>
        <time>2012-11-16T14:42:40Z</time>
      </trkpt>
      <trkpt lat="48.59405" lon="-3.15772">
        <ele>87</ele>
        <time>2012-11-16T14:42:45Z</time>
      </trkpt>
      <trkpt lat="48.59414" lon="-3.1578">
        <ele>88</ele>
        <time>2012-11-16T14:42:51Z</time>
      </trkpt>
      <trkpt lat="48.59422" lon="-3.15784">
        <ele>92</ele>
        <time>2012-11-16T14:42:56Z</time>
      </trkpt>
      <trkpt lat="48.5943" lon="-3.15787">
        <ele>94</ele>
        <time>2012-11-16T14:43:01Z</time>
      </trkpt>
      <trkpt lat="48.59437" lon="-3.15787">
        <ele>94</ele>
        <time>2012-11-16T14:43:07Z</time>
      </trkpt>
      <trkpt lat="48.59444" lon="-3.15791">
        <ele>97</ele>
        <time>2012-11-16T14:43:12Z</time>
      </trkpt>
      <trkpt lat="48.59453" lon="-3.15794">
        <ele>98</ele>
        <time>2012-11-16T14:43:17Z</time>
      </trkpt>
      <trkpt lat="48.5946" lon="-3.15799">
        <ele>98</ele>
        <time>2012-11-16T14:43:22Z</time>
      </trkpt>
      <trkpt lat="48.59467" lon="-3.15803">
        <ele>98</ele>
        <time>2012-11-16T14:43:27Z</time>
      </trkpt>
      <trkpt lat="48.59474" lon="-3.15809">
        <ele>98</ele>
        <time>2012-11-16T14:43:32Z</time>
      </trkpt>
      <trkpt lat="48.5948" lon="-3.15815">
        <ele>98</ele>
        <time>2012-11-16T14:43:37Z</time>
      </trkpt>
      <trkpt lat="48.59486" lon="-3.15821">
        <ele>98</ele>
        <time>2012-11-16T14:43:42Z</time>
      </trkpt>
      <trkpt lat="48.59493" lon="-3.15829">
        <ele>98</ele>
        <time>2012-11-16T14:43:47Z</time>
      </trkpt>
      <trkpt lat="48.59499" lon="-3.15835">
        <ele>98</ele>
        <time>2012-11-16T14:43:52Z</time>
      </trkpt>
      <trkpt lat="48.59506" lon="-3.15841">
        <ele>98</ele>
        <time>2012-11-16T14:43:57Z</time>
      </trkpt>
      <trkpt lat="48.59512" lon="-3.15847">
        <ele>98</ele>
        <time>2012-11-16T14:44:02Z</time>
      </trkpt>
      <trkpt lat="48.59518" lon="-3.15853">
        <ele>98</ele>
        <time>2012-11-16T14:44:07Z</time>
      </trkpt>
      <trkpt lat="48.59525" lon="-3.15859">
        <ele>98</ele>
        <time>2012-11-16T14:44:12Z</time>
      </trkpt>
      <trkpt lat="48.59531" lon="-3.15865">
        <ele>98</ele>
        <time>2012-11-16T14:44:17Z</time>
      </trkpt>
      <trkpt lat="48.59537" lon="-3.15872">
        <ele>98</ele>
        <time>2012-11-16T14:44:22Z</time>
      </trkpt>
      <trkpt lat="48.59544" lon="-3.1588">
        <ele>98</ele>
        <time>2012-11-16T14:44:28Z</time>
      </trkpt>
      <trkpt lat="48.59549" lon="-3.15887">
        <ele>98</ele>
        <time>2012-11-16T14:44:33Z</time>
      </trkpt>
      <trkpt lat="48.59556" lon="-3.15896">
        <ele>98</ele>
        <time>2012-11-16T14:44:39Z</time>
      </trkpt>
      <trkpt lat="48.59563" lon="-3.15906">
        <ele>99</ele>
        <time>2012-11-16T14:44:45Z</time>
      </trkpt>
      <trkpt lat="48.59568" lon="-3.15915">
        <ele>99</ele>
        <time>2012-11-16T14:44:50Z</time>
      </trkpt>
      <trkpt lat="48.59573" lon="-3.15925">
        <ele>99</ele>
        <time>2012-11-16T14:44:55Z</time>
      </trkpt>
      <trkpt lat="48.59576" lon="-3.15933">
        <ele>99</ele>
        <time>2012-11-16T14:45:00Z</time>
      </trkpt>
      <trkpt lat="48.59579" lon="-3.15941">
        <ele>99</ele>
        <time>2012-11-16T14:45:05Z</time>
      </trkpt>
      <trkpt lat="48.59584" lon="-3.15951">
        <ele>99</ele>
        <time>2012-11-16T14:45:10Z</time>
      </trkpt>
      <trkpt lat="48.59588" lon="-3.15961">
        <ele>99</ele>
        <time>2012-11-16T14:45:15Z</time>
      </trkpt>
      <trkpt lat="48.59592" lon="-3.15971">
        <ele>99</ele>
        <time>2012-11-16T14:45:20Z</time>
      </trkpt>
      <trkpt lat="48.59595" lon="-3.15981">
        <ele>99</ele>
        <time>2012-11-16T14:45:25Z</time>
      </trkpt>
      <trkpt lat="48.59598" lon="-3.1599">
        <ele>99</ele>
        <time>2012-11-16T14:45:30Z</time>
      </trkpt>
      <trkpt lat="48.59603" lon="-3.15999">
        <ele>99</ele>
        <time>2012-11-16T14:45:35Z</time>
      </trkpt>
      <trkpt lat="48.59606" lon="-3.16007">
        <ele>99</ele>
        <time>2012-11-16T14:45:40Z</time>
      </trkpt>
      <trkpt lat="48.59609" lon="-3.16016">
        <ele>99</ele>
        <time>2012-11-16T14:45:45Z</time>
      </trkpt>
      <trkpt lat="48.59613" lon="-3.16026">
        <ele>99</ele>
        <time>2012-11-16T14:45:50Z</time>
      </trkpt>
      <trkpt lat="48.59614" lon="-3.16037">
        <ele>99</ele>
        <time>2012-11-16T14:45:55Z</time>
      </trkpt>
      <trkpt lat="48.59613" lon="-3.16047">
        <ele>99</ele>
        <time>2012-11-16T14:46:00Z</time>
      </trkpt>
      <trkpt lat="48.59608" lon="-3.16057">
        <ele>99</ele>
        <time>2012-11-16T14:46:06Z</time>
      </trkpt>
      <trkpt lat="48.59602" lon="-3.16064">
        <ele>99</ele>
        <time>2012-11-16T14:46:11Z</time>
      </trkpt>
      <trkpt lat="48.59596" lon="-3.1607">
        <ele>100</ele>
        <time>2012-11-16T14:46:16Z</time>
      </trkpt>
      <trkpt lat="48.59589" lon="-3.16075">
        <ele>101</ele>
        <time>2012-11-16T14:46:21Z</time>
      </trkpt>
      <trkpt lat="48.59582" lon="-3.16081">
        <ele>103</ele>
        <time>2012-11-16T14:46:26Z</time>
      </trkpt>
      <trkpt lat="48.59577" lon="-3.16089">
        <ele>103</ele>
        <time>2012-11-16T14:46:31Z</time>
      </trkpt>
      <trkpt lat="48.59573" lon="-3.16097">
        <ele>103</ele>
        <time>2012-11-16T14:46:36Z</time>
      </trkpt>
      <trkpt lat="48.59569" lon="-3.16106">
        <ele>103</ele>
        <time>2012-11-16T14:46:41Z</time>
      </trkpt>
      <trkpt lat="48.59566" lon="-3.16118">
        <ele>103</ele>
        <time>2012-11-16T14:46:46Z</time>
      </trkpt>
      <trkpt lat="48.59564" lon="-3.16129">
        <ele>103</ele>
        <time>2012-11-16T14:46:51Z</time>
      </trkpt>
      <trkpt lat="48.59562" lon="-3.16141">
        <ele>103</ele>
        <time>2012-11-16T14:46:56Z</time>
      </trkpt>
      <trkpt lat="48.59562" lon="-3.16153">
        <ele>103</ele>
        <time>2012-11-16T14:47:01Z</time>
      </trkpt>
      <trkpt lat="48.59561" lon="-3.16165">
        <ele>103</ele>
        <time>2012-11-16T14:47:06Z</time>
      </trkpt>
      <trkpt lat="48.59559" lon="-3.16177">
        <ele>103</ele>
        <time>2012-11-16T14:47:11Z</time>
      </trkpt>
      <trkpt lat="48.59557" lon="-3.1619">
        <ele>103</ele>
        <time>2012-11-16T14:47:16Z</time>
      </trkpt>
      <trkpt lat="48.59555" lon="-3.16201">
        <ele>103</ele>
        <time>2012-11-16T14:47:21Z</time>
      </trkpt>
      <trkpt lat="48.59553" lon="-3.16212">
        <ele>103</ele>
        <time>2012-11-16T14:47:26Z</time>
      </trkpt>
      <trkpt lat="48.59551" lon="-3.16224">
        <ele>103</ele>
        <time>2012-11-16T14:47:31Z</time>
      </trkpt>
      <trkpt lat="48.5955" lon="-3.16236">
        <ele>104</ele>
        <time>2012-11-16T14:47:36Z</time>
      </trkpt>
      <trkpt lat="48.59548" lon="-3.16246">
        <ele>104</ele>
        <time>2012-11-16T14:47:41Z</time>
      </trkpt>
      <trkpt lat="48.59546" lon="-3.16258">
        <ele>105</ele>
        <time>2012-11-16T14:47:46Z</time>
      </trkpt>
      <trkpt lat="48.59545" lon="-3.16269">
        <ele>106</ele>
        <time>2012-11-16T14:47:51Z</time>
      </trkpt>
      <trkpt lat="48.59544" lon="-3.16279">
        <ele>106</ele>
        <time>2012-11-16T14:47:56Z</time>
      </trkpt>
      <trkpt lat="48.59543" lon="-3.16289">
        <ele>106</ele>
        <time>2012-11-16T14:48:01Z</time>
      </trkpt>
      <trkpt lat="48.5954" lon="-3.16299">
        <ele>107</ele>
        <time>2012-11-16T14:48:06Z</time>
      </trkpt>
      <trkpt lat="48.59538" lon="-3.16309">
        <ele>108</ele>
        <time>2012-11-16T14:48:11Z</time>
      </trkpt>
      <trkpt lat="48.59536" lon="-3.1632">
        <ele>108</ele>
        <time>2012-11-16T14:48:16Z</time>
      </trkpt>
      <trkpt lat="48.59533" lon="-3.1633">
        <ele>108</ele>
        <time>2012-11-16T14:48:21Z</time>
      </trkpt>
      <trkpt lat="48.59531" lon="-3.1634">
        <ele>108</ele>
        <time>2012-11-16T14:48:26Z</time>
      </trkpt>
      <trkpt lat="48.59526" lon="-3.1635">
        <ele>108</ele>
        <time>2012-11-16T14:48:31Z</time>
      </trkpt>
      <trkpt lat="48.59522" lon="-3.16357">
        <ele>109</ele>
        <time>2012-11-16T14:48:36Z</time>
      </trkpt>
      <trkpt lat="48.59516" lon="-3.16363">
        <ele>109</ele>
        <time>2012-11-16T14:48:41Z</time>
      </trkpt>
      <trkpt lat="48.5951" lon="-3.16368">
        <ele>109</ele>
        <time>2012-11-16T14:48:46Z</time>
      </trkpt>
      <trkpt lat="48.59503" lon="-3.16375">
        <ele>110</ele>
        <time>2012-11-16T14:48:51Z</time>
      </trkpt>
      <trkpt lat="48.59496" lon="-3.16378">
        <ele>110</ele>
        <time>2012-11-16T14:48:56Z</time>
      </trkpt>
      <trkpt lat="48.5949" lon="-3.16383">
        <ele>110</ele>
        <time>2012-11-16T14:49:01Z</time>
      </trkpt>
      <trkpt lat="48.59483" lon="-3.16389">
        <ele>110</ele>
        <time>2012-11-16T14:49:06Z</time>
      </trkpt>
      <trkpt lat="48.59477" lon="-3.16392">
        <ele>110</ele>
        <time>2012-11-16T14:49:11Z</time>
      </trkpt>
      <trkpt lat="48.59471" lon="-3.16397">
        <ele>110</ele>
        <time>2012-11-16T14:49:16Z</time>
      </trkpt>
      <trkpt lat="48.59464" lon="-3.16402">
        <ele>110</ele>
        <time>2012-11-16T14:49:21Z</time>
      </trkpt>
      <trkpt lat="48.59458" lon="-3.16408">
        <ele>110</ele>
        <time>2012-11-16T14:49:26Z</time>
      </trkpt>
      <trkpt lat="48.59452" lon="-3.16413">
        <ele>110</ele>
        <time>2012-11-16T14:49:31Z</time>
      </trkpt>
      <trkpt lat="48.59447" lon="-3.16418">
        <ele>110</ele>
        <time>2012-11-16T14:49:36Z</time>
      </trkpt>
      <trkpt lat="48.59444" lon="-3.1642">
        <ele>110</ele>
        <time>2012-11-16T14:49:42Z</time>
      </trkpt>
      <trkpt lat="48.5944" lon="-3.16422">
        <ele>110</ele>
        <time>2012-11-16T14:49:48Z</time>
      </trkpt>
      <trkpt lat="48.59435" lon="-3.16423">
        <ele>110</ele>
        <time>2012-11-16T14:49:54Z</time>
      </trkpt>
      <trkpt lat="48.59429" lon="-3.16426">
        <ele>110</ele>
        <time>2012-11-16T14:49:59Z</time>
      </trkpt>
      <trkpt lat="48.59423" lon="-3.1643">
        <ele>110</ele>
        <time>2012-11-16T14:50:04Z</time>
      </trkpt>
      <trkpt lat="48.59416" lon="-3.16433">
        <ele>110</ele>
        <time>2012-11-16T14:50:09Z</time>
      </trkpt>
      <trkpt lat="48.5941" lon="-3.16437">
        <ele>110</ele>
        <time>2012-11-16T14:50:14Z</time>
      </trkpt>
      <trkpt lat="48.59404" lon="-3.16441">
        <ele>110</ele>
        <time>2012-11-16T14:50:19Z</time>
      </trkpt>
      <trkpt lat="48.59397" lon="-3.16445">
        <ele>110</ele>
        <time>2012-11-16T14:50:24Z</time>
      </trkpt>
      <trkpt lat="48.5939" lon="-3.16449">
        <ele>110</ele>
        <time>2012-11-16T14:50:29Z</time>
      </trkpt>
      <trkpt lat="48.59384" lon="-3.16454">
        <ele>110</ele>
        <time>2012-11-16T14:50:34Z</time>
      </trkpt>
      <trkpt lat="48.59377" lon="-3.16458">
        <ele>110</ele>
        <time>2012-11-16T14:50:39Z</time>
      </trkpt>
      <trkpt lat="48.5937" lon="-3.16464">
        <ele>110</ele>
        <time>2012-11-16T14:50:44Z</time>
      </trkpt>
      <trkpt lat="48.59364" lon="-3.16469">
        <ele>110</ele>
        <time>2012-11-16T14:50:49Z</time>
      </trkpt>
      <trkpt lat="48.59359" lon="-3.16475">
        <ele>110</ele>
        <time>2012-11-16T14:50:54Z</time>
      </trkpt>
      <trkpt lat="48.59353" lon="-3.16479">
        <ele>110</ele>
        <time>2012-11-16T14:50:59Z</time>
      </trkpt>
      <trkpt lat="48.59347" lon="-3.16484">
        <ele>110</ele>
        <time>2012-11-16T14:51:04Z</time>
      </trkpt>
      <trkpt lat="48.59341" lon="-3.16491">
        <ele>111</ele>
        <time>2012-11-16T14:51:10Z</time>
      </trkpt>
      <trkpt lat="48.59336" lon="-3.16495">
        <ele>111</ele>
        <time>2012-11-16T14:51:15Z</time>
      </trkpt>
      <trkpt lat="48.59329" lon="-3.16498">
        <ele>111</ele>
        <time>2012-11-16T14:51:20Z</time>
      </trkpt>
      <trkpt lat="48.59322" lon="-3.16504">
        <ele>111</ele>
        <time>2012-11-16T14:51:25Z</time>
      </trkpt>
      <trkpt lat="48.59315" lon="-3.16508">
        <ele>112</ele>
        <time>2012-11-16T14:51:30Z</time>
      </trkpt>
      <trkpt lat="48.59308" lon="-3.16513">
        <ele>113</ele>
        <time>2012-11-16T14:51:35Z</time>
      </trkpt>
      <trkpt lat="48.59302" lon="-3.16516">
        <ele>113</ele>
        <time>2012-11-16T14:51:40Z</time>
      </trkpt>
      <trkpt lat="48.59295" lon="-3.16521">
        <ele>113</ele>
        <time>2012-11-16T14:51:45Z</time>
      </trkpt>
      <trkpt lat="48.59287" lon="-3.16523">
        <ele>114</ele>
        <time>2012-11-16T14:51:50Z</time>
      </trkpt>
      <trkpt lat="48.59281" lon="-3.16517">
        <ele>115</ele>
        <time>2012-11-16T14:51:55Z</time>
      </trkpt>
      <trkpt lat="48.5928" lon="-3.16507">
        <ele>116</ele>
        <time>2012-11-16T14:52:00Z</time>
      </trkpt>
      <trkpt lat="48.59281" lon="-3.16496">
        <ele>116</ele>
        <time>2012-11-16T14:52:05Z</time>
      </trkpt>
      <trkpt lat="48.59282" lon="-3.16487">
        <ele>116</ele>
        <time>2012-11-16T14:52:10Z</time>
      </trkpt>
      <trkpt lat="48.59283" lon="-3.16475">
        <ele>116</ele>
        <time>2012-11-16T14:52:15Z</time>
      </trkpt>
      <trkpt lat="48.59285" lon="-3.16464">
        <ele>116</ele>
        <time>2012-11-16T14:52:20Z</time>
      </trkpt>
      <trkpt lat="48.59285" lon="-3.16452">
        <ele>116</ele>
        <time>2012-11-16T14:52:25Z</time>
      </trkpt>
      <trkpt lat="48.59285" lon="-3.16439">
        <ele>116</ele>
        <time>2012-11-16T14:52:30Z</time>
      </trkpt>
      <trkpt lat="48.59286" lon="-3.16427">
        <ele>116</ele>
        <time>2012-11-16T14:52:35Z</time>
      </trkpt>
      <trkpt lat="48.59285" lon="-3.16415">
        <ele>116</ele>
        <time>2012-11-16T14:52:40Z</time>
      </trkpt>
      <trkpt lat="48.59286" lon="-3.16403">
        <ele>116</ele>
        <time>2012-11-16T14:52:45Z</time>
      </trkpt>
      <trkpt lat="48.59288" lon="-3.16393">
        <ele>116</ele>
        <time>2012-11-16T14:52:50Z</time>
      </trkpt>
      <trkpt lat="48.59288" lon="-3.16382">
        <ele>116</ele>
        <time>2012-11-16T14:52:55Z</time>
      </trkpt>
      <trkpt lat="48.59287" lon="-3.16372">
        <ele>117</ele>
        <time>2012-11-16T14:53:00Z</time>
      </trkpt>
      <trkpt lat="48.59286" lon="-3.1636">
        <ele>117</ele>
        <time>2012-11-16T14:53:05Z</time>
      </trkpt>
      <trkpt lat="48.59285" lon="-3.16348">
        <ele>117</ele>
        <time>2012-11-16T14:53:10Z</time>
      </trkpt>
      <trkpt lat="48.59283" lon="-3.16337">
        <ele>117</ele>
        <time>2012-11-16T14:53:15Z</time>
      </trkpt>
      <trkpt lat="48.59281" lon="-3.16326">
        <ele>117</ele>
        <time>2012-11-16T14:53:20Z</time>
      </trkpt>
      <trkpt lat="48.5928" lon="-3.16315">
        <ele>117</ele>
        <time>2012-11-16T14:53:25Z</time>
      </trkpt>
      <trkpt lat="48.59277" lon="-3.16304">
        <ele>117</ele>
        <time>2012-11-16T14:53:30Z</time>
      </trkpt>
      <trkpt lat="48.59275" lon="-3.16292">
        <ele>117</ele>
        <time>2012-11-16T14:53:35Z</time>
      </trkpt>
      <trkpt lat="48.59274" lon="-3.16281">
        <ele>117</ele>
        <time>2012-11-16T14:53:40Z</time>
      </trkpt>
      <trkpt lat="48.59272" lon="-3.1627">
        <ele>117</ele>
        <time>2012-11-16T14:53:45Z</time>
      </trkpt>
      <trkpt lat="48.5927" lon="-3.16259">
        <ele>117</ele>
        <time>2012-11-16T14:53:50Z</time>
      </trkpt>
      <trkpt lat="48.59268" lon="-3.16249">
        <ele>117</ele>
        <time>2012-11-16T14:53:55Z</time>
      </trkpt>
      <trkpt lat="48.59264" lon="-3.1624">
        <ele>117</ele>
        <time>2012-11-16T14:54:00Z</time>
      </trkpt>
      <trkpt lat="48.59262" lon="-3.1624">
        <ele>117</ele>
        <time>2012-11-16T14:54:40Z</time>
      </trkpt>
      <trkpt lat="48.59261" lon="-3.1624">
        <ele>117</ele>
        <time>2012-11-16T14:54:49Z</time>
      </trkpt>
      <trkpt lat="48.59262" lon="-3.1624">
        <ele>117</ele>
        <time>2012-11-16T14:55:00Z</time>
      </trkpt>
      <trkpt lat="48.59262" lon="-3.16238">
        <ele>117</ele>
        <time>2012-11-16T14:55:15Z</time>
      </trkpt>
      <trkpt lat="48.59261" lon="-3.16236">
        <ele>117</ele>
        <time>2012-11-16T14:55:24Z</time>
      </trkpt>
      <trkpt lat="48.5926" lon="-3.16235">
        <ele>117</ele>
        <time>2012-11-16T14:56:40Z</time>
      </trkpt>
      <trkpt lat="48.5926" lon="-3.16237">
        <ele>117</ele>
        <time>2012-11-16T14:57:31Z</time>
      </trkpt>
      <trkpt lat="48.59259" lon="-3.16238">
        <ele>117</ele>
        <time>2012-11-16T14:57:45Z</time>
      </trkpt>
      <trkpt lat="48.59261" lon="-3.16238">
        <ele>117</ele>
        <time>2012-11-16T14:58:09Z</time>
      </trkpt>
      <trkpt lat="48.59264" lon="-3.1624">
        <ele>117</ele>
        <time>2012-11-16T14:58:21Z</time>
      </trkpt>
      <trkpt lat="48.59264" lon="-3.16238">
        <ele>117</ele>
        <time>2012-11-16T14:58:34Z</time>
      </trkpt>
      <trkpt lat="48.59264" lon="-3.16238">
        <ele>117</ele>
        <time>2012-11-16T14:58:58Z</time>
      </trkpt>
      <trkpt lat="48.59262" lon="-3.16237">
        <ele>117</ele>
        <time>2012-11-16T14:59:15Z</time>
      </trkpt>
      <trkpt lat="48.59258" lon="-3.16232">
        <ele>117</ele>
        <time>2012-11-16T14:59:21Z</time>
      </trkpt>
      <trkpt lat="48.59254" lon="-3.16228">
        <ele>117</ele>
        <time>2012-11-16T14:59:26Z</time>
      </trkpt>
      <trkpt lat="48.59248" lon="-3.16222">
        <ele>117</ele>
        <time>2012-11-16T14:59:31Z</time>
      </trkpt>
      <trkpt lat="48.59242" lon="-3.16217">
        <ele>117</ele>
        <time>2012-11-16T14:59:36Z</time>
      </trkpt>
      <trkpt lat="48.59237" lon="-3.16214">
        <ele>117</ele>
        <time>2012-11-16T14:59:42Z</time>
      </trkpt>
      <trkpt lat="48.5923" lon="-3.16209">
        <ele>117</ele>
        <time>2012-11-16T14:59:48Z</time>
      </trkpt>
      <trkpt lat="48.59224" lon="-3.16204">
        <ele>117</ele>
        <time>2012-11-16T14:59:53Z</time>
      </trkpt>
      <trkpt lat="48.59217" lon="-3.16196">
        <ele>117</ele>
        <time>2012-11-16T14:59:59Z</time>
      </trkpt>
      <trkpt lat="48.59211" lon="-3.16188">
        <ele>117</ele>
        <time>2012-11-16T15:00:05Z</time>
      </trkpt>
      <trkpt lat="48.59204" lon="-3.16178">
        <ele>117</ele>
        <time>2012-11-16T15:00:12Z</time>
      </trkpt>
      <trkpt lat="48.59199" lon="-3.16168">
        <ele>117</ele>
        <time>2012-11-16T15:00:17Z</time>
      </trkpt>
      <trkpt lat="48.59192" lon="-3.16159">
        <ele>117</ele>
        <time>2012-11-16T15:00:23Z</time>
      </trkpt>
      <trkpt lat="48.59186" lon="-3.16147">
        <ele>117</ele>
        <time>2012-11-16T15:00:29Z</time>
      </trkpt>
      <trkpt lat="48.59181" lon="-3.16131">
        <ele>117</ele>
        <time>2012-11-16T15:00:34Z</time>
      </trkpt>
      <trkpt lat="48.59176" lon="-3.16121">
        <ele>117</ele>
        <time>2012-11-16T15:00:39Z</time>
      </trkpt>
      <trkpt lat="48.59172" lon="-3.16111">
        <ele>117</ele>
        <time>2012-11-16T15:00:44Z</time>
      </trkpt>
      <trkpt lat="48.59168" lon="-3.16099">
        <ele>117</ele>
        <time>2012-11-16T15:00:49Z</time>
      </trkpt>
      <trkpt lat="48.59164" lon="-3.16089">
        <ele>117</ele>
        <time>2012-11-16T15:00:54Z</time>
      </trkpt>
      <trkpt lat="48.59159" lon="-3.16079">
        <ele>117</ele>
        <time>2012-11-16T15:00:59Z</time>
      </trkpt>
      <trkpt lat="48.59155" lon="-3.16069">
        <ele>117</ele>
        <time>2012-11-16T15:01:04Z</time>
      </trkpt>
      <trkpt lat="48.5915" lon="-3.16059">
        <ele>117</ele>
        <time>2012-11-16T15:01:09Z</time>
      </trkpt>
      <trkpt lat="48.59145" lon="-3.16051">
        <ele>117</ele>
        <time>2012-11-16T15:01:14Z</time>
      </trkpt>
      <trkpt lat="48.59138" lon="-3.1604">
        <ele>117</ele>
        <time>2012-11-16T15:01:20Z</time>
      </trkpt>
      <trkpt lat="48.59133" lon="-3.16031">
        <ele>117</ele>
        <time>2012-11-16T15:01:25Z</time>
      </trkpt>
      <trkpt lat="48.59127" lon="-3.16021">
        <ele>117</ele>
        <time>2012-11-16T15:01:30Z</time>
      </trkpt>
      <trkpt lat="48.59123" lon="-3.1601">
        <ele>117</ele>
        <time>2012-11-16T15:01:35Z</time>
      </trkpt>
      <trkpt lat="48.5912" lon="-3.15998">
        <ele>117</ele>
        <time>2012-11-16T15:01:40Z</time>
      </trkpt>
      <trkpt lat="48.59118" lon="-3.15987">
        <ele>116</ele>
        <time>2012-11-16T15:01:45Z</time>
      </trkpt>
      <trkpt lat="48.59115" lon="-3.15976">
        <ele>115</ele>
        <time>2012-11-16T15:01:50Z</time>
      </trkpt>
      <trkpt lat="48.59114" lon="-3.15967">
        <ele>114</ele>
        <time>2012-11-16T15:01:55Z</time>
      </trkpt>
      <trkpt lat="48.59111" lon="-3.15957">
        <ele>113</ele>
        <time>2012-11-16T15:02:00Z</time>
      </trkpt>
      <trkpt lat="48.5911" lon="-3.15946">
        <ele>112</ele>
        <time>2012-11-16T15:02:05Z</time>
      </trkpt>
      <trkpt lat="48.59109" lon="-3.15942">
        <ele>111</ele>
        <time>2012-11-16T15:02:11Z</time>
      </trkpt>
      <trkpt lat="48.59108" lon="-3.15926">
        <ele>110</ele>
        <time>2012-11-16T15:02:17Z</time>
      </trkpt>
      <trkpt lat="48.59105" lon="-3.15917">
        <ele>110</ele>
        <time>2012-11-16T15:02:22Z</time>
      </trkpt>
      <trkpt lat="48.59102" lon="-3.15906">
        <ele>109</ele>
        <time>2012-11-16T15:02:27Z</time>
      </trkpt>
      <trkpt lat="48.59099" lon="-3.15895">
        <ele>109</ele>
        <time>2012-11-16T15:02:32Z</time>
      </trkpt>
      <trkpt lat="48.59097" lon="-3.15884">
        <ele>108</ele>
        <time>2012-11-16T15:02:37Z</time>
      </trkpt>
      <trkpt lat="48.59094" lon="-3.15874">
        <ele>107</ele>
        <time>2012-11-16T15:02:42Z</time>
      </trkpt>
      <trkpt lat="48.59091" lon="-3.15863">
        <ele>107</ele>
        <time>2012-11-16T15:02:47Z</time>
      </trkpt>
      <trkpt lat="48.59089" lon="-3.15853">
        <ele>107</ele>
        <time>2012-11-16T15:02:52Z</time>
      </trkpt>
      <trkpt lat="48.59089" lon="-3.15844">
        <ele>107</ele>
        <time>2012-11-16T15:02:57Z</time>
      </trkpt>
      <trkpt lat="48.59089" lon="-3.1583">
        <ele>106</ele>
        <time>2012-11-16T15:03:03Z</time>
      </trkpt>
      <trkpt lat="48.5909" lon="-3.15817">
        <ele>105</ele>
        <time>2012-11-16T15:03:09Z</time>
      </trkpt>
      <trkpt lat="48.59091" lon="-3.15806">
        <ele>103</ele>
        <time>2012-11-16T15:03:15Z</time>
      </trkpt>
      <trkpt lat="48.59093" lon="-3.15795">
        <ele>102</ele>
        <time>2012-11-16T15:03:20Z</time>
      </trkpt>
      <trkpt lat="48.59094" lon="-3.15782">
        <ele>102</ele>
        <time>2012-11-16T15:03:25Z</time>
      </trkpt>
      <trkpt lat="48.59096" lon="-3.15771">
        <ele>102</ele>
        <time>2012-11-16T15:03:30Z</time>
      </trkpt>
      <trkpt lat="48.59097" lon="-3.1576">
        <ele>102</ele>
        <time>2012-11-16T15:03:35Z</time>
      </trkpt>
      <trkpt lat="48.59098" lon="-3.15748">
        <ele>101</ele>
        <time>2012-11-16T15:03:40Z</time>
      </trkpt>
      <trkpt lat="48.591" lon="-3.15736">
        <ele>101</ele>
        <time>2012-11-16T15:03:45Z</time>
      </trkpt>
      <trkpt lat="48.591" lon="-3.15724">
        <ele>101</ele>
        <time>2012-11-16T15:03:50Z</time>
      </trkpt>
      <trkpt lat="48.59101" lon="-3.15712">
        <ele>101</ele>
        <time>2012-11-16T15:03:55Z</time>
      </trkpt>
      <trkpt lat="48.59102" lon="-3.15701">
        <ele>101</ele>
        <time>2012-11-16T15:04:00Z</time>
      </trkpt>
      <trkpt lat="48.59103" lon="-3.15689">
        <ele>101</ele>
        <time>2012-11-16T15:04:05Z</time>
      </trkpt>
      <trkpt lat="48.59104" lon="-3.15675">
        <ele>101</ele>
        <time>2012-11-16T15:04:11Z</time>
      </trkpt>
      <trkpt lat="48.59105" lon="-3.15664">
        <ele>101</ele>
        <time>2012-11-16T15:04:16Z</time>
      </trkpt>
      <trkpt lat="48.59107" lon="-3.15653">
        <ele>101</ele>
        <time>2012-11-16T15:04:21Z</time>
      </trkpt>
      <trkpt lat="48.59107" lon="-3.15641">
        <ele>100</ele>
        <time>2012-11-16T15:04:26Z</time>
      </trkpt>
      <trkpt lat="48.59106" lon="-3.15629">
        <ele>100</ele>
        <time>2012-11-16T15:04:31Z</time>
      </trkpt>
      <trkpt lat="48.59101" lon="-3.1562">
        <ele>99</ele>
        <time>2012-11-16T15:04:36Z</time>
      </trkpt>
      <trkpt lat="48.59094" lon="-3.15616">
        <ele>98</ele>
        <time>2012-11-16T15:04:41Z</time>
      </trkpt>
      <trkpt lat="48.59087" lon="-3.15612">
        <ele>97</ele>
        <time>2012-11-16T15:04:46Z</time>
      </trkpt>
      <trkpt lat="48.5908" lon="-3.15608">
        <ele>97</ele>
        <time>2012-11-16T15:04:51Z</time>
      </trkpt>
      <trkpt lat="48.59073" lon="-3.15605">
        <ele>97</ele>
        <time>2012-11-16T15:04:56Z</time>
      </trkpt>
      <trkpt lat="48.59066" lon="-3.15602">
        <ele>97</ele>
        <time>2012-11-16T15:05:01Z</time>
      </trkpt>
      <trkpt lat="48.59059" lon="-3.15598">
        <ele>97</ele>
        <time>2012-11-16T15:05:06Z</time>
      </trkpt>
      <trkpt lat="48.59053" lon="-3.15593">
        <ele>96</ele>
        <time>2012-11-16T15:05:11Z</time>
      </trkpt>
      <trkpt lat="48.59046" lon="-3.15589">
        <ele>95</ele>
        <time>2012-11-16T15:05:16Z</time>
      </trkpt>
      <trkpt lat="48.59038" lon="-3.15585">
        <ele>95</ele>
        <time>2012-11-16T15:05:21Z</time>
      </trkpt>
      <trkpt lat="48.59031" lon="-3.15581">
        <ele>95</ele>
        <time>2012-11-16T15:05:26Z</time>
      </trkpt>
      <trkpt lat="48.59022" lon="-3.15577">
        <ele>95</ele>
        <time>2012-11-16T15:05:31Z</time>
      </trkpt>
      <trkpt lat="48.59015" lon="-3.15572">
        <ele>95</ele>
        <time>2012-11-16T15:05:37Z</time>
      </trkpt>
      <trkpt lat="48.59009" lon="-3.15567">
        <ele>95</ele>
        <time>2012-11-16T15:05:42Z</time>
      </trkpt>
      <trkpt lat="48.59004" lon="-3.15561">
        <ele>95</ele>
        <time>2012-11-16T15:05:48Z</time>
      </trkpt>
      <trkpt lat="48.58997" lon="-3.15558">
        <ele>94</ele>
        <time>2012-11-16T15:05:53Z</time>
      </trkpt>
      <trkpt lat="48.58989" lon="-3.15553">
        <ele>93</ele>
        <time>2012-11-16T15:05:58Z</time>
      </trkpt>
      <trkpt lat="48.58983" lon="-3.15549">
        <ele>89</ele>
        <time>2012-11-16T15:06:03Z</time>
      </trkpt>
      <trkpt lat="48.58978" lon="-3.1555">
        <ele>84</ele>
        <time>2012-11-16T15:06:08Z</time>
      </trkpt>
      <trkpt lat="48.58972" lon="-3.15553">
        <ele>79</ele>
        <time>2012-11-16T15:06:13Z</time>
      </trkpt>
      <trkpt lat="48.58965" lon="-3.15554">
        <ele>75</ele>
        <time>2012-11-16T15:06:18Z</time>
      </trkpt>
      <trkpt lat="48.58958" lon="-3.15558">
        <ele>74</ele>
        <time>2012-11-16T15:06:23Z</time>
      </trkpt>
      <trkpt lat="48.58947" lon="-3.15562">
        <ele>74</ele>
        <time>2012-11-16T15:06:28Z</time>
      </trkpt>
      <trkpt lat="48.58937" lon="-3.15567">
        <ele>77</ele>
        <time>2012-11-16T15:06:33Z</time>
      </trkpt>
      <trkpt lat="48.58927" lon="-3.15566">
        <ele>81</ele>
        <time>2012-11-16T15:06:38Z</time>
      </trkpt>
      <trkpt lat="48.58918" lon="-3.15566">
        <ele>86</ele>
        <time>2012-11-16T15:06:43Z</time>
      </trkpt>
      <trkpt lat="48.58911" lon="-3.15563">
        <ele>91</ele>
        <time>2012-11-16T15:06:49Z</time>
      </trkpt>
      <trkpt lat="48.58903" lon="-3.1556">
        <ele>91</ele>
        <time>2012-11-16T15:06:54Z</time>
      </trkpt>
      <trkpt lat="48.58895" lon="-3.15563">
        <ele>91</ele>
        <time>2012-11-16T15:07:00Z</time>
      </trkpt>
      <trkpt lat="48.58889" lon="-3.15566">
        <ele>91</ele>
        <time>2012-11-16T15:07:05Z</time>
      </trkpt>
      <trkpt lat="48.58883" lon="-3.15571">
        <ele>92</ele>
        <time>2012-11-16T15:07:10Z</time>
      </trkpt>
      <trkpt lat="48.5888" lon="-3.15582">
        <ele>92</ele>
        <time>2012-11-16T15:07:15Z</time>
      </trkpt>
      <trkpt lat="48.58877" lon="-3.15589">
        <ele>92</ele>
        <time>2012-11-16T15:07:20Z</time>
      </trkpt>
      <trkpt lat="48.58873" lon="-3.15598">
        <ele>92</ele>
        <time>2012-11-16T15:07:25Z</time>
      </trkpt>
      <trkpt lat="48.58869" lon="-3.15607">
        <ele>92</ele>
        <time>2012-11-16T15:07:30Z</time>
      </trkpt>
      <trkpt lat="48.58866" lon="-3.15618">
        <ele>92</ele>
        <time>2012-11-16T15:07:35Z</time>
      </trkpt>
      <trkpt lat="48.58863" lon="-3.15627">
        <ele>92</ele>
        <time>2012-11-16T15:07:40Z</time>
      </trkpt>
      <trkpt lat="48.5886" lon="-3.15638">
        <ele>92</ele>
        <time>2012-11-16T15:07:45Z</time>
      </trkpt>
      <trkpt lat="48.58858" lon="-3.15648">
        <ele>92</ele>
        <time>2012-11-16T15:07:51Z</time>
      </trkpt>
      <trkpt lat="48.58855" lon="-3.15656">
        <ele>92</ele>
        <time>2012-11-16T15:07:56Z</time>
      </trkpt>
      <trkpt lat="48.58853" lon="-3.15666">
        <ele>92</ele>
        <time>2012-11-16T15:08:01Z</time>
      </trkpt>
      <trkpt lat="48.58852" lon="-3.15677">
        <ele>92</ele>
        <time>2012-11-16T15:08:07Z</time>
      </trkpt>
      <trkpt lat="48.58849" lon="-3.15686">
        <ele>92</ele>
        <time>2012-11-16T15:08:12Z</time>
      </trkpt>
      <trkpt lat="48.58849" lon="-3.15696">
        <ele>92</ele>
        <time>2012-11-16T15:08:17Z</time>
      </trkpt>
      <trkpt lat="48.58846" lon="-3.15704">
        <ele>92</ele>
        <time>2012-11-16T15:08:23Z</time>
      </trkpt>
      <trkpt lat="48.58844" lon="-3.15713">
        <ele>92</ele>
        <time>2012-11-16T15:08:28Z</time>
      </trkpt>
      <trkpt lat="48.5884" lon="-3.15723">
        <ele>93</ele>
        <time>2012-11-16T15:08:33Z</time>
      </trkpt>
      <trkpt lat="48.58838" lon="-3.1573">
        <ele>97</ele>
        <time>2012-11-16T15:08:38Z</time>
      </trkpt>
      <trkpt lat="48.58835" lon="-3.15737">
        <ele>98</ele>
        <time>2012-11-16T15:08:43Z</time>
      </trkpt>
      <trkpt lat="48.58832" lon="-3.15745">
        <ele>99</ele>
        <time>2012-11-16T15:08:48Z</time>
      </trkpt>
      <trkpt lat="48.58829" lon="-3.15755">
        <ele>100</ele>
        <time>2012-11-16T15:08:54Z</time>
      </trkpt>
      <trkpt lat="48.58826" lon="-3.15764">
        <ele>102</ele>
        <time>2012-11-16T15:08:59Z</time>
      </trkpt>
      <trkpt lat="48.58822" lon="-3.15774">
        <ele>103</ele>
        <time>2012-11-16T15:09:04Z</time>
      </trkpt>
      <trkpt lat="48.58821" lon="-3.15784">
        <ele>104</ele>
        <time>2012-11-16T15:09:09Z</time>
      </trkpt>
      <trkpt lat="48.58819" lon="-3.15796">
        <ele>105</ele>
        <time>2012-11-16T15:09:14Z</time>
      </trkpt>
      <trkpt lat="48.58817" lon="-3.15804">
        <ele>105</ele>
        <time>2012-11-16T15:09:19Z</time>
      </trkpt>
      <trkpt lat="48.58814" lon="-3.15812">
        <ele>106</ele>
        <time>2012-11-16T15:09:24Z</time>
      </trkpt>
      <trkpt lat="48.58813" lon="-3.15823">
        <ele>106</ele>
        <time>2012-11-16T15:09:29Z</time>
      </trkpt>
      <trkpt lat="48.5881" lon="-3.15832">
        <ele>106</ele>
        <time>2012-11-16T15:09:34Z</time>
      </trkpt>
      <trkpt lat="48.58806" lon="-3.15843">
        <ele>106</ele>
        <time>2012-11-16T15:09:39Z</time>
      </trkpt>
      <trkpt lat="48.58804" lon="-3.15852">
        <ele>106</ele>
        <time>2012-11-16T15:09:45Z</time>
      </trkpt>
      <trkpt lat="48.58804" lon="-3.1586">
        <ele>110</ele>
        <time>2012-11-16T15:09:50Z</time>
      </trkpt>
      <trkpt lat="48.58802" lon="-3.15868">
        <ele>111</ele>
        <time>2012-11-16T15:09:55Z</time>
      </trkpt>
      <trkpt lat="48.58803" lon="-3.1588">
        <ele>111</ele>
        <time>2012-11-16T15:10:00Z</time>
      </trkpt>
      <trkpt lat="48.58804" lon="-3.15892">
        <ele>111</ele>
        <time>2012-11-16T15:10:05Z</time>
      </trkpt>
      <trkpt lat="48.58805" lon="-3.15904">
        <ele>111</ele>
        <time>2012-11-16T15:10:10Z</time>
      </trkpt>
      <trkpt lat="48.58806" lon="-3.15915">
        <ele>111</ele>
        <time>2012-11-16T15:10:15Z</time>
      </trkpt>
      <trkpt lat="48.58808" lon="-3.15923">
        <ele>111</ele>
        <time>2012-11-16T15:10:20Z</time>
      </trkpt>
      <trkpt lat="48.58809" lon="-3.15934">
        <ele>111</ele>
        <time>2012-11-16T15:10:25Z</time>
      </trkpt>
      <trkpt lat="48.5881" lon="-3.15944">
        <ele>111</ele>
        <time>2012-11-16T15:10:30Z</time>
      </trkpt>
      <trkpt lat="48.58813" lon="-3.15955">
        <ele>111</ele>
        <time>2012-11-16T15:10:36Z</time>
      </trkpt>
      <trkpt lat="48.58814" lon="-3.15965">
        <ele>111</ele>
        <time>2012-11-16T15:10:41Z</time>
      </trkpt>
      <trkpt lat="48.58815" lon="-3.15978">
        <ele>111</ele>
        <time>2012-11-16T15:10:47Z</time>
      </trkpt>
      <trkpt lat="48.58817" lon="-3.15989">
        <ele>111</ele>
        <time>2012-11-16T15:10:53Z</time>
      </trkpt>
      <trkpt lat="48.58819" lon="-3.15998">
        <ele>111</ele>
        <time>2012-11-16T15:10:58Z</time>
      </trkpt>
      <trkpt lat="48.58819" lon="-3.16008">
        <ele>111</ele>
        <time>2012-11-16T15:11:03Z</time>
      </trkpt>
      <trkpt lat="48.58819" lon="-3.16018">
        <ele>111</ele>
        <time>2012-11-16T15:11:08Z</time>
      </trkpt>
      <trkpt lat="48.58817" lon="-3.16028">
        <ele>111</ele>
        <time>2012-11-16T15:11:13Z</time>
      </trkpt>
      <trkpt lat="48.58815" lon="-3.16039">
        <ele>111</ele>
        <time>2012-11-16T15:11:18Z</time>
      </trkpt>
      <trkpt lat="48.58814" lon="-3.1605">
        <ele>111</ele>
        <time>2012-11-16T15:11:23Z</time>
      </trkpt>
      <trkpt lat="48.58811" lon="-3.16058">
        <ele>111</ele>
        <time>2012-11-16T15:11:28Z</time>
      </trkpt>
      <trkpt lat="48.58807" lon="-3.16064">
        <ele>110</ele>
        <time>2012-11-16T15:11:33Z</time>
      </trkpt>
      <trkpt lat="48.58802" lon="-3.16064">
        <ele>110</ele>
        <time>2012-11-16T15:11:38Z</time>
      </trkpt>
      <trkpt lat="48.58794" lon="-3.16069">
        <ele>110</ele>
        <time>2012-11-16T15:11:44Z</time>
      </trkpt>
      <trkpt lat="48.58787" lon="-3.16075">
        <ele>110</ele>
        <time>2012-11-16T15:11:49Z</time>
      </trkpt>
      <trkpt lat="48.58781" lon="-3.16077">
        <ele>110</ele>
        <time>2012-11-16T15:11:54Z</time>
      </trkpt>
      <trkpt lat="48.58774" lon="-3.16079">
        <ele>110</ele>
        <time>2012-11-16T15:11:59Z</time>
      </trkpt>
      <trkpt lat="48.58767" lon="-3.16082">
        <ele>109</ele>
        <time>2012-11-16T15:12:04Z</time>
      </trkpt>
      <trkpt lat="48.58761" lon="-3.16087">
        <ele>109</ele>
        <time>2012-11-16T15:12:09Z</time>
      </trkpt>
      <trkpt lat="48.58755" lon="-3.16091">
        <ele>110</ele>
        <time>2012-11-16T15:12:14Z</time>
      </trkpt>
      <trkpt lat="48.58746" lon="-3.16099">
        <ele>111</ele>
        <time>2012-11-16T15:12:21Z</time>
      </trkpt>
      <trkpt lat="48.58736" lon="-3.16102">
        <ele>111</ele>
        <time>2012-11-16T15:12:26Z</time>
      </trkpt>
      <trkpt lat="48.58727" lon="-3.16101">
        <ele>111</ele>
        <time>2012-11-16T15:12:31Z</time>
      </trkpt>
      <trkpt lat="48.58723" lon="-3.16109">
        <ele>111</ele>
        <time>2012-11-16T15:12:37Z</time>
      </trkpt>
      <trkpt lat="48.58719" lon="-3.16116">
        <ele>111</ele>
        <time>2012-11-16T15:12:42Z</time>
      </trkpt>
      <trkpt lat="48.58715" lon="-3.1612">
        <ele>111</ele>
        <time>2012-11-16T15:12:47Z</time>
      </trkpt>
      <trkpt lat="48.5871" lon="-3.16124">
        <ele>109</ele>
        <time>2012-11-16T15:12:52Z</time>
      </trkpt>
      <trkpt lat="48.58705" lon="-3.16132">
        <ele>108</ele>
        <time>2012-11-16T15:12:57Z</time>
      </trkpt>
      <trkpt lat="48.587" lon="-3.1614">
        <ele>107</ele>
        <time>2012-11-16T15:13:04Z</time>
      </trkpt>
      <trkpt lat="48.58694" lon="-3.16148">
        <ele>107</ele>
        <time>2012-11-16T15:13:09Z</time>
      </trkpt>
      <trkpt lat="48.58688" lon="-3.16156">
        <ele>107</ele>
        <time>2012-11-16T15:13:14Z</time>
      </trkpt>
      <trkpt lat="48.58683" lon="-3.16166">
        <ele>107</ele>
        <time>2012-11-16T15:13:19Z</time>
      </trkpt>
      <trkpt lat="48.58678" lon="-3.16175">
        <ele>107</ele>
        <time>2012-11-16T15:13:24Z</time>
      </trkpt>
      <trkpt lat="48.58671" lon="-3.16184">
        <ele>107</ele>
        <time>2012-11-16T15:13:29Z</time>
      </trkpt>
      <trkpt lat="48.58664" lon="-3.16191">
        <ele>108</ele>
        <time>2012-11-16T15:13:34Z</time>
      </trkpt>
      <trkpt lat="48.58658" lon="-3.16198">
        <ele>108</ele>
        <time>2012-11-16T15:13:39Z</time>
      </trkpt>
      <trkpt lat="48.58653" lon="-3.16206">
        <ele>108</ele>
        <time>2012-11-16T15:13:44Z</time>
      </trkpt>
      <trkpt lat="48.58649" lon="-3.16215">
        <ele>108</ele>
        <time>2012-11-16T15:13:49Z</time>
      </trkpt>
      <trkpt lat="48.58644" lon="-3.16223">
        <ele>108</ele>
        <time>2012-11-16T15:13:54Z</time>
      </trkpt>
      <trkpt lat="48.5864" lon="-3.16232">
        <ele>107</ele>
        <time>2012-11-16T15:13:59Z</time>
      </trkpt>
      <trkpt lat="48.58636" lon="-3.16241">
        <ele>107</ele>
        <time>2012-11-16T15:14:04Z</time>
      </trkpt>
      <trkpt lat="48.58632" lon="-3.16252">
        <ele>104</ele>
        <time>2012-11-16T15:14:09Z</time>
      </trkpt>
      <trkpt lat="48.58628" lon="-3.16264">
        <ele>104</ele>
        <time>2012-11-16T15:14:14Z</time>
      </trkpt>
      <trkpt lat="48.58624" lon="-3.16275">
        <ele>103</ele>
        <time>2012-11-16T15:14:19Z</time>
      </trkpt>
      <trkpt lat="48.5862" lon="-3.16287">
        <ele>102</ele>
        <time>2012-11-16T15:14:24Z</time>
      </trkpt>
      <trkpt lat="48.58615" lon="-3.16299">
        <ele>102</ele>
        <time>2012-11-16T15:14:29Z</time>
      </trkpt>
      <trkpt lat="48.58611" lon="-3.16309">
        <ele>102</ele>
        <time>2012-11-16T15:14:34Z</time>
      </trkpt>
      <trkpt lat="48.58608" lon="-3.1632">
        <ele>101</ele>
        <time>2012-11-16T15:14:39Z</time>
      </trkpt>
      <trkpt lat="48.58604" lon="-3.16331">
        <ele>101</ele>
        <time>2012-11-16T15:14:44Z</time>
      </trkpt>
      <trkpt lat="48.58602" lon="-3.16343">
        <ele>101</ele>
        <time>2012-11-16T15:14:49Z</time>
      </trkpt>
      <trkpt lat="48.58601" lon="-3.16355">
        <ele>100</ele>
        <time>2012-11-16T15:14:54Z</time>
      </trkpt>
      <trkpt lat="48.58598" lon="-3.16366">
        <ele>99</ele>
        <time>2012-11-16T15:14:59Z</time>
      </trkpt>
      <trkpt lat="48.58598" lon="-3.16377">
        <ele>99</ele>
        <time>2012-11-16T15:15:04Z</time>
      </trkpt>
      <trkpt lat="48.58595" lon="-3.16387">
        <ele>98</ele>
        <time>2012-11-16T15:15:09Z</time>
      </trkpt>
      <trkpt lat="48.58593" lon="-3.16398">
        <ele>98</ele>
        <time>2012-11-16T15:15:14Z</time>
      </trkpt>
      <trkpt lat="48.58593" lon="-3.16409">
        <ele>98</ele>
        <time>2012-11-16T15:15:19Z</time>
      </trkpt>
      <trkpt lat="48.58598" lon="-3.16418">
        <ele>98</ele>
        <time>2012-11-16T15:15:25Z</time>
      </trkpt>
      <trkpt lat="48.58603" lon="-3.16424">
        <ele>98</ele>
        <time>2012-11-16T15:15:31Z</time>
      </trkpt>
      <trkpt lat="48.58607" lon="-3.16431">
        <ele>98</ele>
        <time>2012-11-16T15:15:36Z</time>
      </trkpt>
      <trkpt lat="48.58611" lon="-3.16439">
        <ele>98</ele>
        <time>2012-11-16T15:15:41Z</time>
      </trkpt>
      <trkpt lat="48.58615" lon="-3.16447">
        <ele>98</ele>
        <time>2012-11-16T15:15:46Z</time>
      </trkpt>
      <trkpt lat="48.58618" lon="-3.16456">
        <ele>98</ele>
        <time>2012-11-16T15:15:51Z</time>
      </trkpt>
      <trkpt lat="48.58621" lon="-3.16466">
        <ele>98</ele>
        <time>2012-11-16T15:15:56Z</time>
      </trkpt>
      <trkpt lat="48.58624" lon="-3.16476">
        <ele>98</ele>
        <time>2012-11-16T15:16:02Z</time>
      </trkpt>
      <trkpt lat="48.58629" lon="-3.16484">
        <ele>98</ele>
        <time>2012-11-16T15:16:08Z</time>
      </trkpt>
      <trkpt lat="48.58634" lon="-3.16489">
        <ele>98</ele>
        <time>2012-11-16T15:16:13Z</time>
      </trkpt>
      <trkpt lat="48.58639" lon="-3.16495">
        <ele>98</ele>
        <time>2012-11-16T15:16:18Z</time>
      </trkpt>
      <trkpt lat="48.58645" lon="-3.16504">
        <ele>98</ele>
        <time>2012-11-16T15:16:24Z</time>
      </trkpt>
      <trkpt lat="48.58651" lon="-3.1651">
        <ele>99</ele>
        <time>2012-11-16T15:16:30Z</time>
      </trkpt>
      <trkpt lat="48.58656" lon="-3.16517">
        <ele>100</ele>
        <time>2012-11-16T15:16:36Z</time>
      </trkpt>
      <trkpt lat="48.58661" lon="-3.16524">
        <ele>102</ele>
        <time>2012-11-16T15:16:42Z</time>
      </trkpt>
      <trkpt lat="48.58667" lon="-3.16532">
        <ele>103</ele>
        <time>2012-11-16T15:16:48Z</time>
      </trkpt>
      <trkpt lat="48.58672" lon="-3.16539">
        <ele>104</ele>
        <time>2012-11-16T15:16:54Z</time>
      </trkpt>
      <trkpt lat="48.58677" lon="-3.16547">
        <ele>104</ele>
        <time>2012-11-16T15:17:00Z</time>
      </trkpt>
      <trkpt lat="48.58682" lon="-3.16556">
        <ele>104</ele>
        <time>2012-11-16T15:17:06Z</time>
      </trkpt>
      <trkpt lat="48.58685" lon="-3.16564">
        <ele>103</ele>
        <time>2012-11-16T15:17:11Z</time>
      </trkpt>
      <trkpt lat="48.58689" lon="-3.16572">
        <ele>103</ele>
        <time>2012-11-16T15:17:16Z</time>
      </trkpt>
      <trkpt lat="48.58692" lon="-3.16581">
        <ele>102</ele>
        <time>2012-11-16T15:17:22Z</time>
      </trkpt>
      <trkpt lat="48.58696" lon="-3.16588">
        <ele>101</ele>
        <time>2012-11-16T15:17:28Z</time>
      </trkpt>
      <trkpt lat="48.58701" lon="-3.16594">
        <ele>101</ele>
        <time>2012-11-16T15:17:33Z</time>
      </trkpt>
      <trkpt lat="48.58705" lon="-3.16604">
        <ele>101</ele>
        <time>2012-11-16T15:17:39Z</time>
      </trkpt>
      <trkpt lat="48.58709" lon="-3.16614">
        <ele>101</ele>
        <time>2012-11-16T15:17:45Z</time>
      </trkpt>
      <trkpt lat="48.58712" lon="-3.16623">
        <ele>101</ele>
        <time>2012-11-16T15:17:50Z</time>
      </trkpt>
      <trkpt lat="48.58715" lon="-3.16632">
        <ele>101</ele>
        <time>2012-11-16T15:17:55Z</time>
      </trkpt>
      <trkpt lat="48.58719" lon="-3.1664">
        <ele>102</ele>
        <time>2012-11-16T15:18:00Z</time>
      </trkpt>
      <trkpt lat="48.58723" lon="-3.16649">
        <ele>103</ele>
        <time>2012-11-16T15:18:05Z</time>
      </trkpt>
      <trkpt lat="48.58729" lon="-3.16658">
        <ele>105</ele>
        <time>2012-11-16T15:18:11Z</time>
      </trkpt>
      <trkpt lat="48.58734" lon="-3.16666">
        <ele>106</ele>
        <time>2012-11-16T15:18:16Z</time>
      </trkpt>
      <trkpt lat="48.58739" lon="-3.16675">
        <ele>106</ele>
        <time>2012-11-16T15:18:22Z</time>
      </trkpt>
      <trkpt lat="48.58743" lon="-3.16683">
        <ele>106</ele>
        <time>2012-11-16T15:18:27Z</time>
      </trkpt>
      <trkpt lat="48.58747" lon="-3.16692">
        <ele>106</ele>
        <time>2012-11-16T15:18:32Z</time>
      </trkpt>
      <trkpt lat="48.58751" lon="-3.167">
        <ele>106</ele>
        <time>2012-11-16T15:18:37Z</time>
      </trkpt>
      <trkpt lat="48.58754" lon="-3.16709">
        <ele>108</ele>
        <time>2012-11-16T15:18:42Z</time>
      </trkpt>
      <trkpt lat="48.58759" lon="-3.1672">
        <ele>108</ele>
        <time>2012-11-16T15:18:48Z</time>
      </trkpt>
      <trkpt lat="48.58765" lon="-3.16729">
        <ele>109</ele>
        <time>2012-11-16T15:18:54Z</time>
      </trkpt>
      <trkpt lat="48.5877" lon="-3.16734">
        <ele>109</ele>
        <time>2012-11-16T15:18:59Z</time>
      </trkpt>
      <trkpt lat="48.58775" lon="-3.1674">
        <ele>109</ele>
        <time>2012-11-16T15:19:04Z</time>
      </trkpt>
      <trkpt lat="48.5878" lon="-3.16746">
        <ele>110</ele>
        <time>2012-11-16T15:19:10Z</time>
      </trkpt>
      <trkpt lat="48.58786" lon="-3.16752">
        <ele>110</ele>
        <time>2012-11-16T15:19:15Z</time>
      </trkpt>
      <trkpt lat="48.58793" lon="-3.16758">
        <ele>110</ele>
        <time>2012-11-16T15:19:21Z</time>
      </trkpt>
      <trkpt lat="48.58799" lon="-3.16761">
        <ele>110</ele>
        <time>2012-11-16T15:19:26Z</time>
      </trkpt>
      <trkpt lat="48.58806" lon="-3.16763">
        <ele>110</ele>
        <time>2012-11-16T15:19:32Z</time>
      </trkpt>
      <trkpt lat="48.58813" lon="-3.16767">
        <ele>110</ele>
        <time>2012-11-16T15:19:37Z</time>
      </trkpt>
      <trkpt lat="48.58817" lon="-3.1677">
        <ele>110</ele>
        <time>2012-11-16T15:19:42Z</time>
      </trkpt>
      <trkpt lat="48.58822" lon="-3.16768">
        <ele>110</ele>
        <time>2012-11-16T15:19:47Z</time>
      </trkpt>
      <trkpt lat="48.58827" lon="-3.16766">
        <ele>108</ele>
        <time>2012-11-16T15:19:52Z</time>
      </trkpt>
      <trkpt lat="48.58835" lon="-3.16764">
        <ele>107</ele>
        <time>2012-11-16T15:19:57Z</time>
      </trkpt>
      <trkpt lat="48.58842" lon="-3.16763">
        <ele>107</ele>
        <time>2012-11-16T15:20:02Z</time>
      </trkpt>
      <trkpt lat="48.58847" lon="-3.16765">
        <ele>107</ele>
        <time>2012-11-16T15:20:08Z</time>
      </trkpt>
      <trkpt lat="48.58857" lon="-3.16765">
        <ele>107</ele>
        <time>2012-11-16T15:20:13Z</time>
      </trkpt>
      <trkpt lat="48.58865" lon="-3.16765">
        <ele>107</ele>
        <time>2012-11-16T15:20:19Z</time>
      </trkpt>
      <trkpt lat="48.5887" lon="-3.16766">
        <ele>108</ele>
        <time>2012-11-16T15:20:24Z</time>
      </trkpt>
      <trkpt lat="48.58876" lon="-3.16764">
        <ele>110</ele>
        <time>2012-11-16T15:20:29Z</time>
      </trkpt>
      <trkpt lat="48.58882" lon="-3.16762">
        <ele>112</ele>
        <time>2012-11-16T15:20:34Z</time>
      </trkpt>
      <trkpt lat="48.58889" lon="-3.1676">
        <ele>114</ele>
        <time>2012-11-16T15:20:40Z</time>
      </trkpt>
      <trkpt lat="48.58896" lon="-3.16761">
        <ele>117</ele>
        <time>2012-11-16T15:20:47Z</time>
      </trkpt>
      <trkpt lat="48.58901" lon="-3.16758">
        <ele>117</ele>
        <time>2012-11-16T15:20:52Z</time>
      </trkpt>
      <trkpt lat="48.58907" lon="-3.16757">
        <ele>117</ele>
        <time>2012-11-16T15:20:57Z</time>
      </trkpt>
      <trkpt lat="48.58913" lon="-3.16752">
        <ele>117</ele>
        <time>2012-11-16T15:21:03Z</time>
      </trkpt>
      <trkpt lat="48.5892" lon="-3.16749">
        <ele>117</ele>
        <time>2012-11-16T15:21:08Z</time>
      </trkpt>
      <trkpt lat="48.58923" lon="-3.16755">
        <ele>117</ele>
        <time>2012-11-16T15:21:13Z</time>
      </trkpt>
      <trkpt lat="48.58925" lon="-3.16765">
        <ele>117</ele>
        <time>2012-11-16T15:21:18Z</time>
      </trkpt>
      <trkpt lat="48.58926" lon="-3.16772">
        <ele>117</ele>
        <time>2012-11-16T15:21:23Z</time>
      </trkpt>
      <trkpt lat="48.58927" lon="-3.16782">
        <ele>117</ele>
        <time>2012-11-16T15:21:28Z</time>
      </trkpt>
      <trkpt lat="48.58927" lon="-3.16789">
        <ele>117</ele>
        <time>2012-11-16T15:21:33Z</time>
      </trkpt>
      <trkpt lat="48.58929" lon="-3.16799">
        <ele>117</ele>
        <time>2012-11-16T15:21:38Z</time>
      </trkpt>
      <trkpt lat="48.58928" lon="-3.16812">
        <ele>117</ele>
        <time>2012-11-16T15:21:43Z</time>
      </trkpt>
      <trkpt lat="48.58928" lon="-3.16824">
        <ele>117</ele>
        <time>2012-11-16T15:21:48Z</time>
      </trkpt>
      <trkpt lat="48.58928" lon="-3.16836">
        <ele>117</ele>
        <time>2012-11-16T15:21:53Z</time>
      </trkpt>
      <trkpt lat="48.58929" lon="-3.16846">
        <ele>117</ele>
        <time>2012-11-16T15:21:58Z</time>
      </trkpt>
      <trkpt lat="48.58928" lon="-3.16855">
        <ele>117</ele>
        <time>2012-11-16T15:22:03Z</time>
      </trkpt>
      <trkpt lat="48.58926" lon="-3.16866">
        <ele>117</ele>
        <time>2012-11-16T15:22:08Z</time>
      </trkpt>
      <trkpt lat="48.58925" lon="-3.16878">
        <ele>117</ele>
        <time>2012-11-16T15:22:13Z</time>
      </trkpt>
      <trkpt lat="48.58924" lon="-3.16891">
        <ele>117</ele>
        <time>2012-11-16T15:22:18Z</time>
      </trkpt>
      <trkpt lat="48.58923" lon="-3.16902">
        <ele>117</ele>
        <time>2012-11-16T15:22:23Z</time>
      </trkpt>
      <trkpt lat="48.58922" lon="-3.16913">
        <ele>117</ele>
        <time>2012-11-16T15:22:28Z</time>
      </trkpt>
      <trkpt lat="48.58921" lon="-3.16924">
        <ele>117</ele>
        <time>2012-11-16T15:22:33Z</time>
      </trkpt>
      <trkpt lat="48.5892" lon="-3.16934">
        <ele>117</ele>
        <time>2012-11-16T15:22:38Z</time>
      </trkpt>
      <trkpt lat="48.58919" lon="-3.16946">
        <ele>117</ele>
        <time>2012-11-16T15:22:43Z</time>
      </trkpt>
      <trkpt lat="48.58916" lon="-3.16958">
        <ele>117</ele>
        <time>2012-11-16T15:22:48Z</time>
      </trkpt>
      <trkpt lat="48.58915" lon="-3.16969">
        <ele>117</ele>
        <time>2012-11-16T15:22:53Z</time>
      </trkpt>
      <trkpt lat="48.58913" lon="-3.16981">
        <ele>117</ele>
        <time>2012-11-16T15:22:58Z</time>
      </trkpt>
      <trkpt lat="48.58911" lon="-3.16993">
        <ele>118</ele>
        <time>2012-11-16T15:23:04Z</time>
      </trkpt>
      <trkpt lat="48.5891" lon="-3.17003">
        <ele>118</ele>
        <time>2012-11-16T15:23:09Z</time>
      </trkpt>
      <trkpt lat="48.5891" lon="-3.17014">
        <ele>118</ele>
        <time>2012-11-16T15:23:14Z</time>
      </trkpt>
      <trkpt lat="48.58912" lon="-3.17026">
        <ele>118</ele>
        <time>2012-11-16T15:23:19Z</time>
      </trkpt>
      <trkpt lat="48.58916" lon="-3.17036">
        <ele>118</ele>
        <time>2012-11-16T15:23:24Z</time>
      </trkpt>
      <trkpt lat="48.5892" lon="-3.17046">
        <ele>118</ele>
        <time>2012-11-16T15:23:29Z</time>
      </trkpt>
      <trkpt lat="48.58927" lon="-3.17054">
        <ele>118</ele>
        <time>2012-11-16T15:23:34Z</time>
      </trkpt>
      <trkpt lat="48.58933" lon="-3.17062">
        <ele>118</ele>
        <time>2012-11-16T15:23:39Z</time>
      </trkpt>
      <trkpt lat="48.58939" lon="-3.17066">
        <ele>120</ele>
        <time>2012-11-16T15:23:44Z</time>
      </trkpt>
      <trkpt lat="48.58945" lon="-3.17071">
        <ele>121</ele>
        <time>2012-11-16T15:23:49Z</time>
      </trkpt>
      <trkpt lat="48.58951" lon="-3.17077">
        <ele>121</ele>
        <time>2012-11-16T15:23:54Z</time>
      </trkpt>
      <trkpt lat="48.5896" lon="-3.1708">
        <ele>122</ele>
        <time>2012-11-16T15:23:59Z</time>
      </trkpt>
      <trkpt lat="48.58966" lon="-3.17085">
        <ele>123</ele>
        <time>2012-11-16T15:24:04Z</time>
      </trkpt>
      <trkpt lat="48.58972" lon="-3.1709">
        <ele>123</ele>
        <time>2012-11-16T15:24:09Z</time>
      </trkpt>
      <trkpt lat="48.5898" lon="-3.17095">
        <ele>124</ele>
        <time>2012-11-16T15:24:14Z</time>
      </trkpt>
      <trkpt lat="48.58987" lon="-3.17099">
        <ele>124</ele>
        <time>2012-11-16T15:24:19Z</time>
      </trkpt>
      <trkpt lat="48.58994" lon="-3.17103">
        <ele>124</ele>
        <time>2012-11-16T15:24:24Z</time>
      </trkpt>
      <trkpt lat="48.59001" lon="-3.17109">
        <ele>124</ele>
        <time>2012-11-16T15:24:29Z</time>
      </trkpt>
      <trkpt lat="48.59006" lon="-3.17115">
        <ele>124</ele>
        <time>2012-11-16T15:24:34Z</time>
      </trkpt>
      <trkpt lat="48.59012" lon="-3.17122">
        <ele>124</ele>
        <time>2012-11-16T15:24:39Z</time>
      </trkpt>
      <trkpt lat="48.59019" lon="-3.17128">
        <ele>124</ele>
        <time>2012-11-16T15:24:44Z</time>
      </trkpt>
      <trkpt lat="48.59024" lon="-3.17134">
        <ele>124</ele>
        <time>2012-11-16T15:24:49Z</time>
      </trkpt>
      <trkpt lat="48.59031" lon="-3.17142">
        <ele>124</ele>
        <time>2012-11-16T15:24:55Z</time>
      </trkpt>
      <trkpt lat="48.59038" lon="-3.17148">
        <ele>124</ele>
        <time>2012-11-16T15:25:00Z</time>
      </trkpt>
      <trkpt lat="48.59044" lon="-3.17154">
        <ele>124</ele>
        <time>2012-11-16T15:25:05Z</time>
      </trkpt>
      <trkpt lat="48.59049" lon="-3.17161">
        <ele>124</ele>
        <time>2012-11-16T15:25:10Z</time>
      </trkpt>
      <trkpt lat="48.59055" lon="-3.17168">
        <ele>124</ele>
        <time>2012-11-16T15:25:15Z</time>
      </trkpt>
      <trkpt lat="48.59058" lon="-3.17176">
        <ele>124</ele>
        <time>2012-11-16T15:25:20Z</time>
      </trkpt>
      <trkpt lat="48.5906" lon="-3.17186">
        <ele>124</ele>
        <time>2012-11-16T15:25:25Z</time>
      </trkpt>
      <trkpt lat="48.5906" lon="-3.17197">
        <ele>124</ele>
        <time>2012-11-16T15:25:30Z</time>
      </trkpt>
      <trkpt lat="48.59058" lon="-3.17208">
        <ele>124</ele>
        <time>2012-11-16T15:25:35Z</time>
      </trkpt>
      <trkpt lat="48.59053" lon="-3.17218">
        <ele>124</ele>
        <time>2012-11-16T15:25:40Z</time>
      </trkpt>
      <trkpt lat="48.59048" lon="-3.17228">
        <ele>124</ele>
        <time>2012-11-16T15:25:45Z</time>
      </trkpt>
      <trkpt lat="48.59044" lon="-3.17238">
        <ele>124</ele>
        <time>2012-11-16T15:25:51Z</time>
      </trkpt>
      <trkpt lat="48.59038" lon="-3.17247">
        <ele>124</ele>
        <time>2012-11-16T15:25:57Z</time>
      </trkpt>
      <trkpt lat="48.59033" lon="-3.17255">
        <ele>124</ele>
        <time>2012-11-16T15:26:03Z</time>
      </trkpt>
      <trkpt lat="48.59028" lon="-3.17263">
        <ele>124</ele>
        <time>2012-11-16T15:26:08Z</time>
      </trkpt>
      <trkpt lat="48.59024" lon="-3.17271">
        <ele>124</ele>
        <time>2012-11-16T15:26:13Z</time>
      </trkpt>
      <trkpt lat="48.5902" lon="-3.1728">
        <ele>124</ele>
        <time>2012-11-16T15:26:18Z</time>
      </trkpt>
      <trkpt lat="48.59016" lon="-3.17289">
        <ele>124</ele>
        <time>2012-11-16T15:26:23Z</time>
      </trkpt>
      <trkpt lat="48.59011" lon="-3.17296">
        <ele>124</ele>
        <time>2012-11-16T15:26:28Z</time>
      </trkpt>
      <trkpt lat="48.59006" lon="-3.17304">
        <ele>124</ele>
        <time>2012-11-16T15:26:33Z</time>
      </trkpt>
      <trkpt lat="48.59002" lon="-3.17313">
        <ele>124</ele>
        <time>2012-11-16T15:26:38Z</time>
      </trkpt>
      <trkpt lat="48.58997" lon="-3.1732">
        <ele>124</ele>
        <time>2012-11-16T15:26:43Z</time>
      </trkpt>
      <trkpt lat="48.58991" lon="-3.17331">
        <ele>124</ele>
        <time>2012-11-16T15:26:49Z</time>
      </trkpt>
      <trkpt lat="48.58986" lon="-3.17342">
        <ele>124</ele>
        <time>2012-11-16T15:26:54Z</time>
      </trkpt>
      <trkpt lat="48.5898" lon="-3.17351">
        <ele>124</ele>
        <time>2012-11-16T15:27:00Z</time>
      </trkpt>
      <trkpt lat="48.58974" lon="-3.17355">
        <ele>124</ele>
        <time>2012-11-16T15:27:05Z</time>
      </trkpt>
      <trkpt lat="48.58967" lon="-3.17361">
        <ele>124</ele>
        <time>2012-11-16T15:27:10Z</time>
      </trkpt>
      <trkpt lat="48.58962" lon="-3.17367">
        <ele>124</ele>
        <time>2012-11-16T15:27:15Z</time>
      </trkpt>
      <trkpt lat="48.58956" lon="-3.17375">
        <ele>124</ele>
        <time>2012-11-16T15:27:21Z</time>
      </trkpt>
      <trkpt lat="48.5895" lon="-3.17383">
        <ele>124</ele>
        <time>2012-11-16T15:27:26Z</time>
      </trkpt>
      <trkpt lat="48.58945" lon="-3.17391">
        <ele>124</ele>
        <time>2012-11-16T15:27:31Z</time>
      </trkpt>
      <trkpt lat="48.58941" lon="-3.174">
        <ele>124</ele>
        <time>2012-11-16T15:27:36Z</time>
      </trkpt>
      <trkpt lat="48.58936" lon="-3.17408">
        <ele>124</ele>
        <time>2012-11-16T15:27:41Z</time>
      </trkpt>
      <trkpt lat="48.58934" lon="-3.17416">
        <ele>124</ele>
        <time>2012-11-16T15:27:46Z</time>
      </trkpt>
      <trkpt lat="48.58931" lon="-3.17425">
        <ele>124</ele>
        <time>2012-11-16T15:27:51Z</time>
      </trkpt>
      <trkpt lat="48.58927" lon="-3.17436">
        <ele>124</ele>
        <time>2012-11-16T15:27:56Z</time>
      </trkpt>
      <trkpt lat="48.58921" lon="-3.17445">
        <ele>124</ele>
        <time>2012-11-16T15:28:02Z</time>
      </trkpt>
      <trkpt lat="48.58915" lon="-3.17451">
        <ele>124</ele>
        <time>2012-11-16T15:28:07Z</time>
      </trkpt>
      <trkpt lat="48.5891" lon="-3.17457">
        <ele>124</ele>
        <time>2012-11-16T15:28:12Z</time>
      </trkpt>
      <trkpt lat="48.58904" lon="-3.17462">
        <ele>124</ele>
        <time>2012-11-16T15:28:17Z</time>
      </trkpt>
      <trkpt lat="48.58898" lon="-3.17466">
        <ele>124</ele>
        <time>2012-11-16T15:28:22Z</time>
      </trkpt>
      <trkpt lat="48.58893" lon="-3.17475">
        <ele>124</ele>
        <time>2012-11-16T15:28:28Z</time>
      </trkpt>
      <trkpt lat="48.58887" lon="-3.17476">
        <ele>124</ele>
        <time>2012-11-16T15:28:33Z</time>
      </trkpt>
      <trkpt lat="48.58879" lon="-3.17476">
        <ele>124</ele>
        <time>2012-11-16T15:28:38Z</time>
      </trkpt>
      <trkpt lat="48.58873" lon="-3.17477">
        <ele>124</ele>
        <time>2012-11-16T15:28:43Z</time>
      </trkpt>
      <trkpt lat="48.58866" lon="-3.17477">
        <ele>124</ele>
        <time>2012-11-16T15:28:48Z</time>
      </trkpt>
      <trkpt lat="48.58859" lon="-3.17478">
        <ele>124</ele>
        <time>2012-11-16T15:28:53Z</time>
      </trkpt>
      <trkpt lat="48.58851" lon="-3.1748">
        <ele>125</ele>
        <time>2012-11-16T15:28:58Z</time>
      </trkpt>
      <trkpt lat="48.58844" lon="-3.17479">
        <ele>125</ele>
        <time>2012-11-16T15:29:03Z</time>
      </trkpt>
      <trkpt lat="48.58842" lon="-3.17483">
        <ele>125</ele>
        <time>2012-11-16T15:29:08Z</time>
      </trkpt>
      <trkpt lat="48.58836" lon="-3.1749">
        <ele>125</ele>
        <time>2012-11-16T15:29:13Z</time>
      </trkpt>
      <trkpt lat="48.5883" lon="-3.17493">
        <ele>125</ele>
        <time>2012-11-16T15:29:18Z</time>
      </trkpt>
      <trkpt lat="48.58825" lon="-3.17498">
        <ele>125</ele>
        <time>2012-11-16T15:29:23Z</time>
      </trkpt>
      <trkpt lat="48.58824" lon="-3.17508">
        <ele>125</ele>
        <time>2012-11-16T15:29:28Z</time>
      </trkpt>
      <trkpt lat="48.58825" lon="-3.17518">
        <ele>125</ele>
        <time>2012-11-16T15:29:33Z</time>
      </trkpt>
      <trkpt lat="48.58825" lon="-3.17528">
        <ele>125</ele>
        <time>2012-11-16T15:29:38Z</time>
      </trkpt>
      <trkpt lat="48.58824" lon="-3.17539">
        <ele>125</ele>
        <time>2012-11-16T15:29:43Z</time>
      </trkpt>
      <trkpt lat="48.58822" lon="-3.17551">
        <ele>126</ele>
        <time>2012-11-16T15:29:49Z</time>
      </trkpt>
      <trkpt lat="48.58822" lon="-3.17561">
        <ele>128</ele>
        <time>2012-11-16T15:29:54Z</time>
      </trkpt>
      <trkpt lat="48.58821" lon="-3.17572">
        <ele>129</ele>
        <time>2012-11-16T15:29:59Z</time>
      </trkpt>
      <trkpt lat="48.58821" lon="-3.17583">
        <ele>130</ele>
        <time>2012-11-16T15:30:04Z</time>
      </trkpt>
      <trkpt lat="48.58821" lon="-3.17592">
        <ele>130</ele>
        <time>2012-11-16T15:30:09Z</time>
      </trkpt>
      <trkpt lat="48.58821" lon="-3.17604">
        <ele>130</ele>
        <time>2012-11-16T15:30:14Z</time>
      </trkpt>
      <trkpt lat="48.58818" lon="-3.17615">
        <ele>130</ele>
        <time>2012-11-16T15:30:19Z</time>
      </trkpt>
      <trkpt lat="48.58814" lon="-3.17622">
        <ele>130</ele>
        <time>2012-11-16T15:30:24Z</time>
      </trkpt>
      <trkpt lat="48.58812" lon="-3.1763">
        <ele>130</ele>
        <time>2012-11-16T15:30:29Z</time>
      </trkpt>
      <trkpt lat="48.58808" lon="-3.17639">
        <ele>128</ele>
        <time>2012-11-16T15:30:34Z</time>
      </trkpt>
      <trkpt lat="48.58804" lon="-3.17649">
        <ele>126</ele>
        <time>2012-11-16T15:30:40Z</time>
      </trkpt>
      <trkpt lat="48.58798" lon="-3.17658">
        <ele>124</ele>
        <time>2012-11-16T15:30:45Z</time>
      </trkpt>
      <trkpt lat="48.58794" lon="-3.17667">
        <ele>124</ele>
        <time>2012-11-16T15:30:50Z</time>
      </trkpt>
      <trkpt lat="48.58789" lon="-3.17677">
        <ele>124</ele>
        <time>2012-11-16T15:30:55Z</time>
      </trkpt>
      <trkpt lat="48.58786" lon="-3.17688">
        <ele>124</ele>
        <time>2012-11-16T15:31:00Z</time>
      </trkpt>
      <trkpt lat="48.58782" lon="-3.17696">
        <ele>124</ele>
        <time>2012-11-16T15:31:05Z</time>
      </trkpt>
      <trkpt lat="48.58779" lon="-3.17708">
        <ele>124</ele>
        <time>2012-11-16T15:31:10Z</time>
      </trkpt>
      <trkpt lat="48.58776" lon="-3.17719">
        <ele>124</ele>
        <time>2012-11-16T15:31:15Z</time>
      </trkpt>
      <trkpt lat="48.58773" lon="-3.17732">
        <ele>124</ele>
        <time>2012-11-16T15:31:20Z</time>
      </trkpt>
      <trkpt lat="48.58772" lon="-3.17742">
        <ele>124</ele>
        <time>2012-11-16T15:31:25Z</time>
      </trkpt>
      <trkpt lat="48.58772" lon="-3.17753">
        <ele>124</ele>
        <time>2012-11-16T15:31:30Z</time>
      </trkpt>
      <trkpt lat="48.58771" lon="-3.17764">
        <ele>124</ele>
        <time>2012-11-16T15:31:35Z</time>
      </trkpt>
      <trkpt lat="48.5877" lon="-3.17775">
        <ele>124</ele>
        <time>2012-11-16T15:31:40Z</time>
      </trkpt>
      <trkpt lat="48.58768" lon="-3.17785">
        <ele>124</ele>
        <time>2012-11-16T15:31:45Z</time>
      </trkpt>
      <trkpt lat="48.58766" lon="-3.17795">
        <ele>124</ele>
        <time>2012-11-16T15:31:50Z</time>
      </trkpt>
      <trkpt lat="48.58765" lon="-3.17805">
        <ele>124</ele>
        <time>2012-11-16T15:31:55Z</time>
      </trkpt>
      <trkpt lat="48.58761" lon="-3.17818">
        <ele>124</ele>
        <time>2012-11-16T15:32:00Z</time>
      </trkpt>
      <trkpt lat="48.58758" lon="-3.17829">
        <ele>124</ele>
        <time>2012-11-16T15:32:05Z</time>
      </trkpt>
      <trkpt lat="48.58756" lon="-3.17839">
        <ele>124</ele>
        <time>2012-11-16T15:32:10Z</time>
      </trkpt>
      <trkpt lat="48.58753" lon="-3.17848">
        <ele>124</ele>
        <time>2012-11-16T15:32:15Z</time>
      </trkpt>
      <trkpt lat="48.58751" lon="-3.17856">
        <ele>124</ele>
        <time>2012-11-16T15:32:20Z</time>
      </trkpt>
      <trkpt lat="48.58747" lon="-3.17864">
        <ele>124</ele>
        <time>2012-11-16T15:32:25Z</time>
      </trkpt>
      <trkpt lat="48.58743" lon="-3.17875">
        <ele>124</ele>
        <time>2012-11-16T15:32:31Z</time>
      </trkpt>
      <trkpt lat="48.5874" lon="-3.17885">
        <ele>124</ele>
        <time>2012-11-16T15:32:36Z</time>
      </trkpt>
      <trkpt lat="48.58738" lon="-3.17894">
        <ele>124</ele>
        <time>2012-11-16T15:32:41Z</time>
      </trkpt>
      <trkpt lat="48.58736" lon="-3.17903">
        <ele>125</ele>
        <time>2012-11-16T15:32:46Z</time>
      </trkpt>
      <trkpt lat="48.58734" lon="-3.17912">
        <ele>126</ele>
        <time>2012-11-16T15:32:51Z</time>
      </trkpt>
      <trkpt lat="48.58732" lon="-3.1792">
        <ele>127</ele>
        <time>2012-11-16T15:32:56Z</time>
      </trkpt>
      <trkpt lat="48.58729" lon="-3.17931">
        <ele>127</ele>
        <time>2012-11-16T15:33:01Z</time>
      </trkpt>
      <trkpt lat="48.58727" lon="-3.17941">
        <ele>127</ele>
        <time>2012-11-16T15:33:06Z</time>
      </trkpt>
      <trkpt lat="48.58724" lon="-3.17953">
        <ele>127</ele>
        <time>2012-11-16T15:33:11Z</time>
      </trkpt>
      <trkpt lat="48.58723" lon="-3.17962">
        <ele>127</ele>
        <time>2012-11-16T15:33:16Z</time>
      </trkpt>
      <trkpt lat="48.58721" lon="-3.1797">
        <ele>127</ele>
        <time>2012-11-16T15:33:21Z</time>
      </trkpt>
      <trkpt lat="48.58716" lon="-3.17982">
        <ele>127</ele>
        <time>2012-11-16T15:33:26Z</time>
      </trkpt>
      <trkpt lat="48.58715" lon="-3.17994">
        <ele>127</ele>
        <time>2012-11-16T15:33:32Z</time>
      </trkpt>
      <trkpt lat="48.58712" lon="-3.18002">
        <ele>127</ele>
        <time>2012-11-16T15:33:37Z</time>
      </trkpt>
      <trkpt lat="48.58708" lon="-3.18011">
        <ele>127</ele>
        <time>2012-11-16T15:33:42Z</time>
      </trkpt>
      <trkpt lat="48.58702" lon="-3.18016">
        <ele>127</ele>
        <time>2012-11-16T15:33:47Z</time>
      </trkpt>
      <trkpt lat="48.58694" lon="-3.18016">
        <ele>127</ele>
        <time>2012-11-16T15:33:52Z</time>
      </trkpt>
      <trkpt lat="48.58687" lon="-3.18015">
        <ele>127</ele>
        <time>2012-11-16T15:33:57Z</time>
      </trkpt>
      <trkpt lat="48.58679" lon="-3.18016">
        <ele>127</ele>
        <time>2012-11-16T15:34:02Z</time>
      </trkpt>
      <trkpt lat="48.58674" lon="-3.18025">
        <ele>127</ele>
        <time>2012-11-16T15:34:07Z</time>
      </trkpt>
      <trkpt lat="48.5867" lon="-3.18035">
        <ele>127</ele>
        <time>2012-11-16T15:34:12Z</time>
      </trkpt>
      <trkpt lat="48.58665" lon="-3.18044">
        <ele>127</ele>
        <time>2012-11-16T15:34:17Z</time>
      </trkpt>
      <trkpt lat="48.5866" lon="-3.18054">
        <ele>127</ele>
        <time>2012-11-16T15:34:22Z</time>
      </trkpt>
      <trkpt lat="48.58657" lon="-3.18067">
        <ele>127</ele>
        <time>2012-11-16T15:34:28Z</time>
      </trkpt>
      <trkpt lat="48.58654" lon="-3.18076">
        <ele>128</ele>
        <time>2012-11-16T15:34:33Z</time>
      </trkpt>
      <trkpt lat="48.58652" lon="-3.18087">
        <ele>128</ele>
        <time>2012-11-16T15:34:38Z</time>
      </trkpt>
      <trkpt lat="48.58649" lon="-3.18097">
        <ele>128</ele>
        <time>2012-11-16T15:34:44Z</time>
      </trkpt>
      <trkpt lat="48.58645" lon="-3.18107">
        <ele>128</ele>
        <time>2012-11-16T15:34:49Z</time>
      </trkpt>
      <trkpt lat="48.58641" lon="-3.18115">
        <ele>128</ele>
        <time>2012-11-16T15:34:54Z</time>
      </trkpt>
      <trkpt lat="48.58638" lon="-3.18123">
        <ele>128</ele>
        <time>2012-11-16T15:34:59Z</time>
      </trkpt>
      <trkpt lat="48.58633" lon="-3.18132">
        <ele>128</ele>
        <time>2012-11-16T15:35:04Z</time>
      </trkpt>
      <trkpt lat="48.58627" lon="-3.18143">
        <ele>128</ele>
        <time>2012-11-16T15:35:10Z</time>
      </trkpt>
      <trkpt lat="48.58622" lon="-3.18153">
        <ele>128</ele>
        <time>2012-11-16T15:35:16Z</time>
      </trkpt>
      <trkpt lat="48.58617" lon="-3.18162">
        <ele>128</ele>
        <time>2012-11-16T15:35:21Z</time>
      </trkpt>
      <trkpt lat="48.58613" lon="-3.18171">
        <ele>128</ele>
        <time>2012-11-16T15:35:26Z</time>
      </trkpt>
      <trkpt lat="48.58611" lon="-3.18181">
        <ele>128</ele>
        <time>2012-11-16T15:35:31Z</time>
      </trkpt>
      <trkpt lat="48.58611" lon="-3.18191">
        <ele>129</ele>
        <time>2012-11-16T15:35:36Z</time>
      </trkpt>
      <trkpt lat="48.58615" lon="-3.18199">
        <ele>129</ele>
        <time>2012-11-16T15:35:41Z</time>
      </trkpt>
      <trkpt lat="48.58619" lon="-3.18206">
        <ele>129</ele>
        <time>2012-11-16T15:35:46Z</time>
      </trkpt>
      <trkpt lat="48.58625" lon="-3.18214">
        <ele>129</ele>
        <time>2012-11-16T15:35:51Z</time>
      </trkpt>
      <trkpt lat="48.58631" lon="-3.18221">
        <ele>129</ele>
        <time>2012-11-16T15:35:56Z</time>
      </trkpt>
      <trkpt lat="48.58637" lon="-3.18228">
        <ele>129</ele>
        <time>2012-11-16T15:36:01Z</time>
      </trkpt>
      <trkpt lat="48.58642" lon="-3.18236">
        <ele>129</ele>
        <time>2012-11-16T15:36:06Z</time>
      </trkpt>
      <trkpt lat="48.58647" lon="-3.18244">
        <ele>130</ele>
        <time>2012-11-16T15:36:11Z</time>
      </trkpt>
      <trkpt lat="48.58652" lon="-3.18253">
        <ele>131</ele>
        <time>2012-11-16T15:36:16Z</time>
      </trkpt>
      <trkpt lat="48.58652" lon="-3.18263">
        <ele>132</ele>
        <time>2012-11-16T15:36:21Z</time>
      </trkpt>
      <trkpt lat="48.58649" lon="-3.18275">
        <ele>132</ele>
        <time>2012-11-16T15:36:26Z</time>
      </trkpt>
      <trkpt lat="48.58646" lon="-3.18285">
        <ele>132</ele>
        <time>2012-11-16T15:36:31Z</time>
      </trkpt>
      <trkpt lat="48.58644" lon="-3.18295">
        <ele>132</ele>
        <time>2012-11-16T15:36:36Z</time>
      </trkpt>
      <trkpt lat="48.58641" lon="-3.18306">
        <ele>132</ele>
        <time>2012-11-16T15:36:41Z</time>
      </trkpt>
      <trkpt lat="48.58638" lon="-3.18316">
        <ele>132</ele>
        <time>2012-11-16T15:36:46Z</time>
      </trkpt>
      <trkpt lat="48.58635" lon="-3.18327">
        <ele>132</ele>
        <time>2012-11-16T15:36:51Z</time>
      </trkpt>
      <trkpt lat="48.5863" lon="-3.18337">
        <ele>132</ele>
        <time>2012-11-16T15:36:56Z</time>
      </trkpt>
      <trkpt lat="48.58626" lon="-3.18348">
        <ele>133</ele>
        <time>2012-11-16T15:37:01Z</time>
      </trkpt>
      <trkpt lat="48.58621" lon="-3.18357">
        <ele>135</ele>
        <time>2012-11-16T15:37:06Z</time>
      </trkpt>
      <trkpt lat="48.58617" lon="-3.18367">
        <ele>138</ele>
        <time>2012-11-16T15:37:12Z</time>
      </trkpt>
      <trkpt lat="48.58611" lon="-3.18376">
        <ele>139</ele>
        <time>2012-11-16T15:37:18Z</time>
      </trkpt>
      <trkpt lat="48.58605" lon="-3.18386">
        <ele>140</ele>
        <time>2012-11-16T15:37:23Z</time>
      </trkpt>
      <trkpt lat="48.58599" lon="-3.18393">
        <ele>140</ele>
        <time>2012-11-16T15:37:28Z</time>
      </trkpt>
      <trkpt lat="48.58593" lon="-3.184">
        <ele>140</ele>
        <time>2012-11-16T15:37:33Z</time>
      </trkpt>
      <trkpt lat="48.58588" lon="-3.18408">
        <ele>140</ele>
        <time>2012-11-16T15:37:38Z</time>
      </trkpt>
      <trkpt lat="48.58583" lon="-3.18415">
        <ele>138</ele>
        <time>2012-11-16T15:37:43Z</time>
      </trkpt>
      <trkpt lat="48.58578" lon="-3.18422">
        <ele>138</ele>
        <time>2012-11-16T15:37:48Z</time>
      </trkpt>
      <trkpt lat="48.58572" lon="-3.18432">
        <ele>138</ele>
        <time>2012-11-16T15:37:54Z</time>
      </trkpt>
      <trkpt lat="48.58565" lon="-3.1844">
        <ele>138</ele>
        <time>2012-11-16T15:37:59Z</time>
      </trkpt>
      <trkpt lat="48.5856" lon="-3.18448">
        <ele>138</ele>
        <time>2012-11-16T15:38:04Z</time>
      </trkpt>
      <trkpt lat="48.58554" lon="-3.18456">
        <ele>138</ele>
        <time>2012-11-16T15:38:09Z</time>
      </trkpt>
      <trkpt lat="48.58547" lon="-3.18465">
        <ele>138</ele>
        <time>2012-11-16T15:38:15Z</time>
      </trkpt>
      <trkpt lat="48.58542" lon="-3.18473">
        <ele>139</ele>
        <time>2012-11-16T15:38:20Z</time>
      </trkpt>
      <trkpt lat="48.58536" lon="-3.18483">
        <ele>139</ele>
        <time>2012-11-16T15:38:26Z</time>
      </trkpt>
      <trkpt lat="48.58531" lon="-3.18492">
        <ele>140</ele>
        <time>2012-11-16T15:38:31Z</time>
      </trkpt>
      <trkpt lat="48.58527" lon="-3.18502">
        <ele>140</ele>
        <time>2012-11-16T15:38:37Z</time>
      </trkpt>
      <trkpt lat="48.5852" lon="-3.18505">
        <ele>141</ele>
        <time>2012-11-16T15:38:42Z</time>
      </trkpt>
      <trkpt lat="48.58512" lon="-3.185">
        <ele>141</ele>
        <time>2012-11-16T15:38:48Z</time>
      </trkpt>
      <trkpt lat="48.58507" lon="-3.18497">
        <ele>141</ele>
        <time>2012-11-16T15:38:53Z</time>
      </trkpt>
      <trkpt lat="48.58499" lon="-3.18491">
        <ele>141</ele>
        <time>2012-11-16T15:38:58Z</time>
      </trkpt>
      <trkpt lat="48.58496" lon="-3.18481">
        <ele>141</ele>
        <time>2012-11-16T15:39:03Z</time>
      </trkpt>
      <trkpt lat="48.58493" lon="-3.18471">
        <ele>137</ele>
        <time>2012-11-16T15:39:08Z</time>
      </trkpt>
      <trkpt lat="48.58488" lon="-3.18462">
        <ele>134</ele>
        <time>2012-11-16T15:39:13Z</time>
      </trkpt>
      <trkpt lat="48.58485" lon="-3.18454">
        <ele>134</ele>
        <time>2012-11-16T15:39:18Z</time>
      </trkpt>
      <trkpt lat="48.58482" lon="-3.18445">
        <ele>133</ele>
        <time>2012-11-16T15:39:23Z</time>
      </trkpt>
      <trkpt lat="48.58479" lon="-3.18433">
        <ele>132</ele>
        <time>2012-11-16T15:39:29Z</time>
      </trkpt>
      <trkpt lat="48.58476" lon="-3.18423">
        <ele>132</ele>
        <time>2012-11-16T15:39:34Z</time>
      </trkpt>
      <trkpt lat="48.5847" lon="-3.18416">
        <ele>132</ele>
        <time>2012-11-16T15:39:39Z</time>
      </trkpt>
      <trkpt lat="48.58466" lon="-3.18409">
        <ele>132</ele>
        <time>2012-11-16T15:39:45Z</time>
      </trkpt>
      <trkpt lat="48.58459" lon="-3.18402">
        <ele>132</ele>
        <time>2012-11-16T15:39:50Z</time>
      </trkpt>
      <trkpt lat="48.58455" lon="-3.18393">
        <ele>132</ele>
        <time>2012-11-16T15:39:56Z</time>
      </trkpt>
      <trkpt lat="48.58451" lon="-3.18384">
        <ele>132</ele>
        <time>2012-11-16T15:40:01Z</time>
      </trkpt>
      <trkpt lat="48.58446" lon="-3.18376">
        <ele>132</ele>
        <time>2012-11-16T15:40:06Z</time>
      </trkpt>
      <trkpt lat="48.58442" lon="-3.18366">
        <ele>132</ele>
        <time>2012-11-16T15:40:11Z</time>
      </trkpt>
      <trkpt lat="48.58436" lon="-3.18357">
        <ele>134</ele>
        <time>2012-11-16T15:40:16Z</time>
      </trkpt>
      <trkpt lat="48.58431" lon="-3.1835">
        <ele>138</ele>
        <time>2012-11-16T15:40:21Z</time>
      </trkpt>
      <trkpt lat="48.58427" lon="-3.18344">
        <ele>141</ele>
        <time>2012-11-16T15:40:26Z</time>
      </trkpt>
      <trkpt lat="48.58421" lon="-3.18337">
        <ele>141</ele>
        <time>2012-11-16T15:40:31Z</time>
      </trkpt>
      <trkpt lat="48.58417" lon="-3.18333">
        <ele>141</ele>
        <time>2012-11-16T15:40:36Z</time>
      </trkpt>
      <trkpt lat="48.58412" lon="-3.18324">
        <ele>141</ele>
        <time>2012-11-16T15:40:42Z</time>
      </trkpt>
      <trkpt lat="48.58407" lon="-3.18315">
        <ele>138</ele>
        <time>2012-11-16T15:40:48Z</time>
      </trkpt>
      <trkpt lat="48.58402" lon="-3.18305">
        <ele>138</ele>
        <time>2012-11-16T15:40:54Z</time>
      </trkpt>
      <trkpt lat="48.584" lon="-3.18295">
        <ele>138</ele>
        <time>2012-11-16T15:40:59Z</time>
      </trkpt>
      <trkpt lat="48.58397" lon="-3.18285">
        <ele>138</ele>
        <time>2012-11-16T15:41:04Z</time>
      </trkpt>
      <trkpt lat="48.58396" lon="-3.18275">
        <ele>138</ele>
        <time>2012-11-16T15:41:09Z</time>
      </trkpt>
      <trkpt lat="48.58393" lon="-3.18267">
        <ele>136</ele>
        <time>2012-11-16T15:41:14Z</time>
      </trkpt>
      <trkpt lat="48.58392" lon="-3.18257">
        <ele>133</ele>
        <time>2012-11-16T15:41:19Z</time>
      </trkpt>
      <trkpt lat="48.58392" lon="-3.18246">
        <ele>129</ele>
        <time>2012-11-16T15:41:24Z</time>
      </trkpt>
      <trkpt lat="48.5839" lon="-3.18234">
        <ele>128</ele>
        <time>2012-11-16T15:41:29Z</time>
      </trkpt>
      <trkpt lat="48.58388" lon="-3.18222">
        <ele>128</ele>
        <time>2012-11-16T15:41:34Z</time>
      </trkpt>
      <trkpt lat="48.58386" lon="-3.18215">
        <ele>128</ele>
        <time>2012-11-16T15:41:39Z</time>
      </trkpt>
      <trkpt lat="48.58384" lon="-3.18205">
        <ele>128</ele>
        <time>2012-11-16T15:41:44Z</time>
      </trkpt>
      <trkpt lat="48.58382" lon="-3.18195">
        <ele>128</ele>
        <time>2012-11-16T15:41:49Z</time>
      </trkpt>
      <trkpt lat="48.58379" lon="-3.18186">
        <ele>128</ele>
        <time>2012-11-16T15:41:54Z</time>
      </trkpt>
      <trkpt lat="48.58377" lon="-3.18175">
        <ele>128</ele>
        <time>2012-11-16T15:41:59Z</time>
      </trkpt>
      <trkpt lat="48.58375" lon="-3.18165">
        <ele>128</ele>
        <time>2012-11-16T15:42:04Z</time>
      </trkpt>
      <trkpt lat="48.58371" lon="-3.18156">
        <ele>128</ele>
        <time>2012-11-16T15:42:09Z</time>
      </trkpt>
      <trkpt lat="48.58368" lon="-3.18146">
        <ele>128</ele>
        <time>2012-11-16T15:42:14Z</time>
      </trkpt>
      <trkpt lat="48.58365" lon="-3.18137">
        <ele>128</ele>
        <time>2012-11-16T15:42:19Z</time>
      </trkpt>
      <trkpt lat="48.58363" lon="-3.18126">
        <ele>128</ele>
        <time>2012-11-16T15:42:24Z</time>
      </trkpt>
      <trkpt lat="48.58361" lon="-3.18118">
        <ele>128</ele>
        <time>2012-11-16T15:42:29Z</time>
      </trkpt>
      <trkpt lat="48.58356" lon="-3.18108">
        <ele>128</ele>
        <time>2012-11-16T15:42:35Z</time>
      </trkpt>
      <trkpt lat="48.58351" lon="-3.18099">
        <ele>131</ele>
        <time>2012-11-16T15:42:41Z</time>
      </trkpt>
      <trkpt lat="48.58345" lon="-3.18097">
        <ele>135</ele>
        <time>2012-11-16T15:42:49Z</time>
      </trkpt>
      <trkpt lat="48.58344" lon="-3.18099">
        <ele>137</ele>
        <time>2012-11-16T15:42:54Z</time>
      </trkpt>
      <trkpt lat="48.58338" lon="-3.18099">
        <ele>137</ele>
        <time>2012-11-16T15:42:59Z</time>
      </trkpt>
      <trkpt lat="48.58331" lon="-3.18097">
        <ele>137</ele>
        <time>2012-11-16T15:43:04Z</time>
      </trkpt>
      <trkpt lat="48.58325" lon="-3.18098">
        <ele>137</ele>
        <time>2012-11-16T15:43:09Z</time>
      </trkpt>
      <trkpt lat="48.58318" lon="-3.18097">
        <ele>137</ele>
        <time>2012-11-16T15:43:14Z</time>
      </trkpt>
      <trkpt lat="48.58311" lon="-3.18097">
        <ele>137</ele>
        <time>2012-11-16T15:43:19Z</time>
      </trkpt>
      <trkpt lat="48.58305" lon="-3.18098">
        <ele>137</ele>
        <time>2012-11-16T15:43:24Z</time>
      </trkpt>
      <trkpt lat="48.58297" lon="-3.18098">
        <ele>137</ele>
        <time>2012-11-16T15:43:29Z</time>
      </trkpt>
      <trkpt lat="48.5829" lon="-3.18098">
        <ele>137</ele>
        <time>2012-11-16T15:43:34Z</time>
      </trkpt>
      <trkpt lat="48.58283" lon="-3.181">
        <ele>137</ele>
        <time>2012-11-16T15:43:39Z</time>
      </trkpt>
      <trkpt lat="48.58275" lon="-3.18101">
        <ele>137</ele>
        <time>2012-11-16T15:43:44Z</time>
      </trkpt>
      <trkpt lat="48.58268" lon="-3.18102">
        <ele>137</ele>
        <time>2012-11-16T15:43:49Z</time>
      </trkpt>
      <trkpt lat="48.58262" lon="-3.18103">
        <ele>137</ele>
        <time>2012-11-16T15:43:54Z</time>
      </trkpt>
      <trkpt lat="48.58255" lon="-3.181">
        <ele>137</ele>
        <time>2012-11-16T15:43:59Z</time>
      </trkpt>
      <trkpt lat="48.58247" lon="-3.18097">
        <ele>137</ele>
        <time>2012-11-16T15:44:04Z</time>
      </trkpt>
      <trkpt lat="48.5824" lon="-3.18095">
        <ele>136</ele>
        <time>2012-11-16T15:44:09Z</time>
      </trkpt>
      <trkpt lat="48.58232" lon="-3.18094">
        <ele>136</ele>
        <time>2012-11-16T15:44:14Z</time>
      </trkpt>
      <trkpt lat="48.58224" lon="-3.18095">
        <ele>136</ele>
        <time>2012-11-16T15:44:19Z</time>
      </trkpt>
      <trkpt lat="48.58216" lon="-3.18094">
        <ele>136</ele>
        <time>2012-11-16T15:44:24Z</time>
      </trkpt>
      <trkpt lat="48.58209" lon="-3.18093">
        <ele>136</ele>
        <time>2012-11-16T15:44:29Z</time>
      </trkpt>
      <trkpt lat="48.58202" lon="-3.18092">
        <ele>136</ele>
        <time>2012-11-16T15:44:34Z</time>
      </trkpt>
      <trkpt lat="48.58195" lon="-3.18091">
        <ele>136</ele>
        <time>2012-11-16T15:44:39Z</time>
      </trkpt>
      <trkpt lat="48.58188" lon="-3.18091">
        <ele>136</ele>
        <time>2012-11-16T15:44:44Z</time>
      </trkpt>
      <trkpt lat="48.58182" lon="-3.18092">
        <ele>136</ele>
        <time>2012-11-16T15:44:49Z</time>
      </trkpt>
      <trkpt lat="48.58175" lon="-3.18095">
        <ele>135</ele>
        <time>2012-11-16T15:44:54Z</time>
      </trkpt>
      <trkpt lat="48.58172" lon="-3.18103">
        <ele>133</ele>
        <time>2012-11-16T15:44:59Z</time>
      </trkpt>
      <trkpt lat="48.58171" lon="-3.18114">
        <ele>133</ele>
        <time>2012-11-16T15:45:04Z</time>
      </trkpt>
      <trkpt lat="48.5817" lon="-3.18125">
        <ele>133</ele>
        <time>2012-11-16T15:45:09Z</time>
      </trkpt>
      <trkpt lat="48.58168" lon="-3.18135">
        <ele>133</ele>
        <time>2012-11-16T15:45:14Z</time>
      </trkpt>
      <trkpt lat="48.58167" lon="-3.18144">
        <ele>133</ele>
        <time>2012-11-16T15:45:19Z</time>
      </trkpt>
      <trkpt lat="48.58164" lon="-3.18153">
        <ele>133</ele>
        <time>2012-11-16T15:45:24Z</time>
      </trkpt>
      <trkpt lat="48.58161" lon="-3.18163">
        <ele>133</ele>
        <time>2012-11-16T15:45:30Z</time>
      </trkpt>
      <trkpt lat="48.58153" lon="-3.18167">
        <ele>133</ele>
        <time>2012-11-16T15:45:35Z</time>
      </trkpt>
      <trkpt lat="48.58145" lon="-3.18169">
        <ele>133</ele>
        <time>2012-11-16T15:45:40Z</time>
      </trkpt>
      <trkpt lat="48.58138" lon="-3.18169">
        <ele>133</ele>
        <time>2012-11-16T15:45:45Z</time>
      </trkpt>
      <trkpt lat="48.58131" lon="-3.18168">
        <ele>133</ele>
        <time>2012-11-16T15:45:50Z</time>
      </trkpt>
      <trkpt lat="48.58124" lon="-3.18168">
        <ele>133</ele>
        <time>2012-11-16T15:45:55Z</time>
      </trkpt>
      <trkpt lat="48.58117" lon="-3.18167">
        <ele>133</ele>
        <time>2012-11-16T15:46:00Z</time>
      </trkpt>
      <trkpt lat="48.5811" lon="-3.18168">
        <ele>133</ele>
        <time>2012-11-16T15:46:05Z</time>
      </trkpt>
      <trkpt lat="48.58103" lon="-3.18168">
        <ele>133</ele>
        <time>2012-11-16T15:46:10Z</time>
      </trkpt>
      <trkpt lat="48.58097" lon="-3.18168">
        <ele>133</ele>
        <time>2012-11-16T15:46:15Z</time>
      </trkpt>
      <trkpt lat="48.5809" lon="-3.18167">
        <ele>133</ele>
        <time>2012-11-16T15:46:20Z</time>
      </trkpt>
      <trkpt lat="48.58083" lon="-3.18165">
        <ele>133</ele>
        <time>2012-11-16T15:46:25Z</time>
      </trkpt>
      <trkpt lat="48.58079" lon="-3.18162">
        <ele>133</ele>
        <time>2012-11-16T15:46:37Z</time>
      </trkpt>
      <trkpt lat="48.58077" lon="-3.18164">
        <ele>133</ele>
        <time>2012-11-16T15:46:42Z</time>
      </trkpt>
      <trkpt lat="48.58073" lon="-3.18166">
        <ele>133</ele>
        <time>2012-11-16T15:46:48Z</time>
      </trkpt>
      <trkpt lat="48.58068" lon="-3.18168">
        <ele>133</ele>
        <time>2012-11-16T15:46:54Z</time>
      </trkpt>
      <trkpt lat="48.58067" lon="-3.18172">
        <ele>133</ele>
        <time>2012-11-16T15:46:59Z</time>
      </trkpt>
      <trkpt lat="48.58064" lon="-3.18172">
        <ele>133</ele>
        <time>2012-11-16T15:47:04Z</time>
      </trkpt>
      <trkpt lat="48.58062" lon="-3.18167">
        <ele>133</ele>
        <time>2012-11-16T15:47:10Z</time>
      </trkpt>
      <trkpt lat="48.58058" lon="-3.18165">
        <ele>133</ele>
        <time>2012-11-16T15:47:16Z</time>
      </trkpt>
      <trkpt lat="48.58054" lon="-3.1816">
        <ele>134</ele>
        <time>2012-11-16T15:47:22Z</time>
      </trkpt>
      <trkpt lat="48.58054" lon="-3.18158">
        <ele>134</ele>
        <time>2012-11-16T15:47:23Z</time>
      </trkpt>
    </trkseg>
  </trk>
</gpx>